[[{"header":{"parameterUnit":"m.s-1","parameterCategory":1,"la1":30.6,"la2":28.766,"lo1":-90.7593,"lo2":-88.6598,"dx":0.0162,"dy":0.0183,"nx":116,"ny":114,"refTime":"2023-01-29T06:00:00:Z","depth":0,"parameterNumber":2,"parameterNumberName":"U-component_of_WINDS"},"data":[0.0,0.0,0.0,0.0,0.0,0.0,0.0,0.0,0.0,0.0,0.0,0.0,0.0,0.0,0.0,0.0,0.0,0.0,0.0,0.0,0.0,0.0,0.0,0.0,0.0,0.0,0.0,0.0,0.0,0.0,0.0,0.0,0.0,0.0,0.0,0.0,0.0,0.0,0.0,0.0,0.0,0.0,0.0,0.0,0.0,0.0,0.0,0.0,0.0,0.0,0.0,0.0,0.0,0.0,0.0,0.0,0.0,0.0,0.0,0.0,0.0,0.0,0.0,0.0,0.0,0.0,0.0,0.0,0.0,0.0,0.0,0.0,0.0,0.0,0.0,0.0,0.0,0.0,0.0,0.0,0.0,0.0,0.0,0.0,0.0,0.0,0.0,0.0,0.0,0.0,0.0,0.0,0.0,0.0,0.0,0.0,0.0,0.0,0.0,0.0,0.0,0.0,0.0,0.0,0.0,0.0,0.0,0.0,0.0,0.0,0.0,0.0,0.0,0.0,0.0,0.0,0.0,0.0,0.0,0.0,0.0,0.0,0.0,0.0,0.0,0.0,0.0,0.0,0.0,0.0,0.0,0.0,0.0,0.0,0.0,0.0,0.0,0.0,0.0,0.0,0.0,0.0,0.0,0.0,0.0,0.0,0.0,0.0,0.0,0.0,0.0,0.0,0.0,0.0,0.0,0.0,0.0,0.0,0.0,0.0,0.0,0.0,0.0,0.0,0.0,0.0,0.0,0.0,0.0,0.0,0.0,0.0,0.0,0.0,0.0,0.0,0.0,0.0,0.0,0.0,0.0,0.0,0.0,0.0,0.0,0.0,0.0,0.0,0.0,0.0,0.0,0.0,0.0,0.0,0.0,0.0,0.0,0.0,0.0,0.0,0.0,0.0,0.0,0.0,0.0,0.0,0.0,0.0,0.0,0.0,0.0,0.0,0.0,0.0,0.0,0.0,0.0,0.0,0.0,0.0,0.0,0.0,0.0,0.0,0.0,0.0,0.0,0.0,0.0,0.0,0.0,0.0,0.0,0.0,0.0,0.0,0.0,0.0,0.0,0.0,0.0,0.0,0.0,0.0,0.0,0.0,0.0,0.0,0.0,0.0,0.0,0.0,0.0,0.0,0.0,0.0,0.0,0.0,0.0,0.0,0.0,0.0,0.0,0.0,0.0,0.0,0.0,0.0,0.0,0.0,0.0,0.0,0.0,0.0,0.0,0.0,0.0,0.0,0.0,0.0,0.0,0.0,0.0,0.0,0.0,0.0,0.0,0.0,0.0,0.0,0.0,0.0,0.0,0.0,0.0,0.0,0.0,0.0,0.0,0.0,0.0,0.0,0.0,0.0,0.0,0.0,0.0,0.0,0.0,0.0,0.0,0.0,0.0,0.0,0.0,0.0,0.0,0.0,0.0,0.0,0.0,0.0,0.0,0.0,0.0,0.0,0.0,0.0,0.0,0.0,0.0,0.0,0.0,0.0,0.0,0.0,0.0,0.0,0.0,0.0,0.0,0.0,0.0,0.0,0.0,0.0,0.0,0.0,0.0,0.0,0.0,0.0,0.0,0.0,0.0,0.0,0.0,0.0,0.0,0.0,0.0,0.0,0.0,0.0,0.0,0.0,0.0,0.0,0.0,0.0,0.0,0.0,0.0,0.0,0.0,0.0,0.0,0.0,0.0,0.0,0.0,0.0,0.0,0.0,0.0,0.0,0.0,0.0,0.0,0.0,0.0,0.0,0.0,0.0,0.0,0.0,0.0,0.0,0.0,0.0,0.0,0.0,0.0,0.0,0.0,0.0,0.0,0.0,0.0,0.0,0.0,0.0,0.0,0.0,0.0,0.0,0.0,0.0,0.0,0.0,0.0,0.0,0.0,0.0,0.0,0.0,0.0,0.0,0.0,0.0,0.0,0.0,0.0,0.0,0.0,0.0,0.0,0.0,0.0,0.0,0.0,0.0,0.0,0.0,0.0,0.0,0.0,0.0,0.0,0.0,0.0,0.0,0.0,0.0,0.0,0.0,0.0,0.0,0.0,0.0,0.0,0.0,0.0,0.0,0.0,0.0,0.0,0.0,0.0,0.0,0.0,0.0,0.0,0.0,0.0,0.0,0.0,0.0,0.0,0.0,0.0,0.0,0.0,0.0,0.0,0.0,0.0,0.0,0.0,0.0,0.0,0.0,0.0,0.0,0.0,0.0,0.0,0.0,0.0,0.0,0.0,0.0,0.0,0.0,0.0,0.0,0.0,0.0,0.0,0.0,0.0,0.0,0.0,0.0,0.0,0.0,0.0,0.0,0.0,0.0,0.0,0.0,0.0,0.0,0.0,0.0,0.0,0.0,0.0,0.0,0.0,0.0,0.0,0.0,0.0,0.0,0.0,0.0,0.0,0.0,0.0,0.0,0.0,0.0,0.0,0.0,0.0,0.0,0.0,0.0,0.0,0.0,0.0,0.0,0.0,0.0,0.0,0.0,0.0,0.0,0.0,0.0,0.0,0.0,0.0,0.0,0.0,0.0,0.0,0.0,0.0,0.0,0.0,0.0,0.0,0.0,0.0,0.0,0.0,0.0,0.0,0.0,0.0,0.0,0.0,0.0,0.0,0.0,0.0,0.0,0.0,0.0,0.0,0.0,0.0,0.0,0.0,0.0,0.0,0.0,0.0,0.0,0.0,0.0,0.0,0.0,0.0,0.0,0.0,0.0,0.0,0.0,0.0,0.0,0.0,0.0,0.0,0.0,0.0,0.0,0.0,0.0,0.0,0.0,0.0,0.0,0.0,0.0,0.0,0.0,0.0,0.0,0.0,0.0,0.0,0.0,0.0,0.0,0.0,0.0,0.0,0.0,0.0,0.0,0.0,0.0,0.0,0.0,0.0,0.0,0.0,0.0,0.0,0.0,0.0,0.0,0.0,0.0,0.0,0.0,0.0,0.0,0.0,0.0,0.0,0.0,0.0,0.0,0.0,0.0,0.0,0.0,0.0,0.0,0.0,0.0,0.0,0.0,0.0,0.0,0.0,0.0,0.0,0.0,0.0,0.0,0.0,0.0,0.0,0.0,0.0,0.0,0.0,0.0,0.0,0.0,0.0,0.0,0.0,0.0,0.0,0.0,0.0,0.0,0.0,0.0,0.0,0.0,0.0,0.0,0.0,0.0,0.0,0.0,0.0,0.0,0.0,0.0,0.0,0.0,0.0,0.0,0.0,0.0,0.0,0.0,0.0,0.0,0.0,0.0,0.0,0.0,0.0,0.0,0.0,0.0,0.0,0.0,0.0,0.0,0.0,0.0,0.0,0.0,0.0,0.0,0.0,0.0,0.0,0.0,0.0,0.0,0.0,0.0,0.0,0.0,0.0,0.0,0.0,0.0,0.0,0.0,0.0,0.0,0.0,0.0,0.0,0.0,0.0,0.0,0.0,0.0,0.0,0.0,0.0,0.0,0.0,0.0,0.0,0.0,0.0,0.0,0.0,0.0,0.0,0.0,0.0,0.0,0.0,0.0,0.0,0.0,0.0,0.0,0.0,0.0,0.0,0.0,0.0,0.0,0.0,0.0,0.0,0.0,0.0,0.0,0.0,0.0,0.0,0.0,0.0,0.0,0.0,0.0,0.0,0.0,0.0,0.0,0.0,0.0,0.0,0.0,0.0,0.0,0.0,0.0,0.0,0.0,0.0,0.0,0.0,0.0,0.0,0.0,0.0,0.0,0.0,0.0,0.0,0.0,0.0,0.0,0.0,0.0,0.0,0.0,0.0,0.0,0.0,0.0,0.0,0.0,0.0,0.0,0.0,0.0,0.0,0.0,0.0,0.0,0.0,0.0,0.0,0.0,0.0,0.0,0.0,0.0,0.0,0.0,0.0,0.0,0.0,0.0,0.0,0.0,0.0,0.0,0.0,0.0,0.0,0.0,0.0,0.0,0.0,0.0,0.0,0.0,0.0,0.0,0.0,0.0,0.0,0.0,0.0,0.0,0.0,0.0,0.0,0.0,0.0,0.0,0.0,0.0,0.0,0.0,0.0,0.0,0.0,0.0,0.0,0.0,0.0,0.0,0.0,0.0,0.0,0.0,0.0,0.0,0.0,0.0,0.0,0.0,0.0,0.0,0.0,0.0,0.0,0.0,0.0,0.0,0.0,0.0,0.0,0.0,0.0,0.0,0.0,0.0,0.0,0.0,0.0,0.0,0.0,0.0,0.0,0.0,0.0,0.0,0.0,0.0,0.0,0.0,0.0,0.0,0.0,0.0,0.0,0.0,0.0,0.0,0.0,0.0,0.0,0.0,0.0,0.0,0.0,0.0,0.0,0.0,0.0,0.0,0.0,0.0,0.0,0.0,0.0,0.0,0.0,0.0,0.0,0.0,0.0,0.0,0.0,0.0,0.0,0.0,0.0,0.0,0.0,0.0,0.0,0.0,0.0,0.0,0.0,0.0,0.0,0.0,0.0,0.0,0.0,0.0,0.0,0.0,0.0,0.0,0.0,0.0,0.0,0.0,0.0,0.0,0.0,0.0,0.0,0.0,0.0,0.0,0.0,0.0,0.0,0.0,0.0,0.0,0.0,0.0,0.0,0.0,0.0,0.0,0.0,0.0,0.0,0.0,0.0,0.0,0.0,0.0,0.0,0.0,0.0,0.0,0.0,0.0,0.0,0.0,0.0,0.0,0.0,0.0,0.0,0.0,0.0,0.0,0.0,0.0,0.0,0.0,0.0,0.0,0.0,0.0,0.0,0.0,0.0,0.0,0.0,0.0,0.0,0.0,0.0,0.0,0.0,0.0,0.0,0.0,0.0,0.0,0.0,0.0,0.0,0.0,0.0,0.0,0.0,0.0,0.0,0.0,0.0,0.0,0.0,0.0,0.0,0.0,0.0,0.0,0.0,0.0,0.0,0.0,0.0,0.0,0.0,0.0,0.0,0.0,0.0,0.0,0.0,0.0,0.0,0.0,0.0,0.0,0.0,0.0,0.0,0.0,0.0,0.0,0.0,0.0,0.0,0.0,0.0,0.0,0.0,0.0,0.0,0.0,0.0,0.0,0.0,0.0,0.0,0.0,0.0,0.0,0.0,0.0,0.0,0.0,0.0,0.0,0.0,0.0,0.0,0.0,0.0,0.0,0.0,0.0,0.0,0.0,0.0,0.0,0.0,0.0,0.0,0.0,0.0,0.0,0.0,0.0,0.0,0.0,0.0,0.0,0.0,0.0,0.0,0.0,0.0,0.0,0.0,0.0,0.0,0.0,0.0,0.0,0.0,0.0,0.0,0.0,0.0,0.0,0.0,0.0,0.0,0.0,0.0,0.0,0.0,0.0,0.0,0.0,0.0,0.0,0.0,0.0,0.0,0.0,0.0,0.0,0.0,0.0,0.0,0.0,0.0,0.0,0.0,0.0,0.0,0.0,0.0,0.0,0.0,0.0,0.0,0.0,0.0,0.0,0.0,0.0,0.0,0.0,0.0,0.0,0.0,0.0,0.0,0.0,0.0,0.0,0.0,0.0,0.0,0.0,0.0,0.0,0.0,0.0,0.0,0.0,0.0,0.0,0.0,0.0,0.0,0.0,0.0,0.0,0.0,0.0,0.0,0.0,0.0,0.0,0.0,0.0,0.0,0.0,0.0,0.0,0.0,0.0,0.0,0.0,0.0,0.0,0.0,0.0,0.0,0.0,0.0,0.0,0.0,0.0,0.0,0.0,0.0,0.0,0.0,0.0,0.0,0.0,0.0,0.0,0.0,0.0,0.0,0.0,0.0,0.0,0.0,0.0,0.0,0.0,0.0,0.0,0.0,0.0,0.0,0.0,0.0,0.0,0.0,0.0,0.0,0.0,0.0,0.0,0.0,0.0,0.0,0.0,0.0,0.0,0.0,0.0,0.0,0.0,0.0,0.0,0.0,0.0,0.0,0.0,0.0,0.0,0.0,0.0,0.0,0.0,0.0,0.0,0.0,0.0,0.0,0.0,0.0,0.0,0.0,0.0,0.0,0.0,0.0,0.0,0.0,0.0,0.0,0.0,0.0,0.0,0.0,0.0,0.0,0.0,0.0,0.0,0.0,0.0,0.0,0.0,0.0,0.0,0.0,0.0,0.0,0.0,0.0,0.0,0.0,0.0,0.0,0.0,-1.2305,-1.2305,0.0,0.0,0.0,0.0,0.0,0.0,0.0,0.0,0.0,0.0,0.0,0.0,0.0,0.0,0.0,0.0,0.0,0.0,0.0,0.0,0.0,0.0,0.0,0.0,0.0,0.0,0.0,0.0,0.0,0.0,0.0,0.0,0.0,0.0,0.0,0.0,0.0,0.0,0.0,0.0,0.0,0.0,0.0,0.0,0.0,0.0,0.0,0.0,0.0,0.0,0.0,0.0,0.0,0.0,0.0,0.0,0.0,0.0,0.0,0.0,0.0,0.0,0.0,0.0,0.0,0.0,0.0,0.0,0.0,0.0,0.0,0.0,0.0,0.0,0.0,0.0,0.0,0.0,0.0,0.0,0.0,0.0,0.0,0.0,0.0,0.0,0.0,0.0,0.0,0.0,0.0,0.0,0.0,0.0,0.0,0.0,0.0,0.0,0.0,0.0,0.0,0.0,0.0,0.0,0.0,0.0,0.0,0.0,0.0,0.0,0.0,0.0,0.0,0.0,-1.2305,-1.2305,0.0,0.0,0.0,0.0,0.0,0.0,0.0,0.0,0.0,0.0,0.0,0.0,0.0,0.0,0.0,0.0,0.0,0.0,0.0,0.0,0.0,0.0,0.0,0.0,0.0,0.0,0.0,0.0,0.0,0.0,0.0,0.0,0.0,0.0,0.0,0.0,0.0,0.0,0.0,0.0,0.0,0.0,0.0,0.0,0.0,0.0,0.0,0.0,0.0,0.0,0.0,0.0,0.0,0.0,0.0,0.0,0.0,0.0,0.0,0.0,0.0,0.0,0.0,0.0,0.0,0.0,0.0,0.0,0.0,0.0,0.0,0.0,0.0,0.0,0.0,0.0,0.0,0.0,0.0,0.0,0.0,0.0,0.0,0.0,0.0,0.0,0.0,0.0,0.0,0.0,0.0,0.0,0.0,0.0,0.0,0.0,0.0,0.0,0.0,0.0,0.0,0.0,0.0,0.0,0.0,0.0,0.0,0.0,-1.2305,-1.2305,-1.2305,-1.2305,-1.2305,-1.2305,-1.2305,-1.2305,-1.2305,-1.2305,0.0,0.0,0.0,0.0,0.0,0.0,0.0,0.0,0.0,0.0,0.0,0.0,0.0,0.0,0.0,0.0,0.0,0.0,0.0,0.0,0.0,0.0,0.0,0.0,0.0,0.0,0.0,0.0,0.0,0.0,0.0,0.0,0.0,0.0,0.0,0.0,0.0,0.0,-1.2305,-1.2305,-1.2305,-1.2305,-1.2305,0.0,0.0,0.0,0.0,0.0,0.0,0.0,0.0,0.0,0.0,0.0,0.0,0.0,0.0,0.0,0.0,0.0,0.0,0.0,0.0,0.0,0.0,0.0,0.0,0.0,0.0,0.0,0.0,0.0,0.0,0.0,0.0,0.0,0.0,0.0,0.0,0.0,0.0,0.0,0.0,0.0,0.0,0.0,-1.2305,-1.2305,0.0,0.0,0.0,0.0,0.0,0.0,0.0,0.0,0.0,0.0,0.0,0.0,0.0,-1.2305,-1.2305,-1.2305,-1.2305,-1.2305,-1.2305,-1.2305,-1.2305,-1.2305,-1.2305,-1.2305,-1.2305,0.0,-1.2305,-1.2305,0.0,0.0,0.0,0.0,0.0,0.0,0.0,0.0,0.0,0.0,0.0,0.0,0.0,0.0,0.0,0.0,0.0,0.0,0.0,0.0,0.0,0.0,0.0,0.0,0.0,0.0,0.0,0.0,0.0,0.0,0.0,0.0,0.0,0.0,0.0,0.0,-1.2744,-1.2465,-1.2305,-1.2305,-1.2305,-1.2305,-1.2305,-1.2305,-1.2305,-1.2305,0.0,0.0,0.0,0.0,0.0,0.0,0.0,0.0,0.0,0.0,0.0,0.0,0.0,0.0,0.0,0.0,0.0,0.0,0.0,0.0,0.0,0.0,0.0,0.0,0.0,0.0,0.0,0.0,0.0,0.0,0.0,0.0,0.0,0.0,0.0,0.0,0.0,0.0,0.0,-1.2305,-1.2305,-1.2305,-1.2305,-1.2305,0.0,0.0,0.0,0.0,0.0,0.0,0.0,0.0,0.0,-1.2305,-1.2305,-1.2305,-1.2305,-1.2305,-1.2305,-1.2305,-1.2305,-1.2305,-1.2305,-1.2305,-1.2305,-1.2305,-1.2305,-1.2305,-1.2305,-1.2305,-1.2305,-1.2305,0.0,0.0,0.0,0.0,-1.2305,-1.2305,0.0,0.0,0.0,0.0,0.0,0.0,0.0,0.0,0.0,0.0,0.0,0.0,0.0,0.0,0.0,-1.328,0.0,0.0,0.0,0.0,0.0,0.0,0.0,0.0,0.0,0.0,0.0,0.0,-1.2971,-1.267,-1.2412,-1.2338,-1.2305,-1.2305,-1.2305,-1.2305,-1.2305,-1.2305,-1.2305,0.0,0.0,0.0,0.0,0.0,0.0,0.0,0.0,0.0,0.0,0.0,0.0,0.0,0.0,0.0,0.0,0.0,0.0,0.0,0.0,0.0,0.0,0.0,0.0,0.0,0.0,0.0,0.0,0.0,0.0,0.0,0.0,0.0,0.0,0.0,0.0,0.0,0.0,-1.2305,-1.2305,-1.2305,-1.2305,-1.2305,0.0,0.0,0.0,0.0,0.0,0.0,-1.2305,-1.2305,-1.2305,-1.2305,-1.2305,-1.2305,-1.2305,-1.2305,-1.2338,-1.2418,-1.2418,-1.2458,-1.2532,-1.2532,-1.2532,-1.2532,-1.2532,-1.2532,-1.2525,-1.2365,-1.2305,-1.2305,-1.2305,-1.2305,-1.2305,-1.2305,-1.2305,-1.2305,0.0,0.0,0.0,0.0,0.0,0.0,0.0,0.0,0.0,0.0,0.0,0.0,0.0,0.0,-1.358,-1.358,-1.3881,-1.4041,0.0,0.0,0.0,0.0,0.0,0.0,0.0,0.0,0.0,-1.358,-1.3072,-1.2777,-1.2757,-1.2438,-1.2305,-1.2305,-1.2305,-1.2305,-1.2305,-1.2305,-1.2305,-1.2305,0.0,0.0,0.0,0.0,0.0,0.0,0.0,0.0,0.0,0.0,0.0,0.0,0.0,0.0,0.0,0.0,0.0,0.0,0.0,0.0,0.0,0.0,0.0,0.0,0.0,0.0,0.0,0.0,0.0,0.0,0.0,0.0,0.0,0.0,0.0,0.0,0.0,0.0,0.0,-1.2305,-1.2305,0.0,0.0,0.0,0.0,-1.2305,-1.2305,-1.2305,-1.2305,-1.2305,-1.2305,-1.2305,-1.2305,-1.2305,-1.2305,-1.2305,-1.2445,-1.2764,-1.2764,-1.2918,-1.316,-1.316,-1.316,-1.316,-1.316,-1.316,-1.312,-1.2545,-1.2305,-1.2305,-1.2305,-1.2305,-1.2305,-1.2305,-1.2305,-1.2305,0.0,0.0,0.0,0.0,0.0,0.0,0.0,0.0,0.0,0.0,0.0,0.0,0.0,-1.3868,-1.3928,-1.3928,-1.4021,-1.4088,-1.4088,0.0,0.0,0.0,0.0,0.0,0.0,0.0,-1.3834,-1.36,-1.3427,-1.3126,-1.2784,-1.2677,-1.2522,-1.2305,-1.2305,-1.2305,-1.2305,-1.2305,-1.2305,-1.2305,-1.2305,-1.2305,0.0,0.0,0.0,0.0,0.0,0.0,0.0,0.0,0.0,0.0,0.0,0.0,0.0,0.0,0.0,0.0,0.0,0.0,0.0,0.0,0.0,0.0,0.0,0.0,0.0,0.0,0.0,0.0,0.0,0.0,0.0,0.0,0.0,0.0,0.0,0.0,0.0,-1.2305,-1.2305,0.0,-1.2305,-1.2305,-1.2305,-1.2305,-1.2305,-1.2305,-1.2305,-1.2305,-1.2392,-1.2623,-1.2623,-1.2685,-1.2886,-1.2886,-1.2939,-1.3046,-1.3046,-1.3106,-1.3213,-1.3213,-1.3213,-1.3213,-1.3213,-1.3213,-1.3193,-1.2979,-1.2886,-1.2886,-1.2886,-1.2886,-1.2886,-1.2886,-1.2886,-1.2886,0.0,0.0,0.0,0.0,0.0,0.0,0.0,0.0,0.0,0.0,0.0,-1.4088,-1.4088,-1.4088,-1.4088,-1.4088,-1.4088,-1.4088,-1.4088,0.0,0.0,0.0,0.0,0.0,0.0,-1.4088,-1.3988,-1.3753,-1.3653,-1.3387,-1.2938,-1.2837,-1.2623,-1.2305,-1.2305,-1.2305,-1.2305,-1.2305,-1.2305,-1.2305,-1.2305,-1.2305,-1.2305,0.0,0.0,0.0,0.0,0.0,0.0,0.0,0.0,0.0,0.0,0.0,0.0,0.0,0.0,0.0,0.0,0.0,0.0,0.0,0.0,0.0,0.0,0.0,0.0,0.0,0.0,0.0,0.0,0.0,0.0,0.0,0.0,0.0,0.0,-1.2305,-1.2305,-1.2305,-1.2305,-1.2305,-1.2305,-1.2305,-1.2305,-1.2305,-1.2305,-1.2345,-1.2445,-1.2489,-1.263,-1.2931,-1.2945,-1.3006,-1.3206,-1.3213,-1.326,-1.3313,-1.3313,-1.3407,-1.3507,-1.3507,-1.3507,-1.3507,-1.3507,-1.3507,-1.3507,-1.3507,-1.3507,-1.3487,-1.3287,-1.3213,-1.3213,-1.3213,-1.3213,-1.3227,0.0,0.0,0.0,0.0,0.0,0.0,0.0,0.0,0.0,0.0,-1.4082,-1.4082,-1.4075,-1.4082,-1.4088,-1.4088,-1.4088,-1.4088,-1.4088,-1.4088,0.0,0.0,0.0,0.0,-1.4088,-1.4088,-1.4088,-1.4088,-1.376,-1.3467,-1.322,-1.2945,-1.2636,-1.2318,-1.2305,-1.2305,-1.2305,-1.2305,-1.2305,-1.2305,-1.2305,-1.2305,-1.2305,0.0,0.0,0.0,0.0,0.0,0.0,0.0,0.0,0.0,0.0,0.0,0.0,0.0,0.0,0.0,0.0,0.0,0.0,0.0,0.0,0.0,0.0,0.0,0.0,0.0,0.0,0.0,0.0,0.0,0.0,0.0,0.0,0.0,-1.2305,-1.2305,-1.2305,-1.2305,-1.2305,-1.2305,-1.2305,-1.2305,-1.2305,-1.2305,-1.2311,-1.2445,-1.277,-1.2797,-1.2945,-1.3213,-1.3227,-1.3227,-1.324,-1.324,-1.334,-1.362,-1.362,-1.3808,-1.4088,-1.4088,-1.4088,-1.4088,-1.4088,-1.4088,-1.4088,-1.4088,-1.4088,-1.4035,-1.346,-1.324,-1.324,-1.324,-1.324,-1.328,0.0,0.0,0.0,0.0,0.0,0.0,0.0,0.0,0.0,0.0,-1.3432,-1.4008,-1.3746,-1.3955,-1.4088,-1.4088,-1.4088,-1.4088,-1.4088,0.0,0.0,0.0,0.0,0.0,-1.4088,-1.4088,-1.4088,-1.4088,-1.4008,-1.3814,-1.3473,-1.322,-1.2958,-1.265,-1.2398,-1.2305,-1.2305,-1.2305,-1.2305,-1.2305,-1.2305,-1.2305,-1.2305,0.0,0.0,0.0,0.0,0.0,0.0,0.0,0.0,0.0,0.0,0.0,0.0,0.0,0.0,0.0,0.0,0.0,0.0,0.0,0.0,0.0,0.0,0.0,0.0,0.0,0.0,0.0,0.0,0.0,0.0,0.0,-1.2305,-1.2305,-1.2305,-1.2305,-1.2305,-1.2305,-1.2305,-1.2305,-1.2305,-1.2305,-1.2305,-1.2305,-1.2543,-1.2697,-1.2784,-1.2998,-1.322,-1.3473,-1.3487,-1.3627,-1.3841,-1.3848,-1.3888,-1.3968,-1.3968,-1.4008,-1.4088,-1.4088,-1.4088,-1.4088,-1.4088,-1.4088,-1.4088,-1.4088,-1.4088,-1.4075,-1.3908,-1.3848,-1.3848,-1.3848,-1.3848,-1.3854,0.0,0.0,0.0,0.0,0.0,0.0,0.0,0.0,0.0,0.0,-1.3361,-1.3788,-1.3453,-1.3614,-1.3721,-1.3721,-1.3828,-1.3901,-1.3901,0.0,0.0,0.0,0.0,-1.4088,-1.4088,-1.4088,-1.4088,-1.4088,-1.4088,-1.3935,-1.36,-1.3427,-1.3227,-1.2965,-1.2663,-1.2522,-1.2516,-1.2351,-1.2305,-1.2305,-1.2305,-1.2305,-1.2305,-1.2305,-1.2305,-1.2305,-1.2305,-1.2305,-1.2305,-1.2305,0.0,0.0,0.0,0.0,0.0,0.0,0.0,0.0,0.0,0.0,0.0,0.0,0.0,0.0,0.0,0.0,0.0,0.0,0.0,0.0,0.0,0.0,0.0,0.0,-1.2305,-1.2305,-1.2305,-1.2305,-1.2305,-1.2305,-1.2305,-1.2305,-1.2305,-1.2412,-1.2522,-1.2522,-1.2804,-1.3032,-1.3113,-1.3293,-1.3487,-1.378,-1.3828,-1.3915,-1.4088,-1.4088,-1.4088,-1.4088,-1.4088,-1.4088,-1.4088,-1.4088,-1.4088,-1.4088,-1.4088,-1.4088,-1.4088,-1.4088,-1.4088,-1.4088,0.0,0.0,0.0,0.0,-1.4088,-1.4088,0.0,0.0,0.0,0.0,0.0,0.0,0.0,0.0,0.0,0.0,0.0,-1.3447,-1.3186,-1.3186,-1.3213,-1.3213,-1.344,-1.36,0.0,0.0,0.0,-1.4035,-1.4068,-1.4088,-1.4088,-1.4088,-1.4088,-1.4088,-1.4088,-1.3948,-1.3653,-1.362,-1.3467,-1.3247,-1.2971,-1.2817,-1.2764,-1.2465,-1.2331,-1.2305,-1.2305,-1.2305,-1.2305,-1.2305,-1.2305,-1.2305,-1.2305,-1.2305,-1.2305,-1.2305,0.0,0.0,0.0,0.0,0.0,0.0,0.0,0.0,0.0,0.0,0.0,0.0,0.0,0.0,0.0,0.0,0.0,0.0,0.0,0.0,0.0,0.0,0.0,0.0,-1.2305,-1.2311,-1.2345,-1.2351,-1.2351,-1.2351,-1.2351,-1.2365,-1.2398,-1.2683,-1.2837,-1.2837,-1.3086,-1.3333,-1.3586,-1.3633,0.0,0.0,0.0,-1.4088,-1.4088,-1.4122,-1.4135,-1.4135,-1.4168,-1.4188,-1.4188,-1.4188,-1.4188,-1.4188,-1.4188,-1.4188,-1.4188,-1.4188,-1.4188,-1.4175,-1.4115,-1.4088,-1.4088,-1.4088,-1.4088,-1.4088,0.0,0.0,0.0,0.0,0.0,0.0,0.0,0.0,0.0,-1.1512,-1.2528,-1.318,-1.2911,-1.306,-1.3213,-1.3213,-1.344,-1.36,0.0,0.0,-1.3686,-1.3686,-1.3961,-1.4088,-1.4088,-1.4088,-1.4088,-1.4088,-1.4088,-1.4055,-1.3995,-1.3713,-1.3573,-1.3507,-1.3253,-1.2979,-1.2784,-1.2723,-1.2556,-1.2305,-1.2305,-1.2305,-1.2305,-1.2305,-1.2305,-1.2305,-1.2305,-1.2305,-1.2305,-1.2305,-1.2305,-1.2305,-1.2305,0.0,0.0,0.0,0.0,0.0,0.0,0.0,0.0,0.0,0.0,0.0,0.0,0.0,0.0,0.0,0.0,0.0,0.0,0.0,0.0,-1.2305,-1.2305,-1.2385,-1.2663,-1.2697,-1.2697,-1.2697,-1.2697,-1.2797,-1.3013,-1.3086,-1.312,-1.312,-1.3353,-1.3547,-1.36,-1.3874,-1.4028,-1.4088,-1.4088,-1.4088,-1.4088,-1.4315,-1.4436,-1.4442,-1.4683,0.0,-1.4841,-1.4841,-1.4841,-1.4841,-1.4841,-1.4841,-1.4841,-1.4841,-1.4841,-1.4794,-1.4275,-1.4088,-1.4088,-1.4088,-1.4088,-1.4088,0.0,0.0,0.0,0.0,0.0,0.0,0.0,0.0,0.0,0.0,-1.2525,-1.2859,-1.2596,-1.2665,-1.2759,-1.2759,-1.3026,0.0,0.0,-1.3387,-1.3387,-1.3387,-1.3567,-1.3714,-1.3861,-1.3868,-1.3941,-1.4088,-1.4088,-1.4088,-1.4082,-1.3935,-1.3868,-1.3854,-1.352,-1.334,-1.3173,-1.2911,-1.2697,-1.2549,-1.2365,-1.2305,-1.2305,-1.2305,-1.2305,-1.2305,-1.2305,-1.2305,-1.2305,-1.2305,-1.2305,-1.2224,-1.1694,-1.1545,-1.1242,0.0,0.0,0.0,0.0,0.0,0.0,0.0,0.0,0.0,0.0,0.0,0.0,0.0,0.0,-1.2305,-1.2305,0.0,-1.2305,-1.2305,-1.2425,-1.2616,-1.2764,-1.2918,-1.3018,-1.3018,-1.3018,-1.3039,-1.32,-1.33,-1.3387,-1.3387,-1.366,-1.3868,-1.3868,-1.4008,-1.4155,-1.4302,-1.4302,-1.4376,-1.4566,-1.4669,-1.4743,-1.4743,-1.4941,-1.5008,-1.5008,-1.5008,-1.5008,-1.5008,-1.5008,-1.5008,-1.5008,-1.5008,-1.5008,-1.4981,-1.468,-1.4436,-1.4302,-1.4302,-1.4215,-1.4088,0.0,0.0,0.0,0.0,0.0,0.0,0.0,0.0,0.0,0.0,-1.2697,-1.2603,-1.2325,-1.2305,-1.2325,0.0,0.0,0.0,0.0,-1.312,-1.312,-1.312,-1.318,-1.332,-1.3513,-1.3573,-1.372,-1.4001,-1.4055,-1.4088,-1.4088,-1.4088,-1.4088,-1.4075,-1.3834,-1.3626,-1.3487,-1.3046,-1.2804,-1.2677,-1.2398,-1.2305,-1.2305,-1.2305,-1.2305,-1.2305,-1.2305,-1.2305,-1.2305,-1.2305,-1.2305,-1.215,-1.1354,-1.0975,-1.0447,-0.8613,-0.7936,0.0,0.0,0.0,0.0,0.0,0.0,0.0,0.0,-1.0496,-1.1316,-1.215,-1.2305,-1.2305,-1.2305,-1.2305,-1.2318,-1.2378,-1.263,-1.2824,-1.2945,-1.3133,-1.3313,-1.3373,-1.3333,-1.3313,-1.3373,-1.3553,-1.3686,-1.3686,-1.3948,-1.4115,-1.4168,-1.4168,-1.4302,-1.4596,-1.4603,-1.4723,-1.5008,-1.5068,-1.5095,-1.5095,-1.5149,-1.5182,-1.5182,-1.5182,-1.5182,-1.5182,-1.5182,-1.5182,-1.5182,-1.5182,-1.5182,-1.5182,-1.5182,-1.495,-1.4683,-1.4629,-1.4422,-1.4168,0.0,0.0,0.0,0.0,0.0,0.0,0.0,0.0,0.0,0.0,0.0,0.0,0.0,0.0,0.0,0.0,0.0,0.0,-1.2817,-1.2837,-1.2837,-1.2837,-1.3066,-1.3227,-1.326,-1.3467,-1.362,-1.3653,-1.3955,-1.4088,-1.4088,-1.4088,-1.4088,-1.4088,-1.4055,-1.3748,-1.3253,-1.3186,-1.2846,-1.2351,-1.2318,-1.2305,-1.2305,-1.2305,-1.2305,-1.2305,-1.2305,-1.2305,-1.2305,-1.2305,-1.2305,-1.2268,-1.215,-1.1502,-1.0596,-0.9448,-0.8504,-0.7595,-0.6567,-0.7022,-0.8008,-0.8917,-0.9895,-1.0864,0.0,-1.204,-1.215,-1.2268,-1.2305,-1.2305,-1.2305,-1.2305,-1.2385,-1.269,-1.2764,-1.2971,-1.3427,-1.3533,-1.3653,-1.3961,-1.3754,-1.366,-1.3961,-1.4015,-1.4041,-1.4041,-1.4068,-1.4202,-1.4456,-1.4476,-1.4609,-1.4948,-1.4961,-1.4975,-1.5008,-1.5217,-1.5351,-1.5351,-1.5611,-1.5732,-1.5732,-1.5732,-1.5732,-1.5732,-1.5732,-1.5732,-1.5732,-1.5732,-1.5732,-1.5732,-1.5732,-1.5551,-1.5264,-1.501,-1.473,-1.4476,0.0,0.0,0.0,0.0,0.0,0.0,0.0,0.0,0.0,0.0,0.0,0.0,0.0,0.0,0.0,0.0,0.0,0.0,-1.2516,-1.2522,-1.2522,-1.2522,-1.2612,-1.2759,-1.2971,-1.3099,-1.3206,-1.3353,-1.3514,-1.3574,-1.3574,-1.3574,-1.3574,-1.3574,-1.3574,-1.344,-1.32,-1.3019,-1.2831,-1.2583,-1.2371,-1.2305,-1.2305,-1.2305,-1.2305,-1.2305,-1.2305,-1.2305,0.0,0.0,-1.2305,-1.2114,-1.0913,-1.0271,-0.9631,-0.8008,-0.7249,-0.7099,-0.7859,-0.8351,-0.8917,-0.9933,-1.0484,-1.0901,-1.1316,-1.1428,-1.1583,-1.2187,-1.2305,-1.2305,-1.2305,-1.2305,-1.2398,-1.2737,-1.2938,-1.316,-1.3547,-1.3753,-1.3948,-1.4075,-1.3975,-1.3948,-1.4075,-1.4088,-1.4155,-1.4322,-1.4342,-1.4469,-1.4763,-1.4776,-1.4917,-1.5204,-1.5217,-1.5297,-1.5464,-1.5585,-1.5651,-1.5651,-1.5772,-1.5784,-1.5784,-1.5784,-1.5784,-1.5784,-1.5784,-1.5784,-1.5784,-1.5784,-1.5784,-1.5784,-1.5784,-1.5752,-1.5611,-1.5324,-1.503,-1.4776,0.0,0.0,0.0,0.0,0.0,0.0,0.0,0.0,0.0,0.0,0.0,0.0,0.0,0.0,0.0,0.0,0.0,0.0,0.0,-1.2305,-1.2305,-1.2305,-1.2305,-1.2405,-1.2656,-1.2744,-1.2898,-1.308,-1.3166,-1.3213,-1.3213,-1.3213,-1.3213,-1.3213,-1.3213,-1.3166,-1.3066,-1.2878,-1.2737,-1.2643,-1.2385,-1.2305,-1.2305,-1.2305,-1.2305,-1.2305,-1.2305,-1.2305,0.0,0.0,-1.2114,-1.162,-1.0158,-0.9334,-0.8618,-0.7138,-0.6528,-0.6679,-0.8428,-0.9074,-0.9485,-1.019,-1.0596,-1.0783,-1.0783,-1.0783,-1.1087,-1.2077,-1.2305,-1.2305,-1.2305,-1.2371,-1.2525,-1.2864,-1.3133,-1.3393,-1.3686,-1.3948,-1.4088,-1.4088,-1.4162,-1.4208,-1.4208,-1.4208,-1.4295,-1.4502,-1.4596,-1.477,-1.507,-1.5129,-1.5217,-1.5504,-1.5518,-1.5618,-1.5778,-1.5784,-1.5784,-1.5784,-1.5784,-1.5784,-1.5784,-1.5784,-1.5784,-1.5784,-1.5784,-1.5784,-1.5784,-1.5784,-1.5784,-1.5784,-1.5784,-1.5784,-1.5758,-1.5591,-1.5331,-1.5129,0.0,0.0,0.0,0.0,0.0,0.0,0.0,0.0,0.0,0.0,0.0,0.0,0.0,0.0,0.0,0.0,0.0,0.0,0.0,-1.2305,-1.2305,-1.2305,-1.2305,-1.2305,-1.2318,-1.2636,-1.279,-1.2797,-1.3066,-1.3213,-1.3213,-1.3213,-1.3213,-1.3213,-1.3213,-1.3046,-1.2797,-1.279,-1.2616,-1.2311,-1.2305,-1.2305,-1.2305,-1.2305,-1.2305,-1.2305,-1.2305,0.0,0.0,0.0,-1.1657,-1.082,-1.0783,-0.9399,0.0,-0.7783,-0.7061,-0.6528,-0.7553,-0.8542,-0.9296,-0.9334,-1.0078,-1.0783,-1.0783,-1.0783,-1.1087,-1.2077,-1.2305,-1.2305,-1.2305,-1.2576,-1.2871,-1.3146,-1.34,-1.3693,-1.4035,-1.4082,-1.4088,-1.4088,-1.4335,-1.4502,-1.4502,-1.4502,-1.4509,-1.4522,-1.4783,-1.5122,-1.5364,-1.5384,-1.5518,-1.5758,-1.5764,-1.5771,-1.5784,-1.5784,-1.5784,-1.5784,-1.5784,-1.5784,-1.5784,-1.5784,-1.5784,-1.5784,-1.5784,-1.5784,-1.5784,-1.5784,-1.5784,-1.5784,-1.5784,-1.5784,-1.5784,-1.5771,-1.5631,-1.5384,0.0,0.0,0.0,0.0,0.0,0.0,0.0,0.0,0.0,0.0,0.0,0.0,0.0,0.0,0.0,0.0,0.0,0.0,0.0,-1.2305,-1.2305,-1.2305,-1.2305,-1.2305,-1.2305,-1.2405,-1.2489,-1.2489,-1.2559,-1.2605,-1.2605,-1.2605,-1.2605,-1.2605,-1.2605,-1.2552,-1.2489,-1.2489,-1.2392,-1.2305,-1.2305,-1.2305,-1.2305,-1.2305,-1.2305,-1.2224,0.0,0.0,0.0,0.0,0.0,0.0,-0.9026,0.0,0.0,-0.6984,-0.7022,-0.7518,-0.8504,-0.9031,-0.9448,-1.0115,-0.955,-0.9173,-1.0484,-1.0265,-1.0271,-1.1966,-1.2305,-1.2305,-1.2305,-1.2583,-1.2891,-1.316,-1.3413,-1.3706,-1.4048,-1.4088,-1.4162,-1.4349,-1.4462,-1.4596,-1.4796,-1.4816,-1.4897,-1.5084,-1.519,-1.5378,-1.5665,-1.5685,-1.5732,-1.5778,-1.5784,-1.5784,-1.5784,-1.5784,-1.5784,-1.5784,-1.5784,-1.5784,-1.5784,-1.5784,-1.5784,-1.5784,-1.5784,-1.5784,-1.5784,-1.5784,-1.5784,-1.5784,-1.5784,-1.5784,-1.5784,-1.5784,-1.5718,-1.5685,0.0,0.0,0.0,0.0,0.0,0.0,0.0,0.0,0.0,0.0,0.0,0.0,0.0,0.0,0.0,0.0,0.0,-1.2305,0.0,0.0,-1.2305,-1.2305,-1.2305,-1.2305,-1.2305,-1.2305,-1.2305,-1.2305,-1.2305,-1.2305,-1.2305,-1.2305,-1.2305,-1.2305,-1.2305,-1.2305,-1.2305,-1.2305,-1.2305,-1.2305,-1.2305,-1.2305,-1.2305,-1.2305,-1.2305,0.0,0.0,0.0,0.0,0.0,0.0,0.0,0.0,0.0,-0.7215,-0.6907,-0.7292,-0.8008,-0.9031,-0.9296,-0.9372,-0.9664,-0.8761,-0.8232,-0.989,-0.9744,-0.9863,-1.1885,-1.2305,-1.2305,-1.2305,-1.2632,-1.3018,-1.318,-1.3547,-1.3868,-1.4062,-1.4175,-1.4309,-1.4496,-1.4703,-1.491,-1.5097,-1.5211,-1.5304,-1.5391,-1.5491,-1.5631,-1.5771,-1.5784,-1.5784,-1.5784,-1.5784,-1.5784,-1.5784,-1.5784,-1.5784,-1.5784,-1.5784,-1.5784,-1.5784,-1.5784,-1.5784,-1.5784,-1.5784,-1.5784,-1.5784,-1.5784,-1.5784,-1.5784,-1.5784,-1.5784,-1.5784,-1.5784,-1.5784,-1.5784,0.0,0.0,0.0,0.0,0.0,0.0,0.0,0.0,0.0,0.0,0.0,0.0,0.0,0.0,0.0,0.0,0.0,0.0,0.0,0.0,0.0,-1.2305,-1.2305,-1.2305,-1.2305,-1.2305,-1.2305,-1.2305,-1.2305,-1.2305,-1.2305,-1.2305,-1.2305,-1.2305,-1.2305,-1.2305,-1.2305,-1.2305,-1.2305,-1.2305,-1.2305,-1.2305,-1.2305,-1.2305,0.0,0.0,0.0,0.0,0.0,0.0,-0.9258,-0.9069,-0.8161,-0.7211,-0.6644,-0.7591,-0.7897,-0.8161,-0.9069,-0.9296,-0.9069,-0.8046,-0.7744,-0.8012,-0.9069,-0.9296,-0.9863,-1.1885,-1.2305,-1.2305,-1.2305,-1.2799,-1.3213,-1.3213,-1.3707,-1.4088,-1.4088,-1.4335,-1.4529,-1.4543,-1.505,-1.5404,-1.5418,-1.5665,-1.5712,-1.5438,-1.5671,-1.5784,-1.5784,-1.5784,-1.5784,-1.5784,-1.5784,-1.5784,-1.5784,-1.5784,-1.5784,-1.5784,-1.5784,-1.5784,-1.5784,-1.5784,-1.5784,-1.5784,-1.5784,-1.5784,-1.5784,-1.5784,-1.5784,-1.5784,-1.5784,-1.5784,-1.5832,-1.5872,-1.592,-1.592,0.0,0.0,0.0,0.0,0.0,0.0,0.0,0.0,0.0,0.0,0.0,0.0,0.0,0.0,0.0,0.0,0.0,0.0,0.0,0.0,0.0,0.0,0.0,0.0,0.0,0.0,0.0,0.0,0.0,-1.2305,-1.2305,-1.2305,-1.2305,-1.2305,-1.2305,-1.2305,-1.2305,-1.2305,-1.2305,-1.2305,0.0,-1.2305,-1.2305,0.0,0.0,0.0,0.0,0.0,0.0,-0.9561,-0.8803,-0.8275,-0.8765,-0.8732,-0.858,-0.8841,-0.9442,-0.9927,-0.9448,-0.9296,-0.9069,-0.8046,-0.7249,-0.7138,-0.8884,-0.9296,-0.9863,-1.1885,-1.2305,-1.2305,-1.2305,-1.2799,-1.3213,-1.3213,-1.3707,-1.4088,-1.4088,-1.4335,-1.4603,-1.4823,-1.5177,-1.5484,-1.5698,-1.5738,-1.5751,-1.5678,-1.5738,-1.5784,-1.5784,-1.5784,-1.5784,-1.5784,-1.5784,-1.5784,-1.5784,-1.5784,-1.5784,-1.5784,-1.5784,-1.5784,-1.5784,-1.5784,-1.5784,-1.5784,-1.5784,-1.5784,-1.5784,-1.5784,-1.5784,-1.5784,-1.5784,-1.5784,-1.592,-1.685,-1.7225,-1.7358,0.0,0.0,0.0,0.0,0.0,0.0,0.0,0.0,0.0,0.0,0.0,0.0,0.0,0.0,0.0,0.0,0.0,0.0,0.0,0.0,0.0,0.0,0.0,0.0,0.0,0.0,0.0,0.0,0.0,0.0,0.0,-1.2238,-1.2305,-1.2305,-1.2305,-1.2305,-1.2305,0.0,0.0,0.0,0.0,0.0,0.0,0.0,0.0,0.0,0.0,0.0,0.0,-0.9798,-0.8985,-0.8323,-0.8916,-0.9065,-0.9177,-0.9628,-1.0256,-1.0671,-1.0115,-0.997,-0.9631,-0.8161,-0.7706,-0.7783,-0.8504,-0.9329,-1.0265,-1.1397,-1.1996,-1.2305,-1.2305,-1.2692,-1.3053,-1.3186,-1.3594,-1.3941,-1.4068,-1.4449,-1.4776,-1.4988,-1.5331,-1.5651,-1.5764,-1.5784,-1.5784,-1.5784,-1.5784,-1.5784,-1.5784,-1.5784,-1.5784,-1.5784,-1.5784,-1.5784,-1.5784,-1.5784,-1.5784,-1.5784,-1.5784,-1.5784,-1.5784,-1.5784,-1.5784,-1.5784,-1.5784,-1.5784,-1.5784,-1.5784,-1.6109,-1.6574,-1.6015,-1.6473,-1.7436,-1.7638,-1.8048,-1.8596,0.0,0.0,0.0,0.0,0.0,0.0,0.0,0.0,0.0,0.0,0.0,0.0,0.0,0.0,0.0,0.0,0.0,0.0,0.0,0.0,0.0,0.0,0.0,0.0,0.0,0.0,0.0,0.0,0.0,0.0,0.0,0.0,0.0,0.0,0.0,0.0,0.0,0.0,0.0,0.0,0.0,0.0,0.0,0.0,0.0,0.0,0.0,0.0,0.0,-1.0055,-0.9485,-0.8969,-0.9114,-0.9171,-0.9378,-1.0329,-1.0772,-1.0969,-1.082,-1.0783,-1.0335,-0.8461,-0.8656,-0.9107,-0.8351,-0.955,-1.082,-1.0969,-1.1694,-1.2305,-1.2305,-1.2583,-1.2891,-1.316,-1.3413,-1.3706,-1.4048,-1.464,-1.5008,-1.5008,-1.5478,-1.5784,-1.5784,-1.5784,-1.5784,-1.5784,-1.5784,-1.5784,-1.5784,-1.5784,-1.5784,-1.5784,-1.5784,-1.5784,-1.5784,-1.5784,-1.5784,-1.5784,-1.5784,-1.5784,-1.5784,-1.5784,-1.5784,-1.5784,-1.5784,-1.5784,-1.5825,-1.5967,-1.6716,-1.7598,-1.6662,-1.7615,-1.9405,-1.8503,-1.8818,-1.9761,0.0,0.0,0.0,0.0,0.0,0.0,0.0,0.0,0.0,0.0,0.0,0.0,0.0,0.0,0.0,0.0,0.0,0.0,0.0,0.0,0.0,0.0,0.0,0.0,0.0,0.0,0.0,-1.2225,-1.2278,0.0,0.0,0.0,0.0,0.0,0.0,0.0,0.0,0.0,0.0,0.0,0.0,0.0,0.0,0.0,0.0,0.0,0.0,0.0,0.0,0.0,-0.98,-0.9869,-1.0688,-1.1131,-1.1394,-1.1572,-1.1811,-1.1848,-1.1013,-1.0783,-1.0522,-0.9329,-0.9183,-0.9485,-1.0115,-1.0559,-1.105,-1.1885,-1.2187,-1.2305,-1.2305,-1.2583,-1.2891,-1.316,-1.3413,-1.3706,-1.4048,-1.464,-1.5008,-1.5008,-1.5478,-1.5784,-1.5784,-1.5784,-1.5784,-1.5784,-1.5784,-1.5784,-1.5784,-1.5784,-1.5784,-1.5784,-1.5784,-1.5784,-1.5784,-1.5784,-1.5784,-1.5784,-1.5784,-1.5784,-1.5784,-1.5784,-1.5784,-1.5784,-1.5784,-1.5784,-1.5879,-1.6943,-1.7505,-1.7777,-1.8542,-1.9123,-1.9579,-2.0395,-2.08,-2.1114,0.0,0.0,0.0,0.0,0.0,0.0,0.0,0.0,0.0,0.0,0.0,0.0,0.0,0.0,0.0,0.0,0.0,0.0,0.0,0.0,0.0,0.0,0.0,0.0,0.0,-1.1844,-1.177,-1.1623,0.0,-1.177,-1.1623,-1.1777,-1.1844,-1.1844,-1.1844,0.0,0.0,0.0,0.0,0.0,0.0,0.0,0.0,0.0,0.0,0.0,0.0,0.0,0.0,0.0,-1.0263,-1.0354,-1.1015,-1.1403,-1.1637,-1.1637,-1.1951,-1.2187,-1.1694,-1.1583,-1.1354,-1.034,-1.0458,-1.072,-1.0158,-1.0832,-1.1576,-1.1545,-1.1922,-1.2305,-1.2305,-1.2418,-1.2665,-1.3133,-1.3327,-1.3574,-1.4021,-1.464,-1.5008,-1.5008,-1.5478,-1.5784,-1.5784,-1.5784,-1.5784,-1.5784,-1.5784,-1.5784,-1.5784,-1.5784,-1.5784,-1.5784,-1.5784,-1.5784,-1.5784,-1.5784,-1.5784,-1.5784,-1.5784,-1.5784,-1.5784,-1.5784,-1.5784,-1.5825,-1.648,-1.6803,-1.6897,-1.8133,-1.9001,-1.9588,-1.9542,-2.0268,-2.1355,-2.1346,-2.1702,-2.2306,0.0,0.0,0.0,0.0,0.0,0.0,0.0,0.0,0.0,0.0,0.0,0.0,0.0,0.0,0.0,0.0,0.0,0.0,0.0,0.0,0.0,0.0,0.0,0.0,0.0,0.0,0.0,-1.1089,-1.1316,0.0,0.0,0.0,0.0,0.0,-1.1389,-1.1389,-1.1389,0.0,0.0,0.0,0.0,-1.1243,0.0,0.0,0.0,0.0,0.0,0.0,-1.0868,-1.0667,-1.0593,-1.0601,-1.0627,-1.0962,-1.1275,-1.1163,-1.1655,-1.2225,-1.2285,-1.2305,-1.2114,-1.1316,-1.1731,-1.1885,-1.0314,-1.1174,-1.2077,-1.1279,-1.1731,-1.2305,-1.2305,-1.2305,-1.2478,-1.3026,-1.3166,-1.3394,-1.3921,-1.4496,-1.4941,-1.5001,-1.5424,-1.5758,-1.5771,-1.5784,-1.5784,-1.5784,-1.5784,-1.5784,-1.5784,-1.5784,-1.5784,-1.5784,-1.5784,-1.5784,-1.5784,-1.5784,-1.5784,-1.5784,-1.6062,-1.6204,-1.6197,-1.6473,-1.6608,-1.6655,-1.763,-1.8095,-1.8187,-1.9405,-2.044,-2.1248,-2.0539,-2.1454,-2.3003,-2.2031,-2.2306,-2.3091,0.0,0.0,0.0,0.0,0.0,0.0,0.0,0.0,0.0,0.0,0.0,0.0,0.0,0.0,0.0,0.0,0.0,0.0,0.0,0.0,0.0,0.0,0.0,0.0,0.0,0.0,0.0,-1.1349,-1.1375,0.0,0.0,0.0,0.0,0.0,0.0,-1.1389,-1.1375,-1.1142,0.0,0.0,0.0,0.0,0.0,0.0,0.0,0.0,0.0,-1.0633,-1.0626,-1.06,-1.0593,-1.0466,-0.9688,-1.0172,-1.0916,-1.038,-1.1013,-1.2,-1.2231,-1.2305,-1.2268,-1.2187,-1.2224,-1.2261,-1.2077,-1.215,-1.2268,-1.2187,-1.2224,-1.2305,-1.2305,-1.2305,-1.2412,-1.2777,-1.3026,-1.328,-1.36,-1.4153,-1.4663,-1.4975,-1.5244,-1.5538,-1.5758,-1.5784,-1.5784,-1.5784,-1.5784,-1.5784,-1.5784,-1.5784,-1.5784,-1.5784,-1.5784,-1.5784,-1.5784,-1.5784,-1.5784,-1.5825,-1.699,-1.7552,-1.7544,-1.868,-1.9177,-1.9169,-1.926,-1.9314,-1.9451,-2.0621,-2.1203,-2.1391,-2.2403,-2.2906,-2.3101,-2.296,-2.3003,-2.3091,0.0,0.0,0.0,0.0,0.0,0.0,0.0,0.0,0.0,0.0,0.0,0.0,0.0,0.0,0.0,0.0,0.0,0.0,0.0,0.0,0.0,0.0,0.0,0.0,0.0,0.0,-1.0909,-1.0909,-1.0909,0.0,0.0,0.0,0.0,0.0,0.0,-1.0909,-1.0895,-1.0814,0.0,0.0,0.0,0.0,0.0,0.0,0.0,0.0,0.0,0.0,-1.0593,-1.0593,-1.0593,-1.0364,-0.8973,-0.9203,-0.997,-0.99,-0.9944,-1.0337,-1.1706,-1.1676,-1.146,-1.2148,-1.2305,-1.2305,-1.2305,-1.2171,-1.2091,-1.2265,-1.2164,-1.2098,-1.2271,-1.2305,-1.2398,-1.2737,-1.3045,-1.3273,-1.356,-1.4106,-1.4629,-1.4975,-1.5217,-1.5511,-1.5751,-1.5784,-1.5784,-1.5784,-1.5784,-1.5784,-1.5784,-1.5784,-1.5784,-1.5784,-1.5784,-1.5784,-1.5784,-1.6574,-1.6943,-1.6943,-1.818,-1.8772,-1.8818,-1.9268,-1.9497,-1.9542,-2.026,-2.0576,-2.0666,-2.1898,-2.2403,-2.2448,-2.2906,-2.3091,-2.3091,-2.3091,-2.3091,-2.3091,0.0,0.0,0.0,0.0,0.0,0.0,0.0,0.0,0.0,0.0,0.0,0.0,0.0,0.0,0.0,0.0,0.0,0.0,0.0,0.0,0.0,0.0,0.0,0.0,0.0,0.0,0.0,-1.0593,-1.0593,-1.0593,0.0,0.0,-1.0593,-1.0593,0.0,0.0,0.0,0.0,0.0,0.0,0.0,0.0,0.0,0.0,0.0,0.0,0.0,0.0,0.0,0.0,0.0,-1.0333,-0.8839,0.0,0.0,-0.8942,-0.8811,-0.909,-1.0872,-1.0912,-1.0712,-1.1775,-1.2044,-1.2044,-1.2044,-1.1884,-1.1797,-1.1997,-1.1951,-1.1966,-1.2138,-1.2245,-1.2371,0.0,-1.2953,-1.328,-1.3447,-1.4021,-1.4536,-1.4961,-1.5189,-1.5418,-1.5792,-1.5784,-1.5967,-1.6339,-1.6339,-1.6527,-1.6889,-1.6882,-1.6749,-1.6386,-1.6339,-1.652,-1.6882,-1.7762,-1.8226,-1.8234,-1.9451,-2.0034,-2.0042,-2.0404,-2.0539,-2.0629,-2.1445,-2.1845,-2.1889,-2.2775,-2.3091,-2.3091,-2.3091,-2.3091,-2.3091,-2.3091,-2.3091,-2.3091,0.0,0.0,0.0,0.0,0.0,0.0,0.0,0.0,0.0,0.0,0.0,0.0,0.0,0.0,0.0,0.0,0.0,0.0,0.0,0.0,0.0,0.0,0.0,0.0,0.0,0.0,0.0,0.0,0.0,-1.0593,-1.0593,-1.0593,-1.0593,-1.0593,0.0,0.0,0.0,0.0,0.0,0.0,0.0,0.0,0.0,0.0,0.0,0.0,0.0,0.0,0.0,0.0,0.0,0.0,0.0,0.0,0.0,0.0,-0.772,-0.8646,-0.9788,-1.0107,-1.0315,-1.1189,-1.1395,-1.1395,-1.1395,-1.1395,-1.1395,-1.1395,-1.1663,-1.1906,-1.1906,-1.2104,-1.2305,-1.2305,-1.2812,-1.3213,-1.3213,-1.3721,-1.4309,-1.4941,-1.5015,-1.5197,-1.5772,-1.5784,-1.6339,-1.7598,-1.7692,-1.8187,-1.9405,-1.9451,-1.891,-1.7738,-1.7692,-1.8226,-1.9443,-1.9488,-1.9497,-1.9497,-2.0711,-2.1257,-2.1338,-2.2511,-2.3047,-2.3047,-2.3091,-2.3091,-2.3091,-2.3091,-2.3091,-2.3091,-2.3091,-2.3091,-2.3091,-2.3091,-2.3091,-2.3091,0.0,0.0,0.0,0.0,0.0,0.0,0.0,0.0,0.0,0.0,0.0,0.0,0.0,0.0,0.0,0.0,0.0,0.0,0.0,0.0,0.0,0.0,0.0,0.0,0.0,0.0,0.0,0.0,0.0,0.0,0.0,-1.0593,-1.0593,-1.0593,-1.0593,-1.0593,0.0,0.0,0.0,0.0,0.0,0.0,0.0,0.0,0.0,0.0,0.0,0.0,0.0,0.0,0.0,0.0,0.0,0.0,0.0,0.0,0.0,-0.686,-0.9192,-0.9389,-0.9321,-1.0987,-1.1389,-1.1389,-1.1389,-1.1269,-1.1189,-1.1349,-1.1462,-1.163,-1.1866,-1.2104,-1.2305,-1.2305,-1.2812,-1.3213,-1.3213,-1.3721,-1.4631,-1.6045,-1.7303,-1.7804,-1.7156,-1.7855,-1.8126,-1.7731,-1.8457,-1.9085,-1.9497,-1.9497,-1.9314,-1.8956,-1.8948,-1.9131,-1.9497,-2.0305,-2.0747,-2.0755,-2.1943,-2.2545,-2.2555,-2.2916,-2.3091,-2.3091,-2.3091,-2.3091,-2.3091,-2.3091,-2.3091,-2.3091,-2.3091,-2.3091,-2.3091,-2.3091,-2.3091,-2.3091,0.0,0.0,0.0,0.0,0.0,0.0,0.0,0.0,0.0,0.0,0.0,0.0,0.0,0.0,0.0,0.0,0.0,0.0,0.0,0.0,0.0,0.0,0.0,0.0,0.0,0.0,0.0,0.0,0.0,0.0,0.0,0.0,0.0,-1.0593,-1.0593,-1.0593,0.0,0.0,0.0,0.0,0.0,0.0,-1.0593,0.0,0.0,0.0,0.0,0.0,0.0,0.0,0.0,0.0,0.0,0.0,0.0,0.0,0.0,-0.6786,-0.8563,-0.8667,-0.8699,-1.0611,-1.1096,-1.1096,-1.1096,-1.0962,-1.0914,-1.1062,-1.1276,-1.1449,-1.1663,-1.2031,-1.2305,-1.2305,-1.2812,-1.3213,-1.3213,-1.407,-1.5375,-1.7203,-1.8483,-1.9031,-1.8442,-1.9039,-1.936,-1.9085,-1.9761,-2.0395,-2.0809,-2.0863,-2.0863,-2.0863,-2.044,-2.0395,-2.0854,-2.1578,-2.1987,-2.1987,-2.2721,-2.3091,-2.3091,-2.3091,-2.3091,-2.3091,-2.3091,-2.3091,0.0,-2.3091,-2.3091,-2.3091,-2.3091,-2.3091,-2.3091,-2.3091,-2.3091,-2.3091,0.0,0.0,0.0,0.0,0.0,0.0,0.0,0.0,0.0,0.0,0.0,0.0,0.0,0.0,0.0,0.0,0.0,0.0,0.0,0.0,0.0,0.0,0.0,0.0,0.0,0.0,0.0,0.0,-1.0593,-1.0593,0.0,0.0,0.0,0.0,0.0,0.0,0.0,0.0,0.0,0.0,0.0,0.0,0.0,0.0,0.0,0.0,0.0,0.0,0.0,0.0,0.0,0.0,0.0,0.0,0.0,0.0,0.0,0.0,0.0,-0.8059,-0.8479,-1.0168,-1.0593,-1.0593,-1.0593,-1.0593,0.0,-1.0593,-1.1022,-1.1389,-1.1389,-1.1904,-1.2305,-1.2305,-1.2812,-1.3213,-1.3213,-1.4777,-1.6575,-1.8333,-1.8885,-1.9251,-1.96,-1.9724,-2.0169,-2.1203,-2.1382,-2.1943,-2.3047,-2.3091,-2.3091,-2.3091,-2.2031,-2.1987,-2.3091,-2.3091,-2.3091,-2.3091,-2.3091,-2.3091,-2.3091,-2.3091,-2.3091,-2.3091,-2.3091,-2.3091,-2.3091,-2.3091,-2.3091,-2.3091,-2.3091,-2.3091,-2.3091,-2.3091,-2.3091,-2.3091,0.0,0.0,0.0,0.0,0.0,0.0,0.0,0.0,0.0,0.0,0.0,0.0,0.0,0.0,0.0,0.0,0.0,0.0,0.0,0.0,0.0,0.0,0.0,0.0,0.0,0.0,0.0,-1.0593,-1.0593,-1.0593,-1.0593,-1.0593,0.0,0.0,0.0,0.0,0.0,0.0,0.0,0.0,0.0,0.0,0.0,0.0,0.0,0.0,-1.0593,-1.0593,0.0,0.0,0.0,0.0,0.0,0.0,0.0,0.0,-0.8484,0.0,0.0,0.0,-0.9268,-1.0333,-1.0593,-1.0593,0.0,-1.0593,-1.0593,-1.0593,-1.1022,-1.1389,-1.1389,-1.1904,-1.2305,-1.2305,-1.2812,-1.3213,-1.3213,-1.5933,-1.8387,-1.9629,-2.1142,-2.1752,-2.0971,-2.1721,-2.1987,-2.1337,-2.2173,-2.2818,-2.3091,-2.3091,-2.3091,-2.3091,-2.2818,-2.2818,-2.3091,-2.3091,-2.3091,-2.3091,-2.3091,-2.3091,-2.3091,-2.3091,-2.3091,-2.3091,-2.3091,-2.3091,-2.3091,-2.3091,-2.3091,-2.3091,-2.3091,-2.3091,-2.3091,-2.3091,-2.3091,-2.3091,0.0,0.0,0.0,0.0,0.0,0.0,0.0,0.0,0.0,0.0,0.0,0.0,0.0,0.0,0.0,0.0,0.0,0.0,0.0,0.0,0.0,0.0,0.0,0.0,0.0,0.0,0.0,0.0,0.0,-1.0593,0.0,0.0,0.0,0.0,0.0,0.0,0.0,0.0,0.0,0.0,-1.0593,0.0,0.0,0.0,0.0,0.0,-0.9849,-1.0009,0.0,-1.0009,-1.0269,-1.053,0.0,0.0,0.0,0.0,-0.9198,0.0,0.0,-0.8941,-0.9498,-1.0364,-1.0593,-1.0593,-1.0593,-1.0593,-1.0626,-1.076,-1.1116,-1.147,-1.1603,-1.2349,-1.2854,-1.2553,-1.3679,-1.4868,-1.5731,-1.7285,-1.8998,-2.0759,-2.2049,-2.265,-2.2155,-2.2721,-2.2818,-2.2173,-2.2721,-2.3091,-2.3091,-2.3091,-2.3091,-2.3091,-2.3091,-2.3091,-2.3091,-2.3091,-2.3091,-2.3091,-2.3091,-2.3091,-2.3091,-2.3091,-2.3091,-2.3091,-2.3091,-2.3091,-2.3091,-2.3091,-2.3091,-2.3091,-2.3091,-2.3091,-2.3091,-2.3091,-2.343,-2.38,0.0,0.0,0.0,0.0,0.0,0.0,0.0,0.0,0.0,0.0,0.0,0.0,0.0,0.0,0.0,0.0,0.0,0.0,0.0,0.0,0.0,0.0,0.0,0.0,0.0,0.0,0.0,0.0,0.0,0.0,0.0,0.0,0.0,0.0,0.0,0.0,0.0,0.0,0.0,0.0,-1.0593,0.0,0.0,0.0,0.0,0.0,0.0,0.0,0.0,-0.9107,-0.9684,-1.0269,-0.953,0.0,0.0,0.0,0.0,0.0,-0.9364,-0.93,-0.969,-1.0434,-1.0593,-1.0593,-1.0593,-1.0626,-1.0727,-1.0942,-1.1263,-1.1605,-1.2029,-1.2856,-1.3455,-1.3285,-1.4988,-1.6936,-1.873,-1.8611,-1.9219,-2.1629,-2.2314,-2.2744,-2.3062,-2.3091,-2.3091,-2.3091,-2.3091,-2.3091,-2.3091,-2.3091,-2.3091,-2.3091,-2.3091,-2.3091,-2.3091,-2.3091,-2.3091,-2.3091,-2.3091,-2.3091,-2.3091,-2.3091,-2.3091,-2.3091,-2.3091,-2.3091,-2.3091,-2.3091,-2.3091,-2.3091,-2.3091,-2.3091,-2.3135,-2.3299,-2.3963,-2.4702,0.0,0.0,0.0,0.0,0.0,0.0,0.0,0.0,0.0,0.0,0.0,0.0,0.0,0.0,0.0,0.0,0.0,0.0,0.0,0.0,0.0,0.0,0.0,0.0,0.0,0.0,0.0,0.0,0.0,0.0,-1.0593,-1.0593,-1.0593,0.0,0.0,0.0,0.0,0.0,0.0,0.0,-1.0593,0.0,0.0,0.0,0.0,0.0,0.0,0.0,0.0,-0.8188,-0.8775,-0.9466,-0.9338,0.0,0.0,0.0,0.0,0.0,-0.864,-0.9288,-1.0428,-1.0561,-1.0593,-1.0593,-1.0593,-1.0787,-1.0942,-1.0982,-1.1423,-1.2093,-1.2937,-1.2784,-1.3117,-1.5046,-1.6177,-1.731,-1.8775,-1.9488,-2.036,-2.1741,-2.2568,-2.3023,-2.3091,-2.3091,-2.3091,-2.3091,-2.3091,-2.3091,-2.3091,-2.3091,-2.3091,-2.3091,-2.3091,-2.3091,-2.3091,-2.3091,-2.3091,-2.3091,-2.3091,-2.3091,-2.3091,-2.3091,-2.3091,-2.3091,-2.3091,-2.3091,-2.3091,-2.3091,-2.3091,-2.3091,-2.3091,-2.3091,-2.3222,-2.4168,-2.467,-2.4914,0.0,0.0,0.0,0.0,0.0,0.0,0.0,0.0,0.0,0.0,0.0,0.0,0.0,0.0,0.0,0.0,0.0,0.0,0.0,0.0,0.0,0.0,0.0,0.0,0.0,0.0,0.0,0.0,0.0,-1.0593,-1.0593,-1.0593,-1.0593,-1.0593,0.0,0.0,0.0,0.0,0.0,0.0,0.0,0.0,0.0,0.0,0.0,0.0,0.0,0.0,0.0,0.0,-0.7864,-0.8581,-0.8581,0.0,0.0,0.0,0.0,0.0,-0.9614,-1.0002,-1.0593,-1.0593,-1.0593,-1.0593,-1.0593,-1.0814,-1.1035,-1.1196,-1.157,-1.2231,-1.3313,-1.3891,-1.5038,-1.7583,-1.751,-1.7775,-1.961,-2.0044,-2.0601,-2.1751,-2.2627,-2.3091,-2.3091,-2.3091,-2.3091,-2.3091,-2.3091,-2.3091,-2.3091,-2.3091,-2.3091,-2.3091,-2.3091,-2.3091,-2.3091,-2.3091,-2.3091,-2.3091,-2.3091,-2.3091,-2.3091,-2.3091,-2.3091,-2.3091,-2.3091,-2.3091,-2.3091,-2.3091,-2.3091,-2.3178,-2.38,-2.4006,-2.4211,-2.5942,-2.6202,-2.5964,0.0,0.0,0.0,0.0,0.0,0.0,0.0,0.0,0.0,0.0,0.0,0.0,0.0,0.0,0.0,0.0,0.0,0.0,0.0,0.0,0.0,0.0,0.0,0.0,0.0,0.0,0.0,-1.0593,-1.0593,-1.0593,-1.0593,-1.0593,-1.0593,0.0,0.0,0.0,0.0,0.0,0.0,0.0,0.0,0.0,0.0,0.0,0.0,0.0,0.0,0.0,0.0,0.0,0.0,0.0,0.0,0.0,0.0,0.0,-1.0269,-1.0561,-1.0333,-1.0428,-1.0593,-1.0593,-1.0593,-1.0613,-1.068,-1.1077,-1.151,-1.1806,-1.2277,-1.302,-1.4153,-1.5599,-1.7265,-1.925,-1.8725,-1.8669,-2.0362,-2.0592,-2.0903,-2.1792,-2.2627,-2.3091,-2.3091,-2.3091,-2.3091,-2.3091,-2.3091,-2.3091,-2.3091,-2.3091,-2.3091,-2.3091,-2.3091,-2.3091,-2.3091,-2.3091,-2.3091,-2.3091,-2.3091,-2.3091,-2.3091,-2.3091,-2.3091,-2.3091,-2.3091,-2.3091,-2.3091,-2.3091,-2.3266,-2.3594,-2.4457,-2.5115,-2.5775,-2.747,-2.7735,-2.7516,0.0,0.0,0.0,0.0,0.0,0.0,0.0,0.0,0.0,0.0,0.0,0.0,0.0,0.0,0.0,0.0,0.0,0.0,0.0,0.0,0.0,0.0,0.0,0.0,0.0,-1.0593,-1.0593,-1.0593,-1.0593,-1.0593,-1.0593,-1.0593,-1.0593,0.0,0.0,0.0,0.0,0.0,0.0,0.0,0.0,0.0,0.0,0.0,0.0,0.0,0.0,0.0,0.0,0.0,0.0,0.0,0.0,0.0,0.0,0.0,-0.932,-1.0428,-0.9626,-0.9983,-1.0593,-1.0593,-1.0593,-1.0667,-1.0902,-1.1916,-1.2833,-1.3128,-1.4112,-1.5271,-1.621,-1.7862,-1.8934,-1.8643,-1.9609,-2.0401,-2.0566,-2.1288,-2.1802,-2.1885,-2.2627,-2.3091,-2.3091,-2.3091,-2.3091,-2.3091,-2.3091,-2.3091,-2.3091,-2.3091,-2.3091,-2.3091,-2.3091,-2.3091,-2.3091,-2.3091,-2.3091,-2.3091,-2.3091,-2.3091,-2.3091,-2.3091,-2.3091,-2.3091,-2.3091,-2.3091,-2.3091,-2.3091,-2.3714,-2.4702,-2.4787,-2.6066,-2.7884,-2.8044,-2.8727,-2.9585,0.0,0.0,0.0,0.0,0.0,0.0,0.0,0.0,0.0,0.0,0.0,0.0,0.0,0.0,0.0,0.0,0.0,0.0,0.0,0.0,0.0,0.0,0.0,-1.0593,-1.0593,-1.0593,-1.0593,-1.0593,-1.0593,-1.0593,-1.0593,-1.0593,0.0,0.0,0.0,0.0,0.0,0.0,0.0,0.0,0.0,0.0,0.0,0.0,0.0,0.0,0.0,0.0,0.0,0.0,-0.7674,0.0,0.0,0.0,0.0,0.0,-1.0072,-1.053,-1.0206,-1.0333,-1.0593,-1.0593,-1.0727,-1.0894,-1.0969,-1.2094,-1.3179,-1.3272,-1.432,-1.566,-1.7153,-1.8636,-1.9702,-1.9774,-2.0256,-2.0605,-2.0605,-2.1368,-2.1885,-2.1885,-2.2627,-2.3091,-2.3091,-2.3091,-2.3091,-2.3091,-2.3091,-2.3091,-2.3091,-2.3091,-2.3091,-2.3091,-2.3091,-2.3091,-2.3091,-2.3091,-2.3091,-2.3091,-2.3091,-2.3091,-2.3091,-2.3091,-2.3091,-2.3091,-2.3091,-2.3507,-2.4168,-2.4168,-2.484,-2.5922,-2.6573,-2.7815,-2.9157,-2.9157,-2.9443,-2.9792,0.0,0.0,0.0,0.0,0.0,0.0,0.0,0.0,0.0,0.0,0.0,0.0,0.0,0.0,0.0,0.0,0.0,0.0,0.0,0.0,0.0,0.0,0.0,-1.0593,-1.0593,-1.0593,-1.0593,-1.0593,-1.0593,-1.0593,-1.0593,0.0,0.0,0.0,0.0,0.0,0.0,0.0,0.0,0.0,0.0,0.0,0.0,0.0,0.0,0.0,0.0,0.0,0.0,0.0,0.0,0.0,0.0,0.0,0.0,0.0,0.0,-1.0593,-1.0593,-1.0593,-1.0593,-1.0593,-1.0881,-1.1196,-1.1528,-1.2728,-1.3874,-1.4255,-1.5362,-1.675,-1.823,-1.9296,-2.0059,-2.0537,-2.0605,-2.0605,-2.0605,-2.1211,-2.168,-2.168,-2.2422,-2.2896,-2.2896,-2.3013,-2.3091,-2.3091,-2.3091,-2.3091,-2.3091,-2.3091,-2.3091,-2.3091,-2.3091,-2.3091,-2.3091,-2.3091,-2.3091,-2.3091,-2.3091,-2.3091,-2.3091,-2.3464,-2.3637,-2.3681,-2.4016,-2.4638,-2.5336,-2.5336,-2.6005,-2.7128,-2.8187,-2.9106,-2.9792,-2.9792,-2.9792,-2.9792,0.0,0.0,0.0,0.0,0.0,0.0,0.0,0.0,0.0,0.0,0.0,0.0,0.0,0.0,0.0,0.0,0.0,0.0,0.0,0.0,0.0,0.0,0.0,-1.0593,-1.0593,-1.0593,-1.0593,-1.0593,-1.0593,-1.0593,-1.0593,0.0,0.0,0.0,0.0,0.0,0.0,0.0,0.0,0.0,0.0,0.0,0.0,0.0,0.0,0.0,0.0,0.0,0.0,0.0,0.0,0.0,0.0,0.0,0.0,0.0,-0.9919,-1.0593,-1.0593,-1.0593,-1.0593,-1.0593,-1.0995,-1.1696,-1.268,-1.3831,-1.5069,-1.6347,-1.7684,-1.887,-1.9756,-1.9922,-2.0059,-2.0537,-2.0605,-2.0605,-2.0605,-2.0947,-2.119,-2.119,-2.1992,-2.251,-2.251,-2.2847,-2.3091,-2.3091,-2.3091,-2.3091,-2.3091,-2.3091,-2.3091,-2.3091,-2.3091,-2.3091,-2.3091,-2.3091,-2.3091,-2.3091,-2.3091,-2.3135,-2.3135,-2.4296,-2.4787,-2.4872,-2.6016,-2.6524,-2.6524,-2.6524,-2.7168,-2.8215,-2.9365,-2.9792,-2.9792,-2.9792,-2.9792,-2.9792,0.0,0.0,0.0,0.0,0.0,0.0,0.0,0.0,0.0,0.0,0.0,0.0,0.0,0.0,0.0,0.0,0.0,0.0,0.0,0.0,0.0,0.0,0.0,0.0,0.0,0.0,-1.0593,-1.0593,-1.0593,-1.0593,0.0,0.0,0.0,-1.0593,0.0,0.0,0.0,0.0,0.0,0.0,0.0,0.0,0.0,0.0,0.0,0.0,0.0,0.0,0.0,0.0,0.0,0.0,0.0,0.0,0.0,-1.0301,-1.0396,-1.0593,-1.0593,-1.0593,-1.0593,-1.0593,-1.1554,-1.2706,-1.366,-1.4492,-1.5598,-1.7598,-1.8602,-1.9268,-1.9814,-2.0166,-2.0458,-2.0586,-2.0605,-2.0605,-2.0605,-2.0947,-2.119,-2.119,-2.1728,-2.207,-2.207,-2.2451,-2.2705,-2.2705,-2.2925,-2.3091,-2.3091,-2.3091,-2.3091,-2.3091,-2.3091,-2.3091,-2.3091,-2.3091,-2.3091,-2.3091,-2.392,-2.4296,-2.4296,-2.467,-2.5252,-2.6005,-2.6348,-2.6924,-2.7695,-2.8502,-2.9,-2.9326,-2.9663,-2.9792,-2.9792,-2.9792,-2.9792,-2.9792,0.0,0.0,0.0,0.0,0.0,0.0,0.0,0.0,0.0,0.0,0.0,0.0,0.0,0.0,0.0,0.0,0.0,0.0,0.0,0.0,0.0,0.0,0.0,0.0,0.0,-1.0593,-1.0593,0.0,0.0,0.0,0.0,0.0,0.0,-1.0593,0.0,0.0,0.0,0.0,0.0,0.0,0.0,0.0,0.0,0.0,0.0,0.0,0.0,0.0,0.0,0.0,0.0,0.0,0.0,0.0,0.0,-1.0593,-1.0593,-1.0593,-1.0593,-1.0593,-1.0593,-1.0593,-1.175,-1.3313,-1.4849,-1.5781,-1.6808,-1.8511,-1.9102,-1.9463,-2.0068,-2.0429,-2.0605,-2.0605,-2.0605,-2.0605,-2.0605,-2.0801,-2.0967,-2.0967,-2.1357,-2.1621,-2.1621,-2.2012,-2.2266,-2.2266,-2.25,-2.2672,-2.2838,-2.2847,-2.2925,-2.3091,-2.3091,-2.3091,-2.3091,-2.3091,-2.3343,-2.38,-2.4457,-2.5241,-2.6108,-2.6108,-2.6491,-2.7168,-2.7626,-2.8159,-2.8819,-2.9534,-2.9792,-2.9792,-2.9792,-2.9792,-2.9792,-2.9792,-2.9792,-2.9792,0.0,0.0,0.0,0.0,0.0,0.0,0.0,0.0,0.0,0.0,0.0,0.0,0.0,0.0,0.0,0.0,0.0,0.0,0.0,0.0,0.0,0.0,0.0,0.0,0.0,0.0,0.0,0.0,0.0,0.0,0.0,0.0,-1.0593,-1.0593,0.0,-1.0593,0.0,0.0,0.0,0.0,0.0,0.0,0.0,0.0,0.0,0.0,0.0,0.0,0.0,0.0,0.0,0.0,-1.0593,-1.0593,-1.0593,-1.0593,-1.0593,-1.0593,-1.0593,-1.0593,-1.0624,-1.0681,-1.1931,-1.3785,-1.618,-1.7389,-1.8242,-1.9062,-1.9258,-1.9541,-2.039,-2.0576,-2.0605,-2.0605,-2.0605,-2.0605,-2.0605,-2.0605,-2.0605,-2.0605,-2.0928,-2.1132,-2.1132,-2.1562,-2.1826,-2.1826,-2.1865,-2.2051,-2.2432,-2.2461,-2.2646,-2.3023,-2.3163,-2.3226,-2.3256,-2.3343,-2.392,-2.4957,-2.5041,-2.6149,-2.8096,-2.8096,-2.8176,-2.8295,-2.9365,-2.9792,-2.9792,-2.9792,-2.9792,-2.9792,-2.9792,-2.9792,-2.9792,-2.9792,-2.9792,-2.9792,0.0,0.0,0.0,0.0,0.0,0.0,0.0,0.0,0.0,0.0,0.0,0.0,0.0,0.0,0.0,0.0,0.0,0.0,0.0,0.0,0.0,0.0,0.0,0.0,0.0,0.0,0.0,0.0,0.0,0.0,0.0,0.0,0.0,-1.0593,0.0,-1.0593,0.0,0.0,0.0,0.0,0.0,0.0,0.0,0.0,0.0,0.0,0.0,0.0,0.0,0.0,0.0,0.0,-1.0593,-1.0593,-1.0593,-1.0593,-1.0593,-1.0593,-1.0593,-1.0593,-1.0744,-1.1375,-1.3251,-1.5438,-1.7277,-1.7862,-1.8154,-1.8637,-1.9053,-1.9443,-1.9961,-2.0332,-2.0605,-2.0605,-2.0605,-2.0605,-2.0605,-2.0605,-2.0605,-2.0605,-2.0693,-2.0752,-2.0752,-2.1113,-2.1337,-2.1337,-2.1689,-2.1924,-2.2012,-2.2021,-2.2207,-2.2637,-2.3498,-2.4105,-2.4414,-2.5305,-2.5891,-2.6141,-2.6982,-2.7631,-2.8096,-2.8096,-2.8597,-2.9456,-2.9702,-2.9792,-2.9792,-2.9792,-2.9792,-2.9792,-2.9792,-2.9792,-2.9792,-2.9792,-2.9792,-2.9792,0.0,0.0,0.0,0.0,0.0,0.0,0.0,0.0,0.0,0.0,0.0,0.0,0.0,0.0,0.0,0.0,0.0,0.0,0.0,0.0,0.0,0.0,0.0,0.0,0.0,0.0,0.0,0.0,0.0,0.0,0.0,0.0,0.0,-1.0593,0.0,-1.0593,0.0,0.0,0.0,0.0,0.0,0.0,0.0,0.0,0.0,0.0,0.0,0.0,0.0,0.0,0.0,0.0,0.0,0.0,-1.0593,-1.0593,-1.0593,-1.0593,-1.0593,-1.0593,-1.0995,-1.2608,-1.4243,-1.5928,-1.7634,-1.8008,-1.8076,-1.8256,-1.8682,-1.917,-1.9795,-2.0098,-2.0322,-2.0566,-2.0605,-2.0605,-2.0605,-2.0605,-2.0605,-2.0605,-2.0605,-2.0605,-2.0605,-2.0781,-2.0918,-2.0918,-2.1123,-2.1348,-2.1562,-2.2029,-2.2453,-2.2887,-2.4195,-2.4951,-2.5189,-2.6061,-2.676,-2.7279,-2.7844,-2.8386,-2.8897,-2.8897,-2.9236,-2.9792,-2.9792,-2.9792,-2.9792,-2.9792,-2.9792,-2.9792,-2.9792,-2.9792,-2.9792,-2.9792,-2.9792,-2.9856,0.0,0.0,0.0,0.0,0.0,0.0,0.0,0.0,0.0,0.0,0.0,0.0,0.0,0.0,0.0,0.0,0.0,0.0,0.0,0.0,0.0,0.0,0.0,0.0,0.0,0.0,0.0,0.0,0.0,0.0,0.0,0.0,0.0,-1.0593,0.0,0.0,0.0,0.0,0.0,0.0,0.0,0.0,0.0,0.0,0.0,0.0,0.0,0.0,0.0,0.0,0.0,0.0,0.0,0.0,-1.0593,-1.0593,-1.0593,-1.0593,-1.0593,-1.0807,-1.1527,-1.3664,-1.4953,-1.6081,-1.7547,-1.7959,-1.8008,-1.8008,-1.8315,-1.8812,-1.9524,-1.9814,-2.0029,-2.0429,-2.0556,-2.0605,-2.0605,-2.0605,-2.0605,-2.0605,-2.0605,-2.0605,-2.0605,-2.0605,-2.0673,-2.0828,-2.0828,-2.1064,-2.155,-2.2392,-2.3009,-2.3425,-2.4884,-2.5741,-2.591,-2.6582,-2.7411,-2.8386,-2.8386,-2.8897,-2.9792,-2.9792,-2.9792,-2.9792,-2.9792,-2.9792,-2.9792,-2.9792,-2.9792,-2.9792,-2.9792,-2.9792,-2.9792,-2.9792,-2.9895,-3.0139,0.0,0.0,0.0,0.0,0.0,0.0,0.0,0.0,0.0,0.0,0.0,0.0,0.0,0.0,0.0,0.0,0.0,0.0,0.0,0.0,0.0,0.0,0.0,0.0,0.0,0.0,0.0,0.0,0.0,0.0,0.0,0.0,0.0,-1.0593,0.0,0.0,0.0,0.0,0.0,0.0,0.0,0.0,0.0,0.0,0.0,0.0,0.0,0.0,0.0,-1.0593,-1.0593,0.0,0.0,0.0,-1.0593,-1.0593,-1.0593,-1.0593,-1.0593,-1.1632,-1.2823,-1.3504,-1.5119,-1.6686,-1.7353,-1.7744,-1.8008,-1.8008,-1.8315,-1.8637,-1.8754,-1.9377,-1.9932,-1.999,-2.0312,-2.0605,-2.0605,-2.0605,-2.0605,-2.0605,-2.0605,-2.0605,-2.0605,-2.0605,-2.0934,-2.1735,-2.1811,-2.2209,-2.3135,-2.332,-2.3579,-2.4077,-2.5203,-2.6196,-2.7066,-2.8076,-2.8921,-2.9573,-2.9573,-2.9663,-2.9792,-2.9792,-2.9792,-2.9792,-2.9792,-2.9792,-2.9792,-2.9792,-2.9792,-2.9792,-2.9792,-2.9792,-2.9792,-2.9792,-3.0317,-3.1044,0.0,0.0,0.0,0.0,0.0,0.0,0.0,0.0,0.0,0.0,0.0,0.0,0.0,0.0,0.0,0.0,0.0,0.0,0.0,0.0,0.0,0.0,0.0,0.0,0.0,0.0,0.0,0.0,0.0,0.0,0.0,-1.0593,-1.0593,0.0,0.0,0.0,0.0,0.0,0.0,0.0,0.0,0.0,0.0,0.0,0.0,0.0,0.0,0.0,0.0,-1.0593,-1.0593,-1.0593,-1.0593,0.0,0.0,0.0,-1.0593,-1.0713,-1.1139,-1.212,-1.3214,-1.4112,-1.5525,-1.6814,-1.7285,-1.7705,-1.8008,-1.8008,-1.812,-1.8325,-1.8559,-1.8909,-1.9319,-1.9834,-2.0078,-2.0283,-2.0566,-2.0605,-2.0605,-2.0605,-2.1039,-2.1193,-2.0634,-2.1078,-2.1555,-2.1952,-2.1989,-2.244,-2.3452,-2.4036,-2.4441,-2.4636,-2.5949,-2.6857,-2.7299,-2.8076,-2.875,-2.9315,-2.9315,-2.9478,-2.9792,-2.9792,-2.9792,-2.9792,-2.9792,-2.9792,-2.9792,-2.9792,-2.9792,-2.9856,-3.0381,-3.0595,-3.0671,-3.1156,-3.1623,-3.2069,0.0,0.0,0.0,0.0,0.0,0.0,0.0,0.0,0.0,0.0,0.0,0.0,0.0,0.0,0.0,0.0,0.0,0.0,0.0,0.0,0.0,0.0,0.0,0.0,0.0,0.0,0.0,0.0,0.0,0.0,-1.0593,-1.0593,-1.0593,0.0,-1.0593,0.0,0.0,0.0,0.0,0.0,0.0,0.0,0.0,0.0,0.0,0.0,0.0,0.0,-1.0593,-1.0593,-1.0593,-1.0593,-1.0593,-1.0593,0.0,0.0,0.0,-1.0776,-1.1593,-1.2389,-1.3288,-1.4421,-1.5626,-1.668,-1.7119,-1.7549,-1.7881,-1.7988,-1.8008,-1.8105,-1.8383,-1.8529,-1.8812,-1.9446,-1.9775,-2.0029,-2.0352,-2.0537,-2.0605,-2.0605,-2.1451,-2.1735,-2.1011,-2.1811,-2.2478,-2.2739,-2.2776,-2.322,-2.4217,-2.4957,-2.537,-2.537,-2.6491,-2.7178,-2.7281,-2.7821,-2.831,-2.8687,-2.8687,-2.895,-2.9365,-2.9515,-2.9578,-2.9578,-2.9729,-2.9792,-2.9792,-2.9792,-2.9934,-3.0241,-3.0932,-3.1352,-3.1646,-3.2357,-3.2749,-3.3066,0.0,0.0,0.0,0.0,0.0,0.0,0.0,0.0,0.0,0.0,0.0,0.0,0.0,0.0,0.0,0.0,0.0,0.0,0.0,0.0,0.0,0.0,0.0,0.0,0.0,0.0,0.0,0.0,0.0,0.0,-1.0593,-1.0593,-1.0593,-1.0593,-1.0593,-1.0593,-1.0593,0.0,0.0,0.0,0.0,0.0,0.0,0.0,0.0,0.0,0.0,-1.0593,-1.0593,-1.0593,-1.0593,-1.0593,-1.0593,-1.0593,-1.0593,0.0,0.0,0.0,-1.1593,-1.2389,-1.3191,-1.4022,-1.5183,-1.6242,-1.6629,-1.7109,-1.7529,-1.793,-1.8008,-1.8018,-1.8037,-1.8334,-1.8617,-1.8656,-1.9348,-1.9922,-1.9941,-2.0303,-2.0605,-2.0605,-2.1451,-2.1989,-2.1924,-2.2813,-2.3818,-2.4779,-2.4862,-2.5288,-2.628,-2.6383,-2.6418,-2.6418,-2.649,-2.6788,-2.7316,-2.7821,-2.8122,-2.8147,-2.8147,-2.816,-2.821,-2.87,-2.8938,-2.8963,-2.9553,-2.9792,-2.9792,-2.9792,-3.0317,-3.1143,-3.118,-3.1742,-3.2522,-3.2558,-3.3171,-3.391,0.0,0.0,0.0,0.0,0.0,0.0,0.0,0.0,0.0,0.0,0.0,0.0,0.0,0.0,0.0,0.0,0.0,0.0,0.0,0.0,0.0,0.0,0.0,0.0,0.0,0.0,0.0,0.0,0.0,-1.0593,-1.0593,-1.0593,-1.0593,-1.0593,-1.0593,-1.0593,-1.0593,-1.0593,0.0,0.0,0.0,0.0,0.0,0.0,0.0,-1.0593,-1.0593,-1.0593,-1.0593,-1.0593,-1.0593,-1.0593,-1.0593,-1.0593,-1.0593,-1.0593,-1.0958,-1.1562,-1.2358,-1.3152,-1.3965,-1.4785,-1.5554,-1.6212,-1.6599,-1.707,-1.75,-1.793,-1.8008,-1.8008,-1.8008,-1.8135,-1.8286,-1.8559,-1.8861,-1.9153,-1.9473,-1.9883,-2.0402,-2.1022,-2.2195,-2.2962,-2.2962,-2.3854,-2.46,-2.4969,-2.5004,-2.5441,-2.6465,-2.6499,-2.6499,-2.6499,-2.6499,-2.6587,-2.6788,-2.6989,-2.7266,-2.7582,-2.7582,-2.7758,-2.8109,-2.831,-2.8398,-2.8436,-2.9001,-2.9453,-2.9869,-3.0457,-3.0908,-3.1315,-3.2522,-3.3206,-3.3567,-3.4225,-3.4658,-3.4953,0.0,0.0,0.0,0.0,0.0,0.0,0.0,0.0,0.0,0.0,0.0,0.0,0.0,0.0,0.0,0.0,0.0,0.0,0.0,0.0,0.0,0.0,0.0,0.0,0.0,0.0,0.0,0.0,0.0,0.0,0.0,-1.0593,-1.0593,-1.0593,-1.0593,-1.0593,0.0,0.0,0.0,-1.0593,-1.0593,-1.0593,-1.0593,-1.0593,-1.0593,-1.0593,-1.0593,-1.0776,-1.0982,-1.0982,-1.117,-1.1421,-1.1421,-1.1421,-1.1421,-1.1421,-1.1779,-1.2389,-1.3183,-1.3786,-1.4392,-1.5196,-1.5625,-1.5997,-1.6406,-1.6846,-1.7285,-1.7715,-1.791,-1.8008,-1.8008,-1.8008,-1.8105,-1.8344,-1.851,-1.8801,-1.9407,-1.9607,-2.0219,-2.1662,-2.2717,-2.3492,-2.3952,-2.4921,-2.5511,-2.5511,-2.5511,-2.5804,-2.6452,-2.6499,-2.6499,-2.6499,-2.6499,-2.6499,-2.6499,-2.6499,-2.6675,-2.704,-2.704,-2.7241,-2.7557,-2.7745,-2.7821,-2.7858,-2.8411,-2.8976,-2.9592,-3.0717,-3.1389,-3.1815,-3.338,-3.4211,-3.4576,-3.5246,-3.5504,-3.5504,0.0,0.0,0.0,0.0,0.0,0.0,0.0,0.0,0.0,0.0,0.0,0.0,0.0,0.0,0.0,0.0,0.0,0.0,0.0,0.0,0.0,0.0,0.0,0.0,0.0,0.0,0.0,0.0,0.0,0.0,0.0,0.0,-1.0593,-1.0593,-1.0593,-1.0593,-1.0593,0.0,-1.0593,-1.0593,-1.0593,-1.0624,-1.0656,-1.0656,-1.0656,-1.0688,-1.0688,-1.117,-1.1834,-1.1834,-1.2358,-1.3009,-1.3009,-1.3009,-1.3009,-1.3009,-1.3009,-1.3221,0.0,0.0,0.0,-1.5196,-1.541,-1.5527,-1.5987,-1.6406,-1.6824,-1.7295,-1.7715,-1.8008,-1.8008,-1.8008,-1.8042,-1.8042,-1.8384,-1.8919,-1.9754,-1.9571,-2.0195,-2.2437,-2.2835,-2.3475,-2.4898,-2.5884,-2.6474,-2.6499,-2.6499,-2.6499,-2.6499,-2.6499,-2.6499,-2.6499,-2.6499,-2.6499,-2.6499,-2.6499,-2.6499,-2.6499,-2.6499,-2.6499,-2.6512,-2.7052,-2.7291,-2.7329,-2.7869,-2.8422,-2.9025,-3.0583,-3.1765,-3.2749,-3.3671,-3.4643,-3.5504,-3.5504,-3.5504,-3.5504,0.0,0.0,0.0,0.0,0.0,0.0,0.0,0.0,0.0,0.0,0.0,0.0,0.0,0.0,0.0,0.0,0.0,0.0,0.0,0.0,0.0,0.0,0.0,0.0,0.0,0.0,0.0,0.0,0.0,0.0,0.0,0.0,0.0,0.0,-1.0593,-1.0593,-1.0593,-1.0593,-1.0593,-1.0593,-1.0593,-1.0958,-1.1469,-1.1469,-1.1841,-1.2336,-1.2336,-1.2489,-1.2665,-1.2665,-1.2826,-1.3009,-1.3009,-1.3009,0.0,-1.3009,-1.3394,0.0,-1.4145,0.0,0.0,0.0,0.0,0.0,-1.5987,-1.6406,-1.6824,-1.7295,-1.7715,-1.8008,-1.8008,-1.8529,-1.8944,-1.8944,-1.9014,-1.9197,-1.9421,-2.0147,-2.1194,-2.2527,-2.2998,-2.3771,-2.529,-2.569,-2.6047,-2.6461,-2.6499,-2.6499,-2.6499,-2.6499,-2.6499,-2.6499,-2.6499,-2.6499,-2.6499,-2.6499,-2.6499,-2.6499,-2.6499,-2.6499,-2.6499,-2.665,-2.6725,-2.6785,-2.7906,-2.846,-2.8786,-3.0786,-3.2417,-3.3705,-3.4691,-3.5246,-3.5504,-3.5504,-3.5504,-3.5504,0.0,0.0,0.0,0.0,0.0,0.0,0.0,0.0,0.0,0.0,0.0,0.0,0.0,0.0,0.0,0.0,0.0,0.0,0.0,0.0,0.0,0.0,0.0,0.0,0.0,0.0,0.0,0.0,0.0,0.0,0.0,0.0,0.0,0.0,0.0,0.0,0.0,-1.0593,-1.0593,-1.0624,-1.0958,-1.1375,-1.1826,-1.2166,-1.2604,-1.3009,-1.3009,-1.3221,-1.3485,-1.3485,-1.3726,-1.3995,-1.3995,-1.3995,-1.3995,-1.3995,-1.4323,0.0,0.0,0.0,-1.541,-1.541,0.0,0.0,-1.5762,-1.6279,-1.6775,-1.7061,-1.7876,-1.8519,-1.8519,-1.9233,-1.9846,-1.9846,-2.0139,-2.0365,-2.0365,-2.0696,-2.1508,-2.3066,-2.3131,-2.3646,-2.5111,-2.5473,-2.5737,-2.6109,-2.6361,-2.6499,-2.6499,-2.6499,-2.6499,-2.6499,-2.6499,-2.6499,-2.6499,-2.6499,-2.6499,-2.6499,-2.6499,-2.6499,-2.6499,-2.685,-2.7007,-2.7053,-2.8199,-2.905,-2.9731,-3.1324,-3.2615,-3.3749,-3.4996,-3.5504,-3.5504,-3.5504,-3.5504,-3.5504,0.0,0.0,0.0,0.0,0.0,0.0,0.0,0.0,0.0,0.0,0.0,0.0,0.0,0.0,0.0,0.0,0.0,0.0,0.0,0.0,0.0,0.0,0.0,0.0,0.0,0.0,0.0,0.0,0.0,0.0,0.0,0.0,0.0,0.0,0.0,0.0,0.0,-1.0593,-1.0649,-1.0807,-1.15,-1.1865,-1.202,-1.2818,-1.3191,-1.3282,-1.3324,-1.3795,-1.4435,-1.445,-1.4918,-1.5488,-1.5488,-1.5449,-1.541,-1.541,-1.541,0.0,0.0,0.0,0.0,-1.541,-1.541,0.0,-1.5469,-1.6102,-1.6716,-1.6765,-1.8043,-1.9177,-1.9177,-1.989,-2.0494,-2.059,-2.1333,-2.1908,-2.1908,-2.129,-2.1623,-2.3642,-2.324,-2.3276,-2.4573,-2.5146,-2.5473,-2.5586,-2.6172,-2.6499,-2.6499,-2.6499,-2.6499,-2.6499,-2.6499,-2.6499,-2.6499,-2.6499,-2.6499,-2.6499,-2.6589,-2.6624,-2.6658,-2.7484,-2.7835,-2.7887,-2.878,-2.9893,-3.1149,-3.2011,-3.2706,-3.339,-3.4928,-3.5504,-3.5504,-3.5504,-3.5504,-3.5504,0.0,0.0,0.0,0.0,0.0,0.0,0.0,0.0,0.0,0.0,0.0,0.0,0.0,0.0,0.0,0.0,0.0,0.0,0.0,0.0,0.0,0.0,0.0,0.0,0.0,0.0,0.0,0.0,0.0,0.0,0.0,0.0,0.0,0.0,0.0,0.0,0.0,-1.0593,-1.0982,-1.1593,-1.1741,-1.2205,-1.2848,-1.3666,-1.4362,-1.497,-1.5351,-1.5596,-1.5774,-1.61,-1.6108,-1.5968,-1.5968,-1.5693,-1.541,-1.541,-1.541,-1.541,-1.541,-1.541,-1.541,-1.541,-1.541,0.0,-1.5889,-1.6348,-1.6804,-1.7187,-1.778,-1.8269,-1.8269,-1.8977,-1.9792,-2.0494,-2.1333,-2.1908,-2.1908,-2.231,-2.28,-2.3228,-2.3149,-2.3331,-2.4073,-2.4255,-2.4669,-2.5536,-2.6172,-2.6499,-2.6499,-2.6499,-2.6499,-2.6499,-2.6499,-2.6499,-2.6499,-2.6499,-2.6499,-2.6499,-2.7162,-2.7484,-2.7484,-2.833,-2.8748,-2.878,-2.9659,-3.0205,-3.0619,-3.2473,-3.3641,-3.431,-3.517,-3.5504,-3.5504,-3.5504,-3.5504,-3.5504,0.0,0.0,0.0,0.0,0.0,0.0,0.0,0.0,0.0,0.0,0.0,0.0,0.0,0.0,0.0,0.0,0.0,0.0,0.0,0.0,0.0,0.0,0.0,0.0,0.0,0.0,0.0,0.0,0.0,0.0,0.0,0.0,0.0,0.0,0.0,0.0,-1.1195,-1.1195,-1.1437,-1.1834,-1.2235,-1.2879,-1.3722,-1.4731,-1.5395,-1.5791,-1.624,-1.6396,-1.6436,-1.6619,-1.6582,-1.6396,-1.6396,-1.624,-1.6044,-1.6044,-1.6044,-1.6044,-1.6044,-1.6044,-1.6044,-1.6044,-1.6044,0.0,0.0,-1.6738,-1.7119,-1.7334,-1.8072,-1.8654,-1.8654,-1.9726,-2.0751,-2.1175,-2.1959,-2.2506,-2.2506,-2.2854,-2.3108,-2.3108,-2.3108,-2.3221,-2.3509,-2.3828,-2.4443,-2.5511,-2.5862,-2.6185,-2.6474,-2.6499,-2.6499,-2.6499,-2.6499,-2.6499,-2.6499,-2.6905,-2.7095,-2.7095,-2.7953,-2.833,-2.8363,-2.9254,-2.9659,-2.969,-3.0524,-3.0896,-3.1014,-3.2407,-3.3395,-3.4083,-3.5115,-3.5504,-3.5504,-3.5504,-3.5504,-3.5504,0.0,0.0,0.0,0.0,0.0,0.0,0.0,0.0,0.0,0.0,0.0,0.0,0.0,-1.5482,-1.5411,0.0,0.0,0.0,-1.4027,-1.3531,-1.2833,0.0,0.0,-1.0894,0.0,0.0,0.0,0.0,0.0,0.0,0.0,0.0,0.0,0.0,0.0,0.0,-1.2012,-1.2012,-1.2174,-1.2453,-1.3108,-1.3748,-1.4457,-1.5742,-1.6222,-1.6281,-1.6699,-1.6872,-1.6941,-1.6941,-1.6892,-1.6824,-1.6824,-1.6892,-1.6908,-1.676,-1.6823,-1.6908,-1.676,-1.6697,-1.6697,-1.6697,-1.6697,-1.6726,0.0,0.0,0.0,-1.749,-1.8321,-1.911,-1.9266,-2.0462,-2.1455,-2.1673,-2.2372,-2.2877,-2.2927,-2.3032,-2.3108,-2.3108,-2.3108,-2.3108,-2.3108,-2.3665,-2.4356,-2.5222,-2.5473,-2.5799,-2.6298,-2.6436,-2.6499,-2.6499,-2.6658,-2.6714,-2.6714,-2.7537,-2.7953,-2.7953,-2.8844,-2.9254,-2.9286,-3.0133,-3.0524,-3.0584,-3.1219,-3.1511,-3.1555,-3.2213,-3.2901,-3.3619,-3.4831,-3.5385,-3.5504,-3.5504,-3.5587,-3.5701,-1.8008,-1.8008,0.0,0.0,0.0,0.0,0.0,0.0,0.0,0.0,0.0,-1.7364,-1.6532,-1.6428,-1.6114,-1.5269,-1.5199,-1.5163,-1.5021,-1.468,0.0,-1.3801,-1.2773,-1.2022,-1.1686,0.0,0.0,0.0,0.0,0.0,0.0,0.0,0.0,0.0,-1.1803,-1.2205,-1.2856,-1.2856,-1.3529,-1.4551,-1.4644,-1.4745,-1.4945,-1.6162,-1.6619,-1.6677,-1.7148,-1.7549,-1.7861,-1.7861,-1.7617,-1.7314,-1.7314,-1.7565,-1.7688,-1.6939,-1.7243,-1.7688,-1.6908,-1.6697,-1.6697,-1.6697,-1.6697,-1.6804,-1.7227,0.0,-1.749,-1.7861,0.0,-1.8395,-1.9177,0.0,0.0,-2.0951,-2.1629,-2.2122,-2.2355,-2.2794,-2.3108,-2.3108,-2.3108,-2.3108,-2.3108,-2.3665,-2.4054,-2.4167,-2.5059,-2.5624,-2.5686,-2.6223,-2.6499,-2.6499,-2.7196,-2.7571,-2.7571,-2.8427,-2.8844,-2.8876,-2.9735,-3.0133,-3.0178,-3.0999,-3.1351,-3.138,-3.1467,-3.1511,-3.1555,-3.2213,-3.2901,-3.3559,-3.4307,-3.4966,-3.5504,-3.5504,-3.5911,-3.6477,-1.8008,-1.8008,0.0,0.0,0.0,0.0,0.0,0.0,0.0,0.0,-1.8008,-1.7862,-1.7467,-1.7398,-1.7251,-1.6872,-1.6837,-1.6576,-1.6044,-1.5197,0.0,-1.4131,-1.2485,-1.1643,-1.181,0.0,0.0,0.0,-1.1076,0.0,0.0,0.0,0.0,0.0,-1.3205,-1.3544,-1.4096,-1.4096,-1.4533,-1.5264,-1.5482,-1.5891,-1.6421,-1.6902,-1.7256,-1.7467,-1.7686,-1.7861,-1.8008,-1.8008,-1.7891,-1.7845,-1.8357,-1.863,-1.8668,-1.8323,-1.8475,-1.8657,-1.8323,-1.8226,-1.8323,-1.885,-1.8977,-1.8998,-1.92,-1.9275,-1.9296,-1.9454,0.0,0.0,0.0,0.0,0.0,0.0,-2.2134,-2.2646,-2.2765,-2.2957,-2.3108,-2.3108,-2.3108,-2.3108,-2.3108,-2.3321,-2.364,-2.3966,-2.4418,-2.5159,-2.6291,-2.6595,-2.7111,-2.7907,-2.8266,-2.846,-2.846,-2.9317,-2.9766,-2.9766,-3.0614,-3.0999,-3.0999,-3.1351,-3.1511,-3.1511,-3.1511,-3.1511,-3.1555,-3.2213,-3.2901,-3.3559,-3.4249,-3.4906,-3.5554,-3.5975,-3.6322,-3.6676,-1.8008,0.0,0.0,0.0,0.0,0.0,0.0,0.0,-1.8008,-1.8008,-1.8008,-1.8008,-1.8008,-1.8008,-1.8008,-1.8008,-1.8008,-1.7716,-1.7035,-1.6134,-1.5425,-1.5017,-1.3086,-1.2287,-1.279,-1.2357,0.0,0.0,0.0,0.0,0.0,0.0,0.0,0.0,-1.4514,-1.4885,-1.5386,-1.5386,-1.5659,-1.6049,-1.6336,-1.6916,-1.7549,-1.7549,-1.7744,-1.8008,-1.8008,-1.8134,-1.8361,-1.8361,-1.8529,-1.8821,-1.9464,-1.9814,-1.9977,-1.9716,-1.9824,-1.9944,-1.9726,-1.9661,-1.9824,-2.043,-2.059,-2.059,-2.059,-2.059,-2.059,-2.059,-2.059,0.0,0.0,0.0,-2.1923,-2.2006,0.0,-2.3058,-2.2895,-2.3007,-2.3108,-2.3108,-2.3108,-2.3108,-2.3108,-2.3108,-2.3283,-2.3728,-2.4077,-2.49,-2.6332,-2.6915,-2.7687,-2.8677,-2.9139,-2.9348,-2.9348,-3.0208,-3.0614,-3.0644,-3.1219,-3.1511,-3.1511,-3.1511,-3.1511,-3.1511,-3.1511,-3.1511,-3.1555,-3.2213,-3.2901,-3.359,-3.4468,-3.5209,-3.5863,-3.6384,-3.6873,-3.7291,-1.8008,-1.8008,0.0,0.0,0.0,0.0,0.0,-1.8008,-1.8008,-1.8008,-1.8008,-1.8008,-1.8008,-1.8008,-1.8008,-1.8008,-1.8008,-1.7974,-1.7974,-1.793,-1.7692,-1.7317,-1.5551,-1.4849,-1.5359,-1.3727,-1.3304,-1.418,0.0,0.0,0.0,0.0,0.0,0.0,-1.5273,-1.589,-1.6646,-1.6646,-1.6899,-1.733,-1.734,-1.7594,-1.7988,-1.7988,-1.7998,-1.8008,-1.8008,-1.8519,-1.9276,-1.9276,-1.9814,-2.0526,-2.0558,-2.1144,-2.1647,-2.0814,-2.1175,-2.1628,-2.0782,-2.0558,-2.0558,-2.059,-2.059,-2.059,-2.059,-2.059,-2.059,-2.059,-2.059,-2.0846,-2.169,-2.1877,0.0,0.0,-2.2757,0.0,0.0,-2.2769,-2.3108,-2.3108,-2.3108,-2.3108,-2.3108,-2.3108,-2.3108,-2.3133,-2.4339,-2.5073,-2.5143,-2.6925,-2.7982,-2.804,-2.9485,-3.0269,-3.0269,-3.1058,-3.1467,-3.1467,-3.1511,-3.1511,-3.1511,-3.1511,-3.1511,-3.1511,-3.1511,-3.1511,-3.1555,-3.2213,-3.2901,-3.3651,-3.5016,-3.5981,-3.6584,-3.6569,-3.7555,-3.8827,0.0,0.0,0.0,-1.8008,-1.8008,-1.8008,-1.8008,-1.8008,-1.8008,-1.8008,-1.8008,-1.8008,-1.8008,-1.8008,-1.8008,-1.8008,-1.8008,-1.8008,-1.8008,-1.7432,-1.7175,-1.7402,-1.5687,-1.495,-1.5491,-1.4932,-1.4509,-1.4312,-1.4672,0.0,0.0,0.0,0.0,0.0,-1.623,-1.6619,-1.7168,-1.7168,-1.7412,-1.7803,-1.7803,-1.7881,-1.8008,-1.8008,-1.8361,-1.8844,-1.8844,-1.9431,-2.0171,-2.0171,-2.0365,-2.0687,-2.127,-2.1647,-2.1846,-2.1553,-2.1659,-2.1846,-2.1522,-2.1459,-2.1585,-2.2113,-2.2249,-2.2249,-2.2249,-2.2249,-2.2249,-2.2249,-2.2249,-2.2341,-2.2628,-2.2689,0.0,0.0,0.0,-2.3045,0.0,-2.2995,-2.3108,-2.3108,-2.3108,-2.3108,-2.3108,-2.3573,-2.3884,-2.3884,-2.4769,-2.5711,-2.6652,-2.73,-2.8283,-2.9595,-3.0146,-3.0629,-3.1087,-3.1351,-3.1511,-3.1511,-3.1511,-3.1511,-3.1511,-3.1511,-3.1511,-3.1511,-3.1511,-3.175,-3.2272,-3.345,-3.4313,-3.5046,-3.6487,-3.7479,-3.8129,-3.8129,-3.8453,-3.9044,-1.8008,-1.8008,-1.8008,-1.8008,-1.8008,-1.8008,-1.8008,-1.8008,-1.8057,-1.8178,-1.8198,-1.8291,-1.8447,-1.8467,-1.8467,-1.8467,-1.832,-1.8198,-1.8198,-1.7508,-1.7241,-1.7617,-1.6197,-1.5691,-1.6356,-1.6074,-1.5809,-1.5619,-1.5978,-1.6174,0.0,0.0,0.0,0.0,-1.7087,-1.7344,-1.7607,-1.7607,-1.7764,-1.8042,-1.8337,-1.8462,-1.8496,-1.8821,-1.9077,-1.9332,-1.9661,-2.0333,-2.1069,-2.1069,-2.1259,-2.1573,-2.2156,-2.2322,-2.2322,-2.2322,-2.2322,-2.2322,-2.2322,-2.2322,-2.2445,-2.2975,-2.3108,-2.3108,-2.3108,-2.3108,-2.3108,-2.3108,-2.3108,-2.3108,-2.3108,-2.3108,-2.3108,0.0,0.0,0.0,0.0,-2.3108,-2.3108,-2.3108,-2.3108,-2.3108,-2.3108,-2.3826,-2.4292,-2.4292,-2.5231,-2.6184,-2.7101,-2.7617,-2.8584,-3.0133,-3.0387,-3.0808,-3.1496,-3.1511,-3.1511,-3.1511,-3.1511,-3.1511,-3.1511,-3.1511,-3.1511,-3.1511,-3.1511,-3.2029,-3.3027,-3.4208,-3.5208,-3.6169,-3.7616,-3.8469,-3.8908,-3.8908,-3.9086,-3.9511,-1.8076,-1.8076,-1.8076,-1.8076,-1.8057,-1.8037,-1.8037,-1.8057,-1.8213,-1.8578,-1.8627,-1.8792,-1.9238,-1.9287,-1.9287,-1.9287,-1.887,-1.8627,-1.8627,-1.8237,-1.8037,-1.8037,-1.7157,-1.7104,-1.7974,-1.7139,-1.7104,-1.8008,-1.7607,-1.7445,0.0,0.0,0.0,0.0,-1.7832,-1.8008,-1.8008,-1.8008,-1.8008,-1.8134,-1.9011,-1.9365,-1.9464,-2.0333,-2.0139,-1.9529,-2.0365,-2.1239,-2.1951,-2.1951,-2.25,-2.3145,-2.3145,-2.3158,-2.3183,-2.3183,-2.3183,-2.3183,-2.3183,-2.3183,-2.3183,-2.3183,-2.3183,-2.3183,-2.3158,-2.3145,-2.3145,-2.3108,-2.3108,-2.3108,-2.3108,-2.3108,-2.3108,0.0,0.0,0.0,-2.3108,-2.3108,-2.3108,-2.3108,-2.3138,-2.3125,-2.3108,-2.3855,-2.435,-2.435,-2.5728,-2.6563,-2.6563,-2.7809,-2.8861,-2.9592,-3.0148,-3.0806,-3.1496,-3.1511,-3.1511,-3.1511,-3.1511,-3.1511,-3.1511,-3.1511,-3.1511,-3.1511,-3.1569,-3.2433,-3.3827,-3.4571,-3.567,-3.7026,-3.8412,-3.8962,-3.8962,-3.8962,-3.9454,-4.0265,-1.8965,-1.8965,-1.8965,-1.8965,-1.8691,-1.8442,-1.8442,-1.875,-1.8994,-1.9102,-1.9121,-1.916,-1.9277,-1.9287,-1.9287,-1.9287,-1.9189,-1.9121,-1.9121,-1.8721,-1.8442,-1.8442,-1.7923,-1.7759,-1.7974,-1.7759,-1.7759,-1.8008,-1.79,-1.7852,-1.7852,0.0,0.0,0.0,-1.7959,-1.8008,-1.8008,-1.8008,-1.8361,-1.9044,-1.9911,-2.0268,-2.0365,-2.1227,-2.1428,-2.127,-2.1491,-2.2094,-2.2793,-2.2793,-2.3231,-2.3778,-2.3778,-2.4023,-2.4362,-2.4362,-2.4362,-2.4362,-2.4362,-2.4362,-2.4362,-2.4362,-2.4362,-2.4249,-2.3866,-2.3778,-2.3653,-2.3195,-2.3108,-2.3108,-2.3108,-2.3108,-2.3108,-2.3108,-2.3108,-2.3108,-2.3108,-2.3108,-2.3108,-2.3108,-2.3632,-2.3767,-2.3168,-2.4323,-2.5119,-2.5119,-2.6481,-2.7331,-2.7331,-2.7663,-2.8393,-2.9577,-2.9756,-3.0372,-3.1496,-3.1511,-3.1511,-3.1511,-3.1511,-3.1511,-3.1511,-3.1511,-3.1511,-3.1554,-3.2652,-3.3633,-3.4587,-3.6414,-3.7628,-3.8455,-3.9423,-3.9782,-3.9782,-3.9782,-4.0281,-4.1018,-1.9287,-1.9287,-1.9287,-1.9287,-1.9238,-1.9095,-1.8909,-1.9131,-1.9355,-1.9541,-1.9561,-1.9629,-1.9862,-1.9881,-1.9881,-1.9881,-1.9668,-1.9561,-1.9561,-1.916,-1.8926,-1.8926,-1.8471,-1.8247,-1.8247,-1.8105,-1.8008,-1.8008,-1.8008,-1.8008,-1.8008,0.0,0.0,0.0,-1.8008,-1.8008,-1.8008,-1.8395,-1.8854,-1.9398,-2.0655,-2.1302,0.0,-2.2486,-2.2957,-2.3164,-2.3164,-2.33,-2.3521,-2.376,-2.4061,-2.4356,-2.4356,-2.4569,-2.4788,-2.4788,-2.4788,-2.4788,-2.4788,-2.4788,-2.4788,-2.4788,-2.4788,-2.4713,-2.4431,-2.4356,-2.4205,-2.3597,-2.3484,-2.3409,-2.3145,-2.3108,-2.3108,-2.3108,-2.3108,-2.3108,-2.3108,-2.3108,-2.3108,-2.3108,-2.3514,-2.375,-2.3619,-2.4993,-2.5864,-2.5864,-2.6956,-2.76,-2.76,-2.76,-2.8214,-2.9562,-2.9606,-3.0208,-3.1496,-3.1511,-3.1511,-3.1511,-3.1511,-3.1511,-3.1511,-3.1511,-3.1697,-3.2053,-3.3215,-3.4427,-3.5742,-3.7337,-3.8553,-3.9463,-3.9927,-4.0096,-4.0146,-4.0468,-4.0832,-4.1322,-1.9453,-1.9453,-1.9453,-1.9453,-1.9756,-1.9873,-1.9512,-1.9453,-1.959,-1.9951,-2.0,-2.0146,-2.0566,-2.0605,-2.0605,-2.0605,-2.0215,-2.0,-2.0,-1.96,-1.9365,-1.9365,-1.8955,-1.8685,-1.8685,-1.8276,-1.8086,-1.8086,-1.8037,-1.8008,0.0,0.0,0.0,-1.8008,-1.8008,-1.8076,-1.8236,-1.911,-1.9561,-1.9878,-2.1533,-2.2495,-2.3059,-2.3809,-2.4406,-2.48,-2.4863,-2.4569,-2.418,-2.4625,-2.4838,-2.4888,-2.4888,-2.4938,-2.5034,-2.5034,-2.5034,-2.5034,-2.5034,-2.5034,-2.5034,-2.5034,-2.5034,-2.4988,-2.4913,-2.4888,-2.4738,-2.4217,-2.4054,-2.3841,-2.3308,-2.3248,-2.3258,-2.3258,-2.3258,-2.3305,-2.3395,-2.3335,-2.3305,-2.3382,-2.3501,0.0,-2.4509,-2.5646,-2.6404,-2.6484,-2.7163,-2.76,-2.76,-2.7675,-2.8304,-2.9577,-2.9696,-3.0298,-3.1496,-3.1511,-3.1511,-3.1511,-3.1511,-3.1553,-3.164,-3.164,-3.2081,-3.2921,-3.374,-3.5177,-3.7025,-3.7904,-3.9007,-4.0096,-4.0096,-4.0163,-4.0333,-4.0967,-4.1322,-4.1593,-2.038,-2.038,-2.038,-2.038,-2.0439,-2.0458,-2.039,-2.038,-2.041,-2.0478,-2.0488,-2.0517,-2.0595,-2.0605,-2.0605,-2.0605,-2.0537,-2.0488,-2.0488,-2.0049,-1.9805,-1.9805,-1.9394,-1.918,-1.918,-1.875,-1.849,-1.849,-1.8149,-1.8008,0.0,0.0,-1.8008,-1.8008,-1.8008,-1.8395,-1.9144,-2.0009,-2.1052,-2.2186,-2.3222,-2.3947,-2.4432,-2.4605,-2.4713,-2.485,-2.531,-2.5121,-2.4662,-2.4763,-2.5109,-2.546,-2.546,-2.5787,-2.621,-2.621,-2.621,-2.621,-2.621,-2.621,-2.621,-2.621,-2.621,-2.6084,-2.5573,-2.546,-2.531,-2.4782,-2.4318,-2.3966,-2.3866,-2.3983,-2.4089,-2.4089,-2.4089,-2.4308,-2.4922,-2.4481,-2.4308,-2.4922,-2.5522,-2.5946,-2.6095,-2.5783,-2.5837,-2.6457,-2.7163,-2.76,-2.76,-2.8113,-2.8786,-2.9592,-3.0073,-3.0731,-3.1496,-3.1511,-3.1511,-3.1511,-3.1511,-3.1824,-3.241,-3.241,-3.31,-3.4404,-3.5685,-3.6852,-3.7885,-3.9193,-3.9876,-4.0096,-4.0096,-4.046,-4.1018,-4.1153,-4.1982,-4.302,-2.0869,-2.0908,-2.0986,-2.1211,-2.129,-2.129,-2.129,-2.129,-2.1124,-2.0664,-2.0605,-2.0605,-2.0605,-2.0605,-2.0605,-2.0605,-2.0605,-2.0605,-2.0605,-2.041,-2.0254,-2.0254,-1.9834,-1.9609,-1.9609,-1.9199,-1.8975,-1.8975,-1.8545,-1.8295,-1.8295,-1.8115,-1.8008,-1.8018,-1.8771,-1.9328,-1.98,-2.1405,-2.2503,-2.3197,-2.4055,-2.4745,-2.5222,-2.5222,-2.541,-2.5699,-2.5984,-2.5921,-2.5674,-2.5674,-2.5837,-2.6084,-2.6084,-2.6273,-2.6499,-2.6499,-2.6499,-2.6499,-2.6499,-2.6499,-2.6499,-2.6499,-2.6499,-2.6424,-2.6135,-2.6084,-2.5887,-2.5335,-2.5351,-2.5441,-2.5285,-2.5041,-2.4879,-2.4879,-2.4879,-2.4979,-2.5342,-2.5091,-2.5007,-2.537,-2.5701,-2.6095,-2.6457,-2.6176,-2.6283,-2.7023,-2.7408,-2.76,-2.76,-2.8233,-2.8906,-2.9592,-3.0178,-3.0808,-3.1496,-3.1511,-3.1511,-3.1496,-3.1881,-3.2244,-3.2629,-3.3379,-3.4255,-3.5301,-3.6772,-3.7858,-3.8606,-3.9665,-4.0096,-4.0096,-4.0096,-4.0544,-4.1255,-4.1627,-4.2472,-4.3392,-2.1309,-2.1327,-2.1484,-2.1826,-2.1885,-2.1885,-2.1885,-2.1885,-2.1631,-2.0977,-2.0889,-2.085,-2.0752,-2.0752,-2.0713,-2.0615,-2.0605,-2.0605,-2.0605,-2.0605,-2.0605,-2.0605,-2.0234,-2.0049,-2.0049,-1.9639,-1.9424,-1.9424,-1.8948,-1.8695,-1.8598,-1.8398,-1.8385,-1.866,-1.997,-2.0642,-2.0936,-2.2746,-2.3673,-2.4014,-2.471,-2.531,-2.5774,-2.5774,-2.6097,-2.6499,-2.6499,-2.6499,-2.6499,-2.6499,-2.6499,-2.6499,-2.6499,-2.6499,-2.6499,-2.6499,-2.6499,-2.6499,-2.6499,-2.6499,-2.6499,-2.6499,-2.6499,-2.6499,-2.6499,-2.6499,-2.6429,-2.613,-2.6667,-2.701,-2.6501,-2.6106,-2.5799,-2.5674,-2.5618,-2.5673,-2.5837,-2.5728,-2.5701,-2.5864,-2.5864,-2.6108,-2.6695,-2.6747,-2.6982,-2.7575,-2.76,-2.766,-2.7809,-2.8442,-2.9101,-2.9786,-3.0387,-3.0957,-3.1496,-3.1511,-3.1582,-3.1739,-3.2327,-3.2749,-3.3071,-3.4334,-3.5359,-3.6232,-3.7626,-3.8589,-3.9276,-3.9859,-4.0096,-4.013,-4.0282,-4.0781,-4.1525,-4.2252,-4.3014,-4.3673,-2.1816,-2.1826,-2.1836,-2.1875,-2.1885,-2.1885,-2.1885,-2.1885,-2.1855,-2.1768,-2.1758,-2.1611,-2.1171,-2.1132,-2.1006,-2.0635,-2.0605,-2.0605,-2.0605,-2.0605,-2.0605,-2.0605,-2.0566,-2.0546,-2.0546,-2.0078,-1.9853,-1.9853,-1.9434,-1.9023,-1.8607,-1.9004,-1.9655,-2.0593,-2.1556,-2.2434,-2.3197,-2.3411,-2.4256,-2.5423,-2.549,-2.5862,-2.6411,-2.6411,-2.6449,-2.6499,-2.6499,-2.6499,-2.6499,-2.6499,-2.6499,-2.6499,-2.6499,-2.6499,-2.6499,-2.6499,-2.6499,-2.6499,-2.6499,-2.6499,-2.6499,-2.6499,-2.6499,-2.6499,-2.6499,-2.6499,-2.6701,-2.7372,-2.7799,-2.7732,-2.6617,-2.6876,-2.7091,-2.649,-2.6404,-2.6642,-2.7306,-2.6826,-2.6642,-2.7316,-2.7382,-2.7408,-2.7484,-2.7484,-2.7524,-2.76,-2.76,-2.7869,-2.8472,-2.9131,-2.9774,-3.0402,-3.1047,-3.1436,-3.1511,-3.1511,-3.1853,-3.2492,-3.2559,-3.3251,-3.4423,-3.5235,-3.6372,-3.7742,-3.856,-3.931,-4.0011,-4.0079,-4.0096,-4.018,-4.0832,-4.1542,-4.2286,-4.3031,-4.3809,-4.4496,-2.2207,-2.2266,-2.2344,-2.2598,-2.2637,-2.2637,-2.2637,-2.2637,-2.2637,-2.2637,-2.2197,-2.1816,-2.1641,-2.1621,-2.1445,-2.1006,-2.0967,-2.0859,-2.0625,-2.1116,-2.1441,-2.1441,-2.2,-2.2339,-2.2339,-2.2158,-2.2051,-2.2051,-2.1057,-2.0457,-2.0283,-2.0237,-2.0719,-2.1689,-2.2903,-2.3659,-2.4034,-2.4939,-2.5629,-2.6147,-2.6147,-2.6285,-2.6499,-2.6499,-2.6499,-2.6499,-2.6499,-2.6499,-2.6499,-2.6499,-2.6499,-2.6499,-2.6499,-2.6499,-2.6499,-2.6499,-2.6499,-2.6499,-2.6499,-2.6499,-2.6499,-2.6499,-2.685,-2.7229,-2.7229,-2.7604,-2.8084,-2.8395,-2.8674,-2.8867,-2.8855,-2.8477,-2.8078,-2.7786,-2.7417,-2.7255,-2.7575,-2.7357,-2.728,-2.756,-2.76,-2.76,-2.76,-2.76,-2.76,-2.76,-2.76,-2.7899,-2.8562,-2.922,-2.9864,-3.0477,-3.1152,-3.1511,-3.1511,-3.1923,-3.2299,-3.2629,-3.3417,-3.4314,-3.5292,-3.6478,-3.7816,-3.9225,-3.9537,-3.9842,-4.0096,-4.0096,-4.0367,-4.0781,-4.1085,-4.1931,-4.3014,-4.3274,-4.391,-4.4615,-2.2637,-2.2695,-2.275,-2.3042,-2.3091,-2.3091,-2.3091,-2.3091,-2.3091,-2.3091,-2.2627,-2.2207,-2.209,-2.207,-2.1894,-2.1465,-2.1426,-2.124,-2.0791,-2.1683,-2.2136,-2.2,-2.2962,-2.3514,-2.3514,-2.3514,-2.3514,-2.3514,-2.2513,-2.1957,-2.1854,-2.183,-2.2245,-2.3064,-2.4359,-2.4951,-2.501,-2.6058,-2.6499,-2.6499,-2.6499,-2.6499,-2.6499,-2.6499,-2.6499,-2.6499,-2.6499,-2.6499,-2.6499,-2.6499,-2.6499,-2.6499,-2.6499,-2.6499,-2.6499,-2.6499,-2.6499,-2.6555,-2.6782,-2.685,-2.6905,-2.7162,-2.767,-2.8084,-2.8084,-2.8556,-2.9066,-2.9317,-2.9698,-3.006,-3.0425,-2.9774,-2.9041,-2.8667,-2.8188,-2.7824,-2.763,-2.76,-2.76,-2.76,-2.76,-2.76,-2.76,-2.7779,-2.7899,-2.7899,-2.8079,-2.8393,-2.8861,-2.9535,-3.0277,-3.1097,-3.1762,-3.2132,-3.2132,-3.2625,-3.2986,-3.3182,-3.4373,-3.5307,-3.6065,-3.7562,-3.8903,-4.0096,-4.0096,-4.0096,-4.013,-4.0333,-4.073,-4.1255,-4.1694,-4.2462,-4.3426,-4.3673,-4.4113,-4.4615,-2.3081,-2.3091,-2.3091,-2.3091,-2.3091,-2.3091,-2.3091,-2.3091,-2.3091,-2.3091,-2.3081,-2.2925,-2.2549,-2.251,-2.2334,-2.1914,-2.1875,-2.1689,-2.121,-2.2124,-2.2471,-2.201,-2.2962,-2.3514,-2.3514,-2.3514,-2.3514,-2.3514,-2.3478,-2.3268,-2.2915,-2.3827,-2.4527,-2.5028,-2.6013,-2.6487,-2.6487,-2.6487,-2.6499,-2.6499,-2.6499,-2.6499,-2.6499,-2.6499,-2.6499,-2.6499,-2.6499,-2.6499,-2.6499,-2.6499,-2.6499,-2.6499,-2.6499,-2.6499,-2.6499,-2.6499,-2.6499,-2.6692,-2.7484,-2.7703,-2.7887,-2.8748,-2.8971,-2.8971,-2.8971,-2.9002,-2.9254,-3.0103,-3.0925,-3.1286,-3.0627,-3.0492,-3.0073,-2.8801,-2.8592,-2.8353,-2.769,-2.76,-2.76,-2.76,-2.76,-2.76,-2.76,-2.8188,-2.8592,-2.8592,-2.919,-2.9592,-2.9592,-3.0232,-3.1197,-3.254,-3.3235,-3.3556,-3.3556,-3.3582,-3.3912,-3.4592,-3.5341,-3.608,-3.684,-3.8294,-3.9402,-4.0096,-4.0096,-4.0096,-4.0163,-4.0882,-4.1187,-4.1356,-4.2784,-4.3375,-4.3494,-4.4282,-4.4598,-4.4615,-2.3584,-2.3305,-2.3091,-2.3091,-2.3091,-2.3091,-2.3091,-2.3091,-2.3091,-2.3091,-2.3091,-2.3042,-2.2916,-2.2896,-2.2773,-2.2344,-2.2314,-2.2139,-2.1709,-2.2958,-2.3656,-2.3503,-2.48,-2.5534,-2.5534,-2.5534,-2.5534,-2.5534,-2.485,-2.4446,-2.4319,-2.4637,-2.5237,-2.6025,-2.6349,-2.6499,-2.6499,-2.6499,-2.6499,-2.6499,-2.6499,-2.6499,-2.6499,-2.6499,-2.6499,-2.6499,-2.6499,-2.6499,-2.6499,-2.6499,-2.685,-2.7317,-2.7317,-2.7317,-2.7317,-2.7317,-2.7736,-2.8279,-2.8524,-2.8588,-2.8652,-2.8939,-2.9442,-2.9889,-2.9889,-3.0299,-3.0777,-3.1058,-3.1322,-3.1436,-3.1212,-3.0821,-3.0372,-2.9968,-2.9175,-2.8532,-2.8308,-2.7899,-2.76,-2.76,-2.76,-2.7779,-2.8233,-2.8472,-2.8786,-2.9235,-2.9905,-3.0472,-3.0937,-3.1175,-3.1904,-3.3245,-3.3495,-3.3582,-3.3582,-3.4062,-3.4628,-3.5358,-3.6117,-3.7114,-3.8335,-3.9317,-3.9893,-4.0096,-4.0096,-4.0096,-4.0163,-4.0899,-4.1508,-4.2049,-4.3003,-4.3741,-4.4231,-4.4513,-4.4615,-4.4615,-2.4023,-2.3809,-2.3578,-2.3578,-2.3442,-2.3379,-2.3379,-2.3198,-2.3091,-2.3091,-2.3091,-2.3091,-2.3091,-2.3091,-2.3148,-2.3343,-2.3355,-2.3375,-2.3381,-2.463,-2.5299,-2.5115,-2.6189,-2.6801,-2.6801,-2.66,-2.6499,-2.6499,-2.5873,-2.5558,-2.5558,-2.5558,-2.5908,-2.6499,-2.6499,-2.6499,-2.6499,-2.6499,-2.6499,-2.6499,-2.6499,-2.6499,-2.6499,-2.6499,-2.6499,-2.6499,-2.6499,-2.6499,-2.6555,-2.685,-2.7297,-2.7769,-2.8084,-2.8395,-2.862,-2.8266,-2.8556,-2.9066,-2.9411,-2.9473,-2.9566,-2.9858,-3.0359,-3.0748,-3.0748,-3.1161,-3.1511,-3.1511,-3.1511,-3.1511,-3.1511,-3.1152,-3.0806,-3.0552,-2.9834,-2.9146,-2.8667,-2.8233,-2.7884,-2.763,-2.7824,-2.8128,-2.8562,-2.929,-2.9902,-3.0312,-3.1197,-3.2025,-3.2682,-3.2485,-3.2837,-3.393,-3.4211,-3.435,-3.435,-3.5081,-3.5654,-3.6121,-3.7148,-3.8268,-3.9436,-3.9893,-4.0096,-4.0096,-4.0096,-4.0265,-4.0561,-4.1305,-4.2049,-4.2794,-4.3555,-4.4147,-4.4615,-4.4615,-4.4615,-4.4615,-2.4463,-2.4443,-2.4414,-2.4414,-2.4092,-2.3838,-2.3838,-2.3467,-2.314,-2.314,-2.3198,-2.3222,-2.3222,-2.3309,-2.38,-2.4914,-2.4872,-2.5112,-2.5811,-2.6776,-2.7124,-2.6673,-2.7089,-2.7379,-2.7379,-2.6839,-2.6537,-2.6499,-2.6499,-2.6499,-2.6499,-2.6499,-2.6499,-2.6499,-2.6499,-2.6499,-2.6499,-2.6499,-2.6499,-2.6499,-2.6499,-2.6499,-2.6499,-2.6499,-2.6521,-2.6589,-2.6589,-2.6624,-2.6782,-2.7537,-2.7835,-2.8019,-2.8844,-2.969,-3.0208,-2.9348,-2.9129,-2.9348,-3.0178,-3.0389,-3.0554,-3.1307,-3.1511,-3.1511,-3.1511,-3.1511,-3.1511,-3.1511,-3.1511,-3.1511,-3.1511,-3.1511,-3.1301,-3.0672,-3.0537,-3.0088,-2.8906,-2.8697,-2.8427,-2.7809,-2.8304,-2.8708,-2.8805,-3.0486,-3.1647,-3.1747,-3.2948,-3.3937,-3.4576,-3.4044,-3.4018,-3.4631,-3.5276,-3.5616,-3.5667,-3.6417,-3.6846,-3.6981,-3.8403,-3.9453,-4.0096,-4.0096,-4.0096,-4.0096,-4.0146,-4.0561,-4.1271,-4.2049,-4.2777,-4.3477,-4.4282,-4.4615,-4.4615,-4.4615,-4.4615,-4.4615,-2.4912,-2.4648,-2.4414,-2.4414,-2.4336,-2.4268,-2.4268,-2.3906,-2.3633,-2.3633,-2.4099,-2.4414,-2.4414,-2.5179,-2.613,-2.7215,-2.5775,-2.5241,-2.6263,-2.6934,-2.7252,-2.7133,-2.7619,-2.7908,-2.7908,-2.7369,-2.6914,-2.6499,-2.6499,-2.6499,-2.6499,-2.6499,-2.6499,-2.6499,-2.6499,-2.6499,-2.6499,-2.6499,-2.6499,-2.6499,-2.6499,-2.6499,-2.6499,-2.6499,-2.6871,-2.7417,-2.7417,-2.7835,-2.8427,-2.862,-2.9129,-2.9721,-2.9919,-3.0554,-3.1058,-3.0238,-3.0419,-3.097,-3.1161,-3.1219,-3.1248,-3.1438,-3.1511,-3.1511,-3.1511,-3.1511,-3.1511,-3.1511,-3.1511,-3.1511,-3.1511,-3.1511,-3.1451,-3.1286,-3.0823,-3.0387,-3.0088,-2.9639,-2.928,-2.9157,-2.9277,-2.9776,-3.0791,-3.1314,-3.2003,-3.3054,-3.389,-3.4431,-3.4576,-3.4931,-3.52,-3.5362,-3.5515,-3.5887,-3.6524,-3.6711,-3.7371,-3.8481,-3.9402,-3.9943,-4.0096,-4.0096,-4.0096,-4.013,-4.0696,-4.1035,-4.1305,-4.2608,-4.3223,-4.3477,-4.4282,-4.4615,-4.4615,-4.4615,-4.4615,-4.4615,-2.6967,-2.6852,-2.6675,-2.6675,-2.6543,-2.6235,-2.5604,-2.5184,-2.483,-2.4583,-2.4856,-2.52,-2.5526,-2.6141,-2.6924,-2.8016,-2.7012,-2.6778,-2.7919,-2.8264,-2.8458,-2.8458,-2.8462,-2.8486,-2.8486,-2.7946,-2.7394,-2.6876,-2.6876,-2.6738,-2.6499,-2.6499,-2.6499,-2.6499,-2.6499,-2.6499,-2.6499,-2.6499,-2.6499,-2.6499,-2.6499,-2.6714,-2.704,-2.704,-2.7571,-2.8298,-2.8298,-2.8588,-2.9066,-2.9473,-2.9919,-3.0359,-3.0748,-3.1161,-3.1409,-3.097,-3.1161,-3.1511,-3.1511,-3.1511,-3.1511,-3.1511,-3.1511,-3.1511,-3.1511,-3.1511,-3.1511,-3.1511,-3.1511,-3.1511,-3.1511,-3.1511,-3.1511,-3.1511,-3.1197,-3.0838,-3.0552,-3.0223,-2.9894,-2.9636,-2.9834,-3.0419,-3.1495,-3.2144,-3.2927,-3.398,-3.4664,-3.5052,-3.5052,-3.5385,-3.56,-3.56,-3.596,-3.6349,-3.6795,-3.7472,-3.8386,-3.952,-3.991,-4.0096,-4.0096,-4.0096,-4.0282,-4.0612,-4.1035,-4.1593,-4.2286,-4.3054,-4.3639,-4.3995,-4.4445,-4.4615,-4.4615,-4.4615,-4.4615,-4.4615,-2.9177,-2.9407,-2.9407,-2.9407,-2.9116,-2.8532,-2.7441,-2.6945,-2.6498,-2.5983,-2.5923,-2.6151,-2.6794,-2.6928,-2.7371,-2.8267,-2.8347,-2.8767,-2.9753,-2.9792,-2.9792,-2.9792,-2.9315,-2.9026,-2.9026,-2.8511,-2.7959,-2.7406,-2.7406,-2.7165,-2.6612,-2.6612,-2.6575,-2.6499,-2.6499,-2.6499,-2.6499,-2.6499,-2.6499,-2.6499,-2.6624,-2.7095,-2.7703,-2.7855,-2.8427,-2.9192,-2.9192,-2.9341,-2.9645,-3.0382,-3.0697,-3.0905,-3.1575,-3.1795,-3.1795,-3.1795,-3.1795,-3.1765,-3.1555,-3.1511,-3.1511,-3.1511,-3.1511,-3.1511,-3.1511,-3.1511,-3.1511,-3.1511,-3.1511,-3.1511,-3.1511,-3.1511,-3.1511,-3.1511,-3.1511,-3.1301,-3.0746,-3.0657,-3.0462,-2.9939,-3.0438,-3.1113,-3.1824,-3.3016,-3.4037,-3.4712,-3.5276,-3.565,-3.5769,-3.5769,-3.5819,-3.5938,-3.6502,-3.6914,-3.7134,-3.8464,-3.9486,-4.0096,-4.0096,-4.0096,-4.0096,-4.0231,-4.0595,-4.1221,-4.1441,-4.2226,-4.3392,-4.3511,-4.3978,-4.4615,-4.4615,-4.4615,-4.4615,-4.4615,-4.4615,-4.4615,-2.9177,-2.9407,-2.9407,-2.9407,-2.9351,-2.9249,-2.902,-2.8655,-2.8366,-2.8288,-2.8317,-2.8421,-2.8516,-2.8967,-2.9339,-2.9534,-2.9534,-2.9624,-2.9792,-2.9792,-2.9792,-2.9792,-2.9704,-2.9654,-2.9654,-2.9101,-2.8499,-2.7971,-2.7971,-2.7695,-2.719,-2.719,-2.6939,-2.6499,-2.6499,-2.6499,-2.6499,-2.6499,-2.6499,-2.6555,-2.7229,-2.7571,-2.7769,-2.8524,-2.9348,-3.0103,-3.0103,-3.0903,-3.1974,-3.2109,-3.2526,-3.3033,-3.3155,-3.3185,-3.3185,-3.3185,-3.3185,-3.2946,-3.1809,-3.1511,-3.1511,-3.1511,-3.1511,-3.1511,-3.1511,-3.1511,-3.1511,-3.1511,-3.1511,-3.1511,-3.1511,-3.1511,-3.1511,-3.1511,-3.1511,-3.1466,-3.1361,-3.1346,-3.1316,-3.1212,-3.185,-3.2551,-3.3232,-3.3997,-3.4712,-3.5385,-3.5538,-3.591,-3.6592,-3.6626,-3.6891,-3.751,-3.7043,-3.7405,-3.8633,-3.9503,-3.9994,-4.0096,-4.0096,-4.0096,-4.013,-4.0747,-4.1085,-4.1271,-4.2513,-4.3172,-4.3443,-4.413,-4.4496,-4.4615,-4.4615,-4.4615,-4.4615,-4.4615,-4.4615,-4.4615,-3.1146,-3.138,-3.138,-3.138,-3.138,-3.1146,-3.0451,-3.0209,-3.001,-2.9688,-2.9432,-2.9409,-2.9768,-2.9818,-2.9792,-2.9792,-2.9792,-2.9792,-2.9792,-2.9792,-2.9792,-2.9792,-2.9792,-2.9792,-2.9792,-2.9528,-2.9114,-2.8512,-2.8512,-2.8273,-2.772,-2.772,-2.769,-2.7588,-2.7588,-2.7691,-2.7855,-2.7855,-2.7855,-2.7887,-2.8247,-2.8862,-2.9618,-3.0031,-3.096,-3.203,-3.203,-3.245,-3.3036,-3.3036,-3.3245,-3.3499,-3.3499,-3.3499,-3.3499,-3.3499,-3.3499,-3.3365,-3.2766,-3.2303,-3.2034,-3.2034,-3.1765,-3.1511,-3.1511,-3.1511,-3.1511,-3.1511,-3.1511,-3.1511,-3.1511,-3.1511,-3.1511,-3.1511,-3.1511,-3.1511,-3.1511,-3.1511,-3.1511,-3.1511,-3.2132,-3.2868,-3.3531,-3.4211,-3.4894,-3.5538,-3.6011,-3.64,-3.6778,-3.7161,-3.7736,-3.8464,-3.8142,-3.8505,-3.9588,-3.9943,-4.0096,-4.0096,-4.0096,-4.0316,-4.0696,-4.1035,-4.1644,-4.2439,-4.3088,-4.3656,-4.4079,-4.4462,-4.4615,-4.4615,-4.4615,-4.4615,-4.4615,-4.4615,-4.4615,-4.4615,-3.284,-3.3124,-3.3124,-3.3124,-3.3124,-3.2754,-3.1777,-3.1633,-3.1488,-3.1079,-3.0573,-3.0348,-3.0726,-3.0306,-2.993,-2.9804,-2.9792,-2.9792,-2.9792,-2.9792,-2.9792,-2.9792,-2.9792,-2.9792,-2.9792,-2.9792,-2.9578,-2.9126,-2.9126,-2.885,-2.8298,-2.8542,-2.8666,-2.8718,-2.8991,-2.9206,-2.9449,-2.9449,-2.9449,-2.9481,-2.9672,-3.0428,-3.1454,-3.1642,-3.2472,-3.3499,-3.3499,-3.3589,-3.3724,-3.3724,-3.3829,-3.3963,-3.3963,-3.3963,-3.3963,-3.3963,-3.3963,-3.3903,-3.3574,-3.3125,-3.2736,-3.2736,-3.2333,-3.1914,-3.1765,-3.1735,-3.169,-3.154,-3.1511,-3.1511,-3.1511,-3.1511,-3.1511,-3.1511,-3.1511,-3.1511,-3.1511,-3.1511,-3.1553,-3.1754,-3.2394,-3.3093,-3.3761,-3.4619,-3.5318,-3.583,-3.6603,-3.7134,-3.7303,-3.7838,-3.8481,-3.9225,-3.9242,-3.9537,-4.0096,-4.0096,-4.0096,-4.0096,-4.0282,-4.0646,-4.1221,-4.1559,-4.2337,-4.3409,-4.3606,-4.4028,-4.4615,-4.4615,-4.4615,-4.4615,-4.4615,-4.4615,-4.4615,-4.4615,-4.4615,-4.4615,-3.284,-3.3124,-3.3124,-3.3124,-3.3124,-3.3068,-3.2982,-3.2939,-3.297,-3.2932,-3.2376,-3.1855,-3.1386,-3.0871,-3.0357,-2.9829,-2.9792,-2.9792,-2.9792,-2.9792,-2.9792,-2.9792,-2.9792,-2.9792,-2.9792,-2.9792,-2.9779,-2.9729,-2.9729,-2.9428,-2.8863,-2.98,-2.9944,-2.9455,-3.0392,-3.0835,-3.086,-3.086,-3.086,-3.0907,-3.1675,-3.204,-3.2211,-3.301,-3.3378,-3.3499,-3.3499,-3.3888,-3.4444,-3.4444,-3.4831,-3.5355,-3.5355,-3.5355,-3.5355,-3.5355,-3.5355,-3.5085,-3.3844,-3.3455,-3.3425,-3.3425,-3.338,-3.3185,-3.2587,-3.2437,-3.2243,-3.163,-3.1511,-3.1511,-3.1511,-3.1511,-3.1511,-3.1511,-3.1511,-3.1511,-3.1511,-3.1511,-3.1739,-3.2437,-3.3119,-3.3786,-3.4455,-3.582,-3.6664,-3.6711,-3.7398,-3.8125,-3.8785,-3.8886,-3.9242,-3.9994,-4.0028,-4.0045,-4.0096,-4.0096,-4.0096,-4.0113,-4.0781,-4.1153,-4.1255,-4.2598,-4.3291,-4.3426,-4.4181,-4.4564,-4.4615,-4.4615,-4.4615,-4.4615,-4.4615,-4.4615,-4.4615,-4.4615,-4.4615,-4.4615,-3.2982,-3.3124,-3.3124,-3.3124,-3.3124,-3.3124,-3.3124,-3.3124,-3.3124,-3.3124,-3.2566,-3.2001,-3.1449,-3.0922,-3.0394,-2.9842,-2.9792,-2.9792,-2.9792,-2.9792,-2.9792,-2.9792,-2.9792,-2.9792,-2.9792,-2.9792,-2.9792,-2.9792,-3.0381,-3.0541,-3.0358,-3.1324,-3.1748,-3.1766,-3.215,-3.2385,-3.2553,-3.2553,-3.2553,-3.2584,-3.2882,-3.3258,-3.3644,-3.3989,-3.4367,-3.4741,-3.4741,-3.4906,-3.5115,-3.5115,-3.5295,-3.5504,-3.5504,-3.5504,-3.5504,-3.5504,-3.5504,-3.54,-3.4876,-3.4427,-3.4098,-3.4098,-3.3799,-3.3425,-3.3185,-3.3125,-3.2931,-3.2243,-3.2108,-3.1989,-3.1585,-3.1511,-3.1511,-3.1511,-3.1511,-3.1668,-3.212,-3.216,-3.2449,-3.3145,-3.4214,-3.5004,-3.5268,-3.6621,-3.7483,-3.7483,-3.8159,-3.87,-3.8988,-3.9411,-3.9808,-4.0096,-4.0096,-4.0096,-4.0096,-4.0096,-4.0333,-4.0781,-4.1068,-4.1694,-4.2564,-4.3139,-4.3673,-4.4147,-4.4479,-4.4615,-4.4615,-4.4615,-4.4615,-4.4615,-4.4615,-4.4615,-4.4615,-4.4615,-4.4615,-4.4615,-3.3124,-3.3124,-3.3124,-3.3124,-3.3124,-3.3124,-3.3124,-3.3124,-3.3124,-3.3124,-3.2729,-3.2202,-3.1474,-3.1072,-3.057,-2.9854,-2.9792,-2.9792,-2.9792,-2.9792,-2.9792,-2.9792,-2.9792,-2.9792,-2.9792,-3.0113,-3.0241,-3.0241,-3.118,-3.1646,-3.1669,-3.2593,-3.3168,-3.3389,-3.3703,-3.3942,-3.4128,-3.4128,-3.4128,-3.4128,-3.4128,-3.4397,-3.4801,-3.4801,-3.51,-3.5504,-3.5504,-3.5504,-3.5504,-3.5504,-3.5504,-3.5504,-3.5504,-3.5504,-3.5504,-3.5504,-3.5504,-3.5504,-3.5504,-3.516,-3.4801,-3.4801,-3.4457,-3.4068,-3.3844,-3.3799,-3.3619,-3.2961,-3.2826,-3.2677,-3.2198,-3.2123,-3.2123,-3.2123,-3.2343,-3.2659,-3.3181,-3.3455,-3.3857,-3.4523,-3.5471,-3.615,-3.6356,-3.753,-3.8261,-3.8261,-3.892,-3.9368,-3.9368,-3.9842,-4.0096,-4.0096,-4.0096,-4.0214,-4.0426,-4.0468,-4.0696,-4.1221,-4.1677,-4.2439,-4.3392,-4.3673,-4.4079,-4.4615,-4.4615,-4.4615,-4.4615,-4.4615,-4.4615,-4.4615,-4.4615,-4.4615,-4.4615,-4.4615,-4.4615,-4.4615,-3.3124,-3.3124,-3.3124,-3.3124,-3.3124,-3.3124,-3.3124,-3.3124,-3.3124,-3.3124,-3.3124,-3.2696,-3.1512,-3.1386,-3.0959,-2.988,-2.9792,-2.9792,-2.9792,-2.9792,-2.9792,-2.9792,-2.9792,-2.9792,-2.9792,-3.0733,-3.1217,-3.1217,-3.2141,-3.2593,-3.2629,-3.3567,-3.4027,-3.4061,-3.5052,-3.5504,-3.5504,-3.5504,-3.5504,-3.5504,-3.5504,-3.5504,-3.5504,-3.5504,-3.5504,-3.5504,-3.5504,-3.5504,-3.5504,-3.5504,-3.5504,-3.5504,-3.5504,-3.5504,-3.5504,-3.5504,-3.5504,-3.5504,-3.5504,-3.5504,-3.5504,-3.5504,-3.5504,-3.5325,-3.4668,-3.4518,-3.4324,-3.3649,-3.3499,-3.3499,-3.3499,-3.3499,-3.3499,-3.3499,-3.4178,-3.4718,-3.4734,-3.5352,-3.6055,-3.6734,-3.681,-3.7112,-3.7834,-3.8582,-3.9005,-3.9005,-3.969,-4.0096,-4.0096,-4.0096,-4.0096,-4.0096,-4.0113,-4.0468,-4.1204,-4.1204,-4.1221,-4.1238,-4.2682,-4.3392,-4.3426,-4.4231,-4.4615,-4.4615,-4.4615,-4.4615,-4.4615,-4.4615,-4.4615,-4.4615,-4.4615,-4.4615,-4.4615,-4.4615,-4.4615,-4.4615,-3.3124,-3.3124,-3.3124,-3.3124,-3.3124,-3.3124,-3.3124,-3.3124,-3.3124,-3.3124,-3.3124,-3.2696,-3.1512,-3.1386,-3.0959,-2.988,-2.9792,-2.9792,-2.9792,-3.0419,-3.0758,-3.0758,-3.0758,-3.0758,-3.0758,-3.1719,-3.2177,-3.2177,-3.3136,-3.3602,-3.3602,-3.4591,-3.5052,-3.5067,-3.5359,-3.5504,-3.5504,-3.5504,-3.5504,-3.5504,-3.5504,-3.5504,-3.5504,-3.5504,-3.5504,-3.5504,-3.5504,-3.5504,-3.5504,-3.5504,-3.5504,-3.5504,-3.5504,-3.5504,-3.5504,-3.5504,-3.5504,-3.5504,-3.5504,-3.5504,-3.5504,-3.5504,-3.5504,-3.5444,-3.525,-3.519,-3.5011,-3.4354,-3.4219,-3.4038,-3.3589,-3.3955,-3.4355,-3.4355,-3.4974,-3.5639,-3.6108,-3.6356,-3.6776,-3.75,-3.8026,-3.842,-3.8642,-3.9351,-3.9774,-3.9774,-3.9977,-4.0096,-4.0096,-4.0096,-4.0096,-4.0096,-4.0595,-4.0984,-4.1204,-4.1204,-4.1728,-4.2733,-4.3189,-4.3707,-4.4248,-4.4496,-4.4615,-4.4615,-4.4615,-4.4615,-4.4615,-4.4615,-4.4615,-4.4615,-4.4615,-4.4615,-4.4615,-4.4615,-4.4615,-4.4615,-3.3124,-3.3124,-3.3124,-3.3124,-3.3124,-3.3124,-3.3124,-3.3124,-3.3124,-3.3124,-3.3124,-3.2696,-3.1512,-3.1386,-3.0959,-2.988,-2.9792,-2.9972,-3.0317,-3.0871,-3.1352,-3.1742,-3.2105,-3.2141,-3.1742,-3.2664,-3.3136,-3.3136,-3.4109,-3.4576,-3.461,-3.5213,-3.5504,-3.5504,-3.5504,-3.5504,-3.5504,-3.5504,-3.5504,-3.5504,-3.5504,-3.5504,-3.5504,-3.5504,-3.5504,-3.5504,-3.5504,-3.5504,-3.5504,-3.5504,-3.5504,-3.5504,-3.5504,-3.5504,-3.5504,-3.5504,-3.5504,-3.5504,-3.5504,-3.5504,-3.5504,-3.5504,-3.5504,-3.5504,-3.5504,-3.5504,-3.5385,-3.4966,-3.4891,-3.4868,-3.4743,-3.5123,-3.557,-3.5891,-3.6554,-3.7166,-3.7564,-3.7908,-3.8271,-3.8702,-3.9157,-3.9453,-3.9453,-3.9842,-4.0096,-4.0096,-4.0096,-4.0096,-4.0096,-4.0383,-4.0527,-4.0527,-4.1255,-4.1779,-4.2083,-4.2083,-4.2513,-4.3392,-4.3724,-4.413,-4.4615,-4.4615,-4.4615,-4.4615,-4.4615,-4.4615,-4.4615,-4.4615,-4.4615,-4.4615,-4.4615,-4.4615,-4.4615,-4.4615,-4.4615,-4.4615,-3.3124,-3.3124,-3.3124,-3.3124,-3.3124,-3.3124,-3.3124,-3.3124,-3.3124,-3.3124,-3.3124,-3.2667,-3.1587,-3.1424,-3.0984,-2.9955,-2.9817,-3.0216,-3.1143,-3.1278,-3.1742,-3.2664,-3.3636,-3.3739,-3.289,-3.3705,-3.4129,-3.4129,-3.5052,-3.5504,-3.5504,-3.5504,-3.5504,-3.5504,-3.5504,-3.5504,-3.5504,-3.5504,-3.5504,-3.5504,-3.5504,-3.5504,-3.5504,-3.5504,-3.5504,-3.5504,-3.5504,-3.5504,-3.5504,-3.5504,-3.5504,-3.5504,-3.5504,-3.5504,-3.5504,-3.5504,-3.5504,-3.5504,-3.5504,-3.5504,-3.5504,-3.5587,-3.5587,-3.5587,-3.5587,-3.5587,-3.5619,-3.5668,-3.5716,-3.5894,-3.6584,-3.6752,-3.7054,-3.7777,-3.8525,-3.9005,-3.9005,-3.9636,-4.0096,-4.0096,-4.0096,-4.0096,-4.0096,-4.0096,-4.0096,-4.0096,-4.0096,-4.013,-4.0197,-4.0832,-4.1238,-4.1305,-4.2016,-4.2726,-4.3375,-4.346,-4.3521,-4.3511,-4.4231,-4.4615,-4.4615,-4.4615,-4.4615,-4.4615,-4.4615,-4.4615,-4.4615,-4.4615,-4.4615,-4.4615,-4.4615,-4.4615,-4.4615,-4.4615,-4.4615,-4.4615,-3.3124,-3.3124,-3.3124,-3.3124,-3.3124,-3.3124,-3.3124,-3.3124,-3.3124,-3.3124,-3.3124,-3.2817,-3.2114,-3.165,-3.1135,-3.0495,-3.0043,-3.0216,-3.1143,-3.1888,-3.2713,-3.3671,-3.4658,-3.5067,-3.4887,-3.5067,-3.5166,-3.5166,-3.5392,-3.5504,-3.5504,-3.5504,-3.5504,-3.5504,-3.5504,-3.5504,-3.5504,-3.5504,-3.5504,-3.5504,-3.5504,-3.5504,-3.5504,-3.5504,-3.5504,-3.5504,-3.5504,-3.5504,-3.5504,-3.5504,-3.5504,-3.5504,-3.5504,-3.5504,-3.5504,-3.5504,-3.5504,-3.5504,-3.5504,-3.5504,-3.5651,-3.6228,-3.6353,-3.6353,-3.6353,-3.6353,-3.6538,-3.7175,-3.7294,-3.7354,-3.7515,-3.8003,-3.8453,-3.8635,-3.9315,-3.9833,-3.9833,-3.9995,-4.0096,-4.0096,-4.0096,-4.0096,-4.0096,-4.0096,-4.0096,-4.0096,-4.0096,-4.0367,-4.0933,-4.1119,-4.1457,-4.2033,-4.2777,-4.3223,-4.3392,-4.4028,-4.4333,-4.4333,-4.453,-4.4615,-4.4615,-4.4615,-4.4615,-4.4615,-4.4615,-4.4615,-4.4615,-4.4615,-4.4615,-4.4615,-4.4615,-4.4615,-4.4615,-4.4615,-4.4615,-4.4615,-3.3124,-3.3124,-3.3124,-3.3124,-3.3124,-3.3124,-3.3124,-3.3124,-3.3124,-3.3124,-3.3124,-3.2855,-3.2277,-3.2138,-3.1742,-3.0958,-3.1053,-3.1328,-3.1829,-3.2749,-3.3705,-3.4691,-3.5213,-3.5504,-3.5504,-3.5504,-3.5504,-3.5504,-3.5504,-3.5504,-3.5504,-3.5504,-3.5504,-3.5504,-3.5504,-3.5504,-3.5504,-3.5504,-3.5504,-3.5504,-3.5504,-3.5504,-3.5504,-3.5504,-3.5504,-3.5504,-3.5504,-3.5504,-3.5504,-3.5504,-3.5504,-3.5504,-3.5504,-3.5718,-3.6023,-3.6023,-3.6305,-3.6616,-3.6616,-3.6616,-3.6692,-3.707,-3.7174,-3.7174,-3.7174,-3.7174,-3.7308,-3.769,-3.7793,-3.7892,-3.8246,-3.8635,-3.9032,-3.9411,-3.985,-4.0096,-4.0096,-4.0096,-4.0096,-4.0096,-4.0096,-4.0096,-4.0096,-4.0096,-4.0248,-4.0595,-4.0612,-4.0933,-4.1677,-4.2066,-4.2439,-4.2811,-4.3572,-4.3978,-4.3978,-4.4395,-4.4615,-4.4615,-4.4615,-4.4615,-4.4615,-4.4615,-4.4615,-4.4615,-4.4615,-4.4615,-4.4615,-4.4615,-4.4615,-4.4615,-4.4615,-4.4615,-4.4615,-4.4615,-4.4615,-4.4615,-3.3124,-3.3124,-3.3124,-3.3124,-3.3124,-3.3124,-3.3124,-3.3124,-3.3124,-3.3124,-3.3124,-3.2978,-3.2642,-3.2879,-3.2613,-3.1532,-3.2141,-3.2664,-3.282,-3.3567,-3.4461,-3.5472,-3.5504,-3.5504,-3.5504,-3.5504,-3.5504,-3.5504,-3.5504,-3.5504,-3.5504,-3.5504,-3.5504,-3.5504,-3.5504,-3.5504,-3.5504,-3.5504,-3.5504,-3.5504,-3.5504,-3.5504,-3.5504,-3.5504,-3.5504,-3.5504,-3.5504,-3.5587,-3.5701,-3.5701,-3.5797,-3.5878,-3.5878,-3.6321,-3.6828,-3.6828,-3.7279,-3.7793,-3.7793,-3.7793,-3.7835,-3.795,-3.7978,-3.8035,-3.8149,-3.8092,-3.8035,-3.8149,-3.8177,-3.8374,-3.9005,-3.9113,-3.9315,-3.9978,-4.0096,-4.0096,-4.0096,-4.0096,-4.0096,-4.0096,-4.0096,-4.0146,-4.0282,-4.0299,-4.0578,-4.1339,-4.139,-4.1711,-4.2439,-4.3081,-4.3443,-4.3606,-4.4248,-4.4615,-4.4615,-4.4615,-4.4615,-4.4615,-4.4615,-4.4615,-4.4615,-4.4615,-4.4615,-4.4615,-4.4615,-4.4615,-4.4615,-4.4615,-4.4615,-4.4615,-4.4615,-4.4615,-4.4615,-4.4615,-4.4615,-4.4615,-3.3124,-3.3124,-3.3124,-3.3124,-3.3124,-3.3124,-3.3124,-3.3124,-3.3124,-3.3124,-3.3124,-3.3403,-3.4282,-3.4254,-3.3683,-3.2525,-3.2522,-3.2961,-3.3774,-3.391,-3.4461,-3.5472,-3.5504,-3.5504,-3.5504,-3.5504,-3.5504,-3.5504,-3.5504,-3.5504,-3.5504,-3.5504,-3.5504,-3.5504,-3.5504,-3.5504,-3.5504,-3.5504,-3.5504,-3.5504,-3.5504,-3.5504,-3.5504,-3.5504,-3.5504,-3.5504,-3.5504,-3.5926,-3.6446,-3.6446,-3.6919,-3.7501,-3.7501,-3.756,-3.7632,-3.7632,-3.7719,-3.7793,-3.7793,-3.7793,-3.795,-3.858,-3.8745,-3.8935,-3.9636,-3.9236,-3.8951,-3.9653,-3.9799,-3.9825,-3.9927,-3.9927,-3.9978,-4.007,-4.0096,-4.0096,-4.0096,-4.0096,-4.0096,-4.0096,-4.0096,-4.0367,-4.0984,-4.1052,-4.1356,-4.21,-4.2151,-4.2472,-4.3189,-4.3341,-4.3724,-4.4429,-4.4547,-4.4615,-4.4615,-4.4615,-4.4615,-4.4615,-4.4615,-4.4615,-4.4615,-4.4615,-4.4615,-4.4615,-4.4615,-4.4615,-4.4615,-4.4615,-4.4615,-4.4615,-4.4615,-4.4615,-4.4615,-4.4615,-4.4615,-4.4615,-3.3124,-3.3124,-3.3124,-3.3124,-3.3124,-3.3313,-3.3911,-3.3995,-3.4191,-3.4761,-3.4843,-3.4993,-3.548,-3.5339,-3.4893,-3.4009,-3.4106,-3.4158,-3.4027,-3.4543,-3.5019,-3.5472,-3.5504,-3.5504,-3.5504,-3.5504,-3.5504,-3.5504,-3.5504,-3.5504,-3.5504,-3.5504,-3.5504,-3.5504,-3.5504,-3.5504,-3.5504,-3.5504,-3.5504,-3.5504,-3.5504,-3.5504,-3.5522,-3.5943,-3.6102,-3.6165,-3.6631,-3.6995,-3.7279,-3.7279,-3.7515,-3.7793,-3.7793,-3.8092,-3.8414,-3.8414,-3.8734,-3.9076,-3.9076,-3.9076,-3.9172,-3.9489,-3.9584,-3.9662,-4.002,-3.985,-3.9662,-4.002,-4.0096,-4.0096,-4.0096,-4.0096,-4.0096,-4.0096,-4.0096,-4.0096,-4.0096,-4.0096,-4.0265,-4.0663,-4.1068,-4.1441,-4.1779,-4.1813,-4.2117,-4.2861,-4.2912,-4.325,-4.4028,-4.4062,-4.4215,-4.4598,-4.4615,-4.4615,-4.4615,-4.4615,-4.4615,-4.4615,-4.4615,-4.4615,-4.4615,-4.4615,-4.4615,-4.4615,-4.4615,-4.4615,-4.4615,-4.4615,-4.4615,-4.4615,-4.4615,-4.4615,-4.4615,-4.4615,-4.4615,-4.4615]},{"header":{"parameterUnit":"m.s-1","parameterCategory":1,"la1":30.6,"la2":28.766,"lo1":-90.7593,"lo2":-88.6598,"dx":0.0162,"dy":0.0183,"nx":116,"ny":114,"refTime":"2023-01-29T06:00:00:Z","depth":0,"parameterNumber":3,"parameterNumberName":"V-component_of_WINDS"},"data":[0.0,0.0,0.0,0.0,0.0,0.0,0.0,0.0,0.0,0.0,0.0,0.0,0.0,0.0,0.0,0.0,0.0,0.0,0.0,0.0,0.0,0.0,0.0,0.0,0.0,0.0,0.0,0.0,0.0,0.0,0.0,0.0,0.0,0.0,0.0,0.0,0.0,0.0,0.0,0.0,0.0,0.0,0.0,0.0,0.0,0.0,0.0,0.0,0.0,0.0,0.0,0.0,0.0,0.0,0.0,0.0,0.0,0.0,0.0,0.0,0.0,0.0,0.0,0.0,0.0,0.0,0.0,0.0,0.0,0.0,0.0,0.0,0.0,0.0,0.0,0.0,0.0,0.0,0.0,0.0,0.0,0.0,0.0,0.0,0.0,0.0,0.0,0.0,0.0,0.0,0.0,0.0,0.0,0.0,0.0,0.0,0.0,0.0,0.0,0.0,0.0,0.0,0.0,0.0,0.0,0.0,0.0,0.0,0.0,0.0,0.0,0.0,0.0,0.0,0.0,0.0,0.0,0.0,0.0,0.0,0.0,0.0,0.0,0.0,0.0,0.0,0.0,0.0,0.0,0.0,0.0,0.0,0.0,0.0,0.0,0.0,0.0,0.0,0.0,0.0,0.0,0.0,0.0,0.0,0.0,0.0,0.0,0.0,0.0,0.0,0.0,0.0,0.0,0.0,0.0,0.0,0.0,0.0,0.0,0.0,0.0,0.0,0.0,0.0,0.0,0.0,0.0,0.0,0.0,0.0,0.0,0.0,0.0,0.0,0.0,0.0,0.0,0.0,0.0,0.0,0.0,0.0,0.0,0.0,0.0,0.0,0.0,0.0,0.0,0.0,0.0,0.0,0.0,0.0,0.0,0.0,0.0,0.0,0.0,0.0,0.0,0.0,0.0,0.0,0.0,0.0,0.0,0.0,0.0,0.0,0.0,0.0,0.0,0.0,0.0,0.0,0.0,0.0,0.0,0.0,0.0,0.0,0.0,0.0,0.0,0.0,0.0,0.0,0.0,0.0,0.0,0.0,0.0,0.0,0.0,0.0,0.0,0.0,0.0,0.0,0.0,0.0,0.0,0.0,0.0,0.0,0.0,0.0,0.0,0.0,0.0,0.0,0.0,0.0,0.0,0.0,0.0,0.0,0.0,0.0,0.0,0.0,0.0,0.0,0.0,0.0,0.0,0.0,0.0,0.0,0.0,0.0,0.0,0.0,0.0,0.0,0.0,0.0,0.0,0.0,0.0,0.0,0.0,0.0,0.0,0.0,0.0,0.0,0.0,0.0,0.0,0.0,0.0,0.0,0.0,0.0,0.0,0.0,0.0,0.0,0.0,0.0,0.0,0.0,0.0,0.0,0.0,0.0,0.0,0.0,0.0,0.0,0.0,0.0,0.0,0.0,0.0,0.0,0.0,0.0,0.0,0.0,0.0,0.0,0.0,0.0,0.0,0.0,0.0,0.0,0.0,0.0,0.0,0.0,0.0,0.0,0.0,0.0,0.0,0.0,0.0,0.0,0.0,0.0,0.0,0.0,0.0,0.0,0.0,0.0,0.0,0.0,0.0,0.0,0.0,0.0,0.0,0.0,0.0,0.0,0.0,0.0,0.0,0.0,0.0,0.0,0.0,0.0,0.0,0.0,0.0,0.0,0.0,0.0,0.0,0.0,0.0,0.0,0.0,0.0,0.0,0.0,0.0,0.0,0.0,0.0,0.0,0.0,0.0,0.0,0.0,0.0,0.0,0.0,0.0,0.0,0.0,0.0,0.0,0.0,0.0,0.0,0.0,0.0,0.0,0.0,0.0,0.0,0.0,0.0,0.0,0.0,0.0,0.0,0.0,0.0,0.0,0.0,0.0,0.0,0.0,0.0,0.0,0.0,0.0,0.0,0.0,0.0,0.0,0.0,0.0,0.0,0.0,0.0,0.0,0.0,0.0,0.0,0.0,0.0,0.0,0.0,0.0,0.0,0.0,0.0,0.0,0.0,0.0,0.0,0.0,0.0,0.0,0.0,0.0,0.0,0.0,0.0,0.0,0.0,0.0,0.0,0.0,0.0,0.0,0.0,0.0,0.0,0.0,0.0,0.0,0.0,0.0,0.0,0.0,0.0,0.0,0.0,0.0,0.0,0.0,0.0,0.0,0.0,0.0,0.0,0.0,0.0,0.0,0.0,0.0,0.0,0.0,0.0,0.0,0.0,0.0,0.0,0.0,0.0,0.0,0.0,0.0,0.0,0.0,0.0,0.0,0.0,0.0,0.0,0.0,0.0,0.0,0.0,0.0,0.0,0.0,0.0,0.0,0.0,0.0,0.0,0.0,0.0,0.0,0.0,0.0,0.0,0.0,0.0,0.0,0.0,0.0,0.0,0.0,0.0,0.0,0.0,0.0,0.0,0.0,0.0,0.0,0.0,0.0,0.0,0.0,0.0,0.0,0.0,0.0,0.0,0.0,0.0,0.0,0.0,0.0,0.0,0.0,0.0,0.0,0.0,0.0,0.0,0.0,0.0,0.0,0.0,0.0,0.0,0.0,0.0,0.0,0.0,0.0,0.0,0.0,0.0,0.0,0.0,0.0,0.0,0.0,0.0,0.0,0.0,0.0,0.0,0.0,0.0,0.0,0.0,0.0,0.0,0.0,0.0,0.0,0.0,0.0,0.0,0.0,0.0,0.0,0.0,0.0,0.0,0.0,0.0,0.0,0.0,0.0,0.0,0.0,0.0,0.0,0.0,0.0,0.0,0.0,0.0,0.0,0.0,0.0,0.0,0.0,0.0,0.0,0.0,0.0,0.0,0.0,0.0,0.0,0.0,0.0,0.0,0.0,0.0,0.0,0.0,0.0,0.0,0.0,0.0,0.0,0.0,0.0,0.0,0.0,0.0,0.0,0.0,0.0,0.0,0.0,0.0,0.0,0.0,0.0,0.0,0.0,0.0,0.0,0.0,0.0,0.0,0.0,0.0,0.0,0.0,0.0,0.0,0.0,0.0,0.0,0.0,0.0,0.0,0.0,0.0,0.0,0.0,0.0,0.0,0.0,0.0,0.0,0.0,0.0,0.0,0.0,0.0,0.0,0.0,0.0,0.0,0.0,0.0,0.0,0.0,0.0,0.0,0.0,0.0,0.0,0.0,0.0,0.0,0.0,0.0,0.0,0.0,0.0,0.0,0.0,0.0,0.0,0.0,0.0,0.0,0.0,0.0,0.0,0.0,0.0,0.0,0.0,0.0,0.0,0.0,0.0,0.0,0.0,0.0,0.0,0.0,0.0,0.0,0.0,0.0,0.0,0.0,0.0,0.0,0.0,0.0,0.0,0.0,0.0,0.0,0.0,0.0,0.0,0.0,0.0,0.0,0.0,0.0,0.0,0.0,0.0,0.0,0.0,0.0,0.0,0.0,0.0,0.0,0.0,0.0,0.0,0.0,0.0,0.0,0.0,0.0,0.0,0.0,0.0,0.0,0.0,0.0,0.0,0.0,0.0,0.0,0.0,0.0,0.0,0.0,0.0,0.0,0.0,0.0,0.0,0.0,0.0,0.0,0.0,0.0,0.0,0.0,0.0,0.0,0.0,0.0,0.0,0.0,0.0,0.0,0.0,0.0,0.0,0.0,0.0,0.0,0.0,0.0,0.0,0.0,0.0,0.0,0.0,0.0,0.0,0.0,0.0,0.0,0.0,0.0,0.0,0.0,0.0,0.0,0.0,0.0,0.0,0.0,0.0,0.0,0.0,0.0,0.0,0.0,0.0,0.0,0.0,0.0,0.0,0.0,0.0,0.0,0.0,0.0,0.0,0.0,0.0,0.0,0.0,0.0,0.0,0.0,0.0,0.0,0.0,0.0,0.0,0.0,0.0,0.0,0.0,0.0,0.0,0.0,0.0,0.0,0.0,0.0,0.0,0.0,0.0,0.0,0.0,0.0,0.0,0.0,0.0,0.0,0.0,0.0,0.0,0.0,0.0,0.0,0.0,0.0,0.0,0.0,0.0,0.0,0.0,0.0,0.0,0.0,0.0,0.0,0.0,0.0,0.0,0.0,0.0,0.0,0.0,0.0,0.0,0.0,0.0,0.0,0.0,0.0,0.0,0.0,0.0,0.0,0.0,0.0,0.0,0.0,0.0,0.0,0.0,0.0,0.0,0.0,0.0,0.0,0.0,0.0,0.0,0.0,0.0,0.0,0.0,0.0,0.0,0.0,0.0,0.0,0.0,0.0,0.0,0.0,0.0,0.0,0.0,0.0,0.0,0.0,0.0,0.0,0.0,0.0,0.0,0.0,0.0,0.0,0.0,0.0,0.0,0.0,0.0,0.0,0.0,0.0,0.0,0.0,0.0,0.0,0.0,0.0,0.0,0.0,0.0,0.0,0.0,0.0,0.0,0.0,0.0,0.0,0.0,0.0,0.0,0.0,0.0,0.0,0.0,0.0,0.0,0.0,0.0,0.0,0.0,0.0,0.0,0.0,0.0,0.0,0.0,0.0,0.0,0.0,0.0,0.0,0.0,0.0,0.0,0.0,0.0,0.0,0.0,0.0,0.0,0.0,0.0,0.0,0.0,0.0,0.0,0.0,0.0,0.0,0.0,0.0,0.0,0.0,0.0,0.0,0.0,0.0,0.0,0.0,0.0,0.0,0.0,0.0,0.0,0.0,0.0,0.0,0.0,0.0,0.0,0.0,0.0,0.0,0.0,0.0,0.0,0.0,0.0,0.0,0.0,0.0,0.0,0.0,0.0,0.0,0.0,0.0,0.0,0.0,0.0,0.0,0.0,0.0,0.0,0.0,0.0,0.0,0.0,0.0,0.0,0.0,0.0,0.0,0.0,0.0,0.0,0.0,0.0,0.0,0.0,0.0,0.0,0.0,0.0,0.0,0.0,0.0,0.0,0.0,0.0,0.0,0.0,0.0,0.0,0.0,0.0,0.0,0.0,0.0,0.0,0.0,0.0,0.0,0.0,0.0,0.0,0.0,0.0,0.0,0.0,0.0,0.0,0.0,0.0,0.0,0.0,0.0,0.0,0.0,0.0,0.0,0.0,0.0,0.0,0.0,0.0,0.0,0.0,0.0,0.0,0.0,0.0,0.0,0.0,0.0,0.0,0.0,0.0,0.0,0.0,0.0,0.0,0.0,0.0,0.0,0.0,0.0,0.0,0.0,0.0,0.0,0.0,0.0,0.0,0.0,0.0,0.0,0.0,0.0,0.0,0.0,0.0,0.0,0.0,0.0,0.0,0.0,0.0,0.0,0.0,0.0,0.0,0.0,0.0,0.0,0.0,0.0,0.0,0.0,0.0,0.0,0.0,0.0,0.0,0.0,0.0,0.0,0.0,0.0,0.0,0.0,0.0,0.0,0.0,0.0,0.0,0.0,0.0,0.0,0.0,0.0,0.0,0.0,0.0,0.0,0.0,0.0,0.0,0.0,0.0,0.0,0.0,0.0,0.0,0.0,0.0,0.0,0.0,0.0,0.0,0.0,0.0,0.0,0.0,0.0,0.0,0.0,0.0,0.0,0.0,0.0,0.0,0.0,0.0,0.0,0.0,0.0,0.0,0.0,0.0,0.0,0.0,0.0,0.0,0.0,0.0,0.0,0.0,0.0,0.0,0.0,0.0,0.0,0.0,0.0,0.0,0.0,0.0,0.0,0.0,0.0,0.0,0.0,0.0,0.0,0.0,0.0,0.0,0.0,0.0,0.0,0.0,0.0,0.0,0.0,0.0,0.0,0.0,0.0,0.0,0.0,0.0,0.0,0.0,0.0,0.0,0.0,0.0,0.0,0.0,0.0,0.0,0.0,0.0,0.0,0.0,0.0,0.0,0.0,0.0,0.0,0.0,0.0,0.0,0.0,0.0,0.0,0.0,0.0,0.0,0.0,0.0,0.0,0.0,0.0,0.0,0.0,0.0,0.0,0.0,0.0,0.0,0.0,0.0,0.0,0.0,0.0,0.0,0.0,0.0,0.0,0.0,0.0,0.0,0.0,0.0,0.0,0.0,0.0,0.0,0.0,0.0,0.0,0.0,0.0,0.0,0.0,0.0,0.0,0.0,0.0,0.0,0.0,0.0,0.0,0.0,0.0,0.0,0.0,0.0,0.0,0.0,0.0,0.0,0.0,0.0,0.0,3.3807,3.3807,0.0,0.0,0.0,0.0,0.0,0.0,0.0,0.0,0.0,0.0,0.0,0.0,0.0,0.0,0.0,0.0,0.0,0.0,0.0,0.0,0.0,0.0,0.0,0.0,0.0,0.0,0.0,0.0,0.0,0.0,0.0,0.0,0.0,0.0,0.0,0.0,0.0,0.0,0.0,0.0,0.0,0.0,0.0,0.0,0.0,0.0,0.0,0.0,0.0,0.0,0.0,0.0,0.0,0.0,0.0,0.0,0.0,0.0,0.0,0.0,0.0,0.0,0.0,0.0,0.0,0.0,0.0,0.0,0.0,0.0,0.0,0.0,0.0,0.0,0.0,0.0,0.0,0.0,0.0,0.0,0.0,0.0,0.0,0.0,0.0,0.0,0.0,0.0,0.0,0.0,0.0,0.0,0.0,0.0,0.0,0.0,0.0,0.0,0.0,0.0,0.0,0.0,0.0,0.0,0.0,0.0,0.0,0.0,0.0,0.0,0.0,0.0,0.0,0.0,3.3807,3.3807,0.0,0.0,0.0,0.0,0.0,0.0,0.0,0.0,0.0,0.0,0.0,0.0,0.0,0.0,0.0,0.0,0.0,0.0,0.0,0.0,0.0,0.0,0.0,0.0,0.0,0.0,0.0,0.0,0.0,0.0,0.0,0.0,0.0,0.0,0.0,0.0,0.0,0.0,0.0,0.0,0.0,0.0,0.0,0.0,0.0,0.0,0.0,0.0,0.0,0.0,0.0,0.0,0.0,0.0,0.0,0.0,0.0,0.0,0.0,0.0,0.0,0.0,0.0,0.0,0.0,0.0,0.0,0.0,0.0,0.0,0.0,0.0,0.0,0.0,0.0,0.0,0.0,0.0,0.0,0.0,0.0,0.0,0.0,0.0,0.0,0.0,0.0,0.0,0.0,0.0,0.0,0.0,0.0,0.0,0.0,0.0,0.0,0.0,0.0,0.0,0.0,0.0,0.0,0.0,0.0,0.0,0.0,0.0,3.3807,3.3807,3.3807,3.3807,3.3807,3.3807,3.3807,3.3807,3.3807,3.3807,0.0,0.0,0.0,0.0,0.0,0.0,0.0,0.0,0.0,0.0,0.0,0.0,0.0,0.0,0.0,0.0,0.0,0.0,0.0,0.0,0.0,0.0,0.0,0.0,0.0,0.0,0.0,0.0,0.0,0.0,0.0,0.0,0.0,0.0,0.0,0.0,0.0,0.0,3.3807,3.3807,3.3807,3.3807,3.3807,0.0,0.0,0.0,0.0,0.0,0.0,0.0,0.0,0.0,0.0,0.0,0.0,0.0,0.0,0.0,0.0,0.0,0.0,0.0,0.0,0.0,0.0,0.0,0.0,0.0,0.0,0.0,0.0,0.0,0.0,0.0,0.0,0.0,0.0,0.0,0.0,0.0,0.0,0.0,0.0,0.0,0.0,0.0,3.3807,3.3807,0.0,0.0,0.0,0.0,0.0,0.0,0.0,0.0,0.0,0.0,0.0,0.0,0.0,3.3807,3.3807,3.3807,3.3807,3.3807,3.3807,3.3807,3.3807,3.3807,3.3807,3.3807,3.3807,0.0,3.3807,3.3807,0.0,0.0,0.0,0.0,0.0,0.0,0.0,0.0,0.0,0.0,0.0,0.0,0.0,0.0,0.0,0.0,0.0,0.0,0.0,0.0,0.0,0.0,0.0,0.0,0.0,0.0,0.0,0.0,0.0,0.0,0.0,0.0,0.0,0.0,0.0,0.0,3.4894,3.4247,3.3807,3.3807,3.3807,3.3807,3.3807,3.3807,3.3807,3.3807,0.0,0.0,0.0,0.0,0.0,0.0,0.0,0.0,0.0,0.0,0.0,0.0,0.0,0.0,0.0,0.0,0.0,0.0,0.0,0.0,0.0,0.0,0.0,0.0,0.0,0.0,0.0,0.0,0.0,0.0,0.0,0.0,0.0,0.0,0.0,0.0,0.0,0.0,0.0,3.3807,3.3807,3.3807,3.3807,3.3807,0.0,0.0,0.0,0.0,0.0,0.0,0.0,0.0,0.0,3.3807,3.3807,3.3807,3.3807,3.3807,3.3807,3.3807,3.3807,3.3807,3.3807,3.3807,3.3807,3.3807,3.3807,3.3807,3.3807,3.3807,3.3807,3.3807,0.0,0.0,0.0,0.0,3.3807,3.3807,0.0,0.0,0.0,0.0,0.0,0.0,0.0,0.0,0.0,0.0,0.0,0.0,0.0,0.0,0.0,3.6611,0.0,0.0,0.0,0.0,0.0,0.0,0.0,0.0,0.0,0.0,0.0,0.0,3.5518,3.4692,3.41,3.3899,3.3807,3.3807,3.3807,3.3807,3.3807,3.3807,3.3807,0.0,0.0,0.0,0.0,0.0,0.0,0.0,0.0,0.0,0.0,0.0,0.0,0.0,0.0,0.0,0.0,0.0,0.0,0.0,0.0,0.0,0.0,0.0,0.0,0.0,0.0,0.0,0.0,0.0,0.0,0.0,0.0,0.0,0.0,0.0,0.0,0.0,0.0,3.3807,3.3807,3.3807,3.3807,3.3807,0.0,0.0,0.0,0.0,0.0,0.0,3.3807,3.3807,3.3807,3.3807,3.3807,3.3807,3.3807,3.3807,3.3899,3.4119,3.4119,3.4229,3.4431,3.4431,3.4431,3.4431,3.4431,3.4431,3.4412,3.3972,3.3807,3.3807,3.3807,3.3807,3.3807,3.3807,3.3807,3.3807,0.0,0.0,0.0,0.0,0.0,0.0,0.0,0.0,0.0,0.0,0.0,0.0,0.0,0.0,3.7437,3.7437,3.8138,3.8579,0.0,0.0,0.0,0.0,0.0,0.0,0.0,0.0,0.0,3.7437,3.5793,3.4986,3.4931,3.4174,3.3807,3.3807,3.3807,3.3807,3.3807,3.3807,3.3807,3.3807,0.0,0.0,0.0,0.0,0.0,0.0,0.0,0.0,0.0,0.0,0.0,0.0,0.0,0.0,0.0,0.0,0.0,0.0,0.0,0.0,0.0,0.0,0.0,0.0,0.0,0.0,0.0,0.0,0.0,0.0,0.0,0.0,0.0,0.0,0.0,0.0,0.0,0.0,0.0,3.3807,3.3807,0.0,0.0,0.0,0.0,3.3807,3.3807,3.3807,3.3807,3.3807,3.3807,3.3807,3.3807,3.3807,3.3807,3.3807,3.4192,3.4949,3.4949,3.5371,3.6156,3.6156,3.6156,3.6156,3.6156,3.6156,3.6046,3.4468,3.3807,3.3807,3.3807,3.3807,3.3807,3.3807,3.3807,3.3807,0.0,0.0,0.0,0.0,0.0,0.0,0.0,0.0,0.0,0.0,0.0,0.0,0.0,3.8102,3.8267,3.8267,3.8524,3.8707,3.8707,0.0,0.0,0.0,0.0,0.0,0.0,0.0,3.801,3.7492,3.689,3.6064,3.5004,3.4711,3.4289,3.3807,3.3807,3.3807,3.3807,3.3807,3.3807,3.3807,3.3807,3.3807,0.0,0.0,0.0,0.0,0.0,0.0,0.0,0.0,0.0,0.0,0.0,0.0,0.0,0.0,0.0,0.0,0.0,0.0,0.0,0.0,0.0,0.0,0.0,0.0,0.0,0.0,0.0,0.0,0.0,0.0,0.0,0.0,0.0,0.0,0.0,0.0,0.0,3.3807,3.3807,0.0,3.3807,3.3807,3.3807,3.3807,3.3807,3.3807,3.3807,3.3807,3.4045,3.4564,3.4564,3.4853,3.5404,3.5404,3.555,3.5844,3.5844,3.6009,3.6303,3.6303,3.6303,3.6303,3.6303,3.6303,3.6248,3.5661,3.5404,3.5404,3.5404,3.5404,3.5404,3.5404,3.5404,3.5404,0.0,0.0,0.0,0.0,0.0,0.0,0.0,0.0,0.0,0.0,0.0,3.8707,3.8707,3.8707,3.8707,3.8707,3.8707,3.8707,3.8707,0.0,0.0,0.0,0.0,0.0,0.0,3.8707,3.8432,3.7915,3.7639,3.678,3.5426,3.5151,3.4564,3.3807,3.3807,3.3807,3.3807,3.3807,3.3807,3.3807,3.3807,3.3807,3.3807,0.0,0.0,0.0,0.0,0.0,0.0,0.0,0.0,0.0,0.0,0.0,0.0,0.0,0.0,0.0,0.0,0.0,0.0,0.0,0.0,0.0,0.0,0.0,0.0,0.0,0.0,0.0,0.0,0.0,0.0,0.0,0.0,0.0,0.0,3.3807,3.3807,3.3807,3.3807,3.3807,3.3807,3.3807,3.3807,3.3807,3.3807,3.3917,3.4192,3.4197,3.4582,3.5408,3.5445,3.5734,3.6285,3.6303,3.6431,3.6703,3.6703,3.6835,3.711,3.711,3.711,3.711,3.711,3.711,3.711,3.711,3.711,3.7055,3.6505,3.6303,3.6303,3.6303,3.6303,3.634,0.0,0.0,0.0,0.0,0.0,0.0,0.0,0.0,0.0,0.0,3.8689,3.8689,3.867,3.8689,3.8707,3.8707,3.8707,3.8707,3.8707,3.8707,0.0,0.0,0.0,0.0,3.8707,3.8707,3.8707,3.8707,3.7933,3.7125,3.6321,3.5445,3.4601,3.3844,3.3807,3.3807,3.3807,3.3807,3.3807,3.3807,3.3807,3.3807,3.3807,0.0,0.0,0.0,0.0,0.0,0.0,0.0,0.0,0.0,0.0,0.0,0.0,0.0,0.0,0.0,0.0,0.0,0.0,0.0,0.0,0.0,0.0,0.0,0.0,0.0,0.0,0.0,0.0,0.0,0.0,0.0,0.0,0.0,3.3807,3.3807,3.3807,3.3807,3.3807,3.3807,3.3807,3.3807,3.3807,3.3807,3.3825,3.4192,3.4968,3.5041,3.5445,3.6303,3.634,3.634,3.6376,3.6376,3.6776,3.7547,3.7547,3.7936,3.8707,3.8707,3.8707,3.8707,3.8707,3.8707,3.8707,3.8707,3.8707,3.856,3.6982,3.6376,3.6376,3.6376,3.6376,3.6486,0.0,0.0,0.0,0.0,0.0,0.0,0.0,0.0,0.0,0.0,3.8464,3.8487,3.7896,3.834,3.8707,3.8707,3.8707,3.8707,3.8707,0.0,0.0,0.0,0.0,0.0,3.8707,3.8707,3.8707,3.8707,3.8487,3.7955,3.7144,3.6321,3.5481,3.4637,3.4064,3.3807,3.3807,3.3807,3.3807,3.3807,3.3807,3.3807,3.3807,0.0,0.0,0.0,0.0,0.0,0.0,0.0,0.0,0.0,0.0,0.0,0.0,0.0,0.0,0.0,0.0,0.0,0.0,0.0,0.0,0.0,0.0,0.0,0.0,0.0,0.0,0.0,0.0,0.0,0.0,0.0,3.3807,3.3807,3.3807,3.3807,3.3807,3.3807,3.3807,3.3807,3.3807,3.3807,3.3807,3.3807,3.4344,3.4766,3.5004,3.5591,3.6321,3.7144,3.718,3.7441,3.8028,3.8046,3.8157,3.8377,3.8377,3.8487,3.8707,3.8707,3.8707,3.8707,3.8707,3.8707,3.8707,3.8707,3.8707,3.867,3.8212,3.8046,3.8046,3.8046,3.8046,3.8065,0.0,0.0,0.0,0.0,0.0,0.0,0.0,0.0,0.0,0.0,3.7993,3.7881,3.7088,3.7404,3.7698,3.7698,3.7991,3.8193,3.8193,0.0,0.0,0.0,0.0,3.8707,3.8707,3.8707,3.8707,3.8707,3.8707,3.8285,3.7492,3.7015,3.634,3.55,3.4674,3.4289,3.427,3.3935,3.3807,3.3807,3.3807,3.3807,3.3807,3.3807,3.3807,3.3807,3.3807,3.3807,3.3807,3.3807,0.0,0.0,0.0,0.0,0.0,0.0,0.0,0.0,0.0,0.0,0.0,0.0,0.0,0.0,0.0,0.0,0.0,0.0,0.0,0.0,0.0,0.0,0.0,0.0,3.3807,3.3807,3.3807,3.3807,3.3807,3.3807,3.3807,3.3807,3.3807,3.41,3.4289,3.4289,3.5059,3.5683,3.6028,3.6523,3.718,3.7988,3.7991,3.823,3.8707,3.8707,3.8707,3.8707,3.8707,3.8707,3.8707,3.8707,3.8707,3.8707,3.8707,3.8707,3.8707,3.8707,3.8707,3.8707,0.0,0.0,0.0,0.0,3.8707,3.8707,0.0,0.0,0.0,0.0,0.0,0.0,0.0,0.0,0.0,0.0,0.0,3.707,3.6229,3.6229,3.6303,3.6303,3.7052,3.7492,0.0,0.0,0.0,3.856,3.8652,3.8707,3.8707,3.8707,3.8707,3.8707,3.8707,3.8322,3.7639,3.7547,3.7125,3.6395,3.5518,3.5096,3.4949,3.4247,3.388,3.3807,3.3807,3.3807,3.3807,3.3807,3.3807,3.3807,3.3807,3.3807,3.3807,3.3807,0.0,0.0,0.0,0.0,0.0,0.0,0.0,0.0,0.0,0.0,0.0,0.0,0.0,0.0,0.0,0.0,0.0,0.0,0.0,0.0,0.0,0.0,0.0,0.0,3.3807,3.3825,3.3917,3.3935,3.3935,3.3935,3.3935,3.3972,3.4064,3.4729,3.5151,3.5151,3.5954,3.6758,3.7456,3.7584,0.0,0.0,0.0,3.8707,3.8707,3.8799,3.8836,3.8836,3.8927,3.8982,3.8982,3.8982,3.8982,3.8982,3.8982,3.8982,3.8982,3.8982,3.8982,3.8946,3.8781,3.8707,3.8707,3.8707,3.8707,3.8707,0.0,0.0,0.0,0.0,0.0,0.0,0.0,0.0,0.0,3.6099,3.6256,3.6211,3.5353,3.5881,3.6303,3.6303,3.7052,3.7492,0.0,0.0,3.7731,3.7731,3.8358,3.8707,3.8707,3.8707,3.8707,3.8707,3.8707,3.8615,3.845,3.7804,3.7419,3.7235,3.6413,3.5661,3.5004,3.4839,3.438,3.3807,3.3807,3.3807,3.3807,3.3807,3.3807,3.3807,3.3807,3.3807,3.3807,3.3807,3.3807,3.3807,3.3807,0.0,0.0,0.0,0.0,0.0,0.0,0.0,0.0,0.0,0.0,0.0,0.0,0.0,0.0,0.0,0.0,0.0,0.0,0.0,0.0,3.3807,3.3807,3.4027,3.4674,3.4766,3.4766,3.4766,3.4766,3.5041,3.5752,3.5954,3.6046,3.6046,3.6813,3.7345,3.7492,3.812,3.8542,3.8707,3.8707,3.8707,3.8707,3.9331,3.9662,3.968,4.0341,0.0,4.0636,4.0636,4.0636,4.0636,4.0636,4.0636,4.0636,4.0636,4.0636,4.0508,3.9221,3.8707,3.8707,3.8707,3.8707,3.8707,0.0,0.0,0.0,0.0,0.0,0.0,0.0,0.0,0.0,0.0,3.5492,3.533,3.4491,3.4798,3.5055,3.5055,3.5789,0.0,0.0,3.6905,3.6905,3.6905,3.7276,3.7679,3.8083,3.8102,3.8303,3.8707,3.8707,3.8707,3.8689,3.8285,3.8102,3.8065,3.7272,3.6652,3.6193,3.5353,3.4766,3.4362,3.3972,3.3807,3.3807,3.3807,3.3807,3.3807,3.3807,3.3807,3.3807,3.3807,3.3807,3.3815,3.3961,3.4012,3.4093,0.0,0.0,0.0,0.0,0.0,0.0,0.0,0.0,0.0,0.0,0.0,0.0,0.0,0.0,3.3807,3.3807,0.0,3.3807,3.3807,3.4137,3.4546,3.4949,3.5371,3.5646,3.5646,3.5646,3.5826,3.6266,3.6666,3.6905,3.6905,3.7658,3.8102,3.8102,3.8487,3.8891,3.9294,3.9294,3.9496,3.9884,4.0304,4.0506,4.0506,4.0912,4.1095,4.1095,4.1095,4.1095,4.1095,4.1095,4.1095,4.1095,4.1095,4.1095,4.1022,4.0196,3.9662,3.9294,3.9294,3.9056,3.8707,0.0,0.0,0.0,0.0,0.0,0.0,0.0,0.0,0.0,0.0,3.4766,3.4509,3.3862,3.3807,3.3862,0.0,0.0,0.0,0.0,3.6046,3.6046,3.6046,3.6211,3.6597,3.7254,3.7419,3.7823,3.8469,3.8615,3.8707,3.8707,3.8707,3.8707,3.867,3.801,3.7566,3.718,3.5844,3.5059,3.4711,3.4064,3.3807,3.3807,3.3807,3.3807,3.3807,3.3807,3.3807,3.3807,3.3807,3.3807,3.3842,3.4056,3.4159,3.4304,3.487,3.507,0.0,0.0,0.0,0.0,0.0,0.0,0.0,0.0,3.433,3.4068,3.3842,3.3807,3.3807,3.3807,3.3807,3.3844,3.4009,3.4582,3.5114,3.5445,3.6083,3.6578,3.6743,3.6633,3.6578,3.6743,3.7364,3.7731,3.7731,3.8322,3.8781,3.8927,3.8927,3.9294,4.0102,4.012,4.0451,4.1095,4.126,4.1334,4.1334,4.148,4.1572,4.1572,4.1572,4.1572,4.1572,4.1572,4.1572,4.1572,4.1572,4.1572,4.1572,4.1572,4.1075,4.0341,4.0194,3.9625,3.8927,0.0,0.0,0.0,0.0,0.0,0.0,0.0,0.0,0.0,0.0,0.0,0.0,0.0,0.0,0.0,0.0,0.0,0.0,3.5096,3.5151,3.5151,3.5151,3.5899,3.634,3.6431,3.7125,3.7547,3.7639,3.834,3.8707,3.8707,3.8707,3.8707,3.8707,3.8615,3.7771,3.6413,3.6229,3.5293,3.3935,3.3844,3.3807,3.3807,3.3807,3.3807,3.3807,3.3807,3.3807,3.3807,3.3807,3.3807,3.382,3.3842,3.4006,3.4258,3.4653,3.4917,3.5166,3.5432,3.5304,3.5034,3.4793,3.4508,3.4195,0.0,3.3881,3.3842,3.382,3.3807,3.3807,3.3807,3.3807,3.4027,3.4747,3.4949,3.5518,3.7015,3.7309,3.7639,3.8358,3.779,3.7658,3.8358,3.8505,3.8579,3.8579,3.8652,3.9019,3.9717,3.9772,4.0139,4.093,4.0967,4.1003,4.1095,4.1809,4.2176,4.2176,4.2892,4.3222,4.3222,4.3222,4.3222,4.3222,4.3222,4.3222,4.3222,4.3222,4.3222,4.3222,4.3222,4.2727,4.1937,4.124,4.0469,3.9772,0.0,0.0,0.0,0.0,0.0,0.0,0.0,0.0,0.0,0.0,0.0,0.0,0.0,0.0,0.0,0.0,0.0,0.0,3.427,3.4289,3.4289,3.4289,3.4651,3.5055,3.5518,3.5866,3.6285,3.6813,3.7129,3.7294,3.7294,3.7294,3.7294,3.7294,3.7294,3.6927,3.6266,3.5771,3.5133,3.4454,3.399,3.3807,3.3807,3.3807,3.3807,3.3807,3.3807,3.3807,0.0,0.0,3.3807,3.3855,3.422,3.4398,3.4582,3.5034,3.5239,3.5289,3.5088,3.4954,3.4793,3.4497,3.4292,3.4183,3.4068,3.4031,3.3999,3.3829,3.3807,3.3807,3.3807,3.3807,3.4064,3.4876,3.5426,3.6156,3.7345,3.7915,3.8322,3.867,3.8395,3.8322,3.867,3.8707,3.8891,3.935,3.9405,3.9753,4.0561,4.0598,4.0983,4.1772,4.1809,4.2029,4.2488,4.2818,4.3002,4.3002,4.3332,4.3515,4.3515,4.3515,4.3515,4.3515,4.3515,4.3515,4.3515,4.3515,4.3515,4.3515,4.3515,4.3277,4.2892,4.2103,4.1295,4.0598,0.0,0.0,0.0,0.0,0.0,0.0,0.0,0.0,0.0,0.0,0.0,0.0,0.0,0.0,0.0,0.0,0.0,0.0,0.0,3.3807,3.3807,3.3807,3.3807,3.4082,3.4656,3.4894,3.5316,3.5936,3.6174,3.6303,3.6303,3.6303,3.6303,3.6303,3.6303,3.6174,3.5899,3.5261,3.4876,3.4619,3.4027,3.3807,3.3807,3.3807,3.3807,3.3807,3.3807,3.3807,0.0,0.0,3.3855,3.3986,3.4431,3.4684,3.4889,3.5281,3.5439,3.5391,3.4935,3.4773,3.4643,3.4401,3.4258,3.42,3.42,3.42,3.4123,3.3868,3.3807,3.3807,3.3807,3.399,3.4412,3.5224,3.6083,3.6923,3.7731,3.8322,3.8707,3.8707,3.8909,3.9038,3.9038,3.9038,3.9276,3.9845,4.0102,4.0579,4.1405,4.1425,4.1809,4.2598,4.2635,4.291,4.3496,4.3515,4.3515,4.3515,4.3515,4.3515,4.3515,4.3515,4.3515,4.3515,4.3515,4.3515,4.3515,4.3515,4.3515,4.3515,4.3515,4.3515,4.3441,4.2837,4.2121,4.1425,0.0,0.0,0.0,0.0,0.0,0.0,0.0,0.0,0.0,0.0,0.0,0.0,0.0,0.0,0.0,0.0,0.0,0.0,0.0,3.3807,3.3807,3.3807,3.3807,3.3807,3.3844,3.4601,3.5023,3.5041,3.5899,3.6303,3.6303,3.6303,3.6303,3.6303,3.6303,3.5844,3.5041,3.5023,3.4546,3.3825,3.3807,3.3807,3.3807,3.3807,3.3807,3.3807,3.3807,0.0,0.0,0.0,3.3974,3.4188,3.42,3.4626,0.0,3.5105,3.5297,3.5439,3.5155,3.4908,3.4694,3.4684,3.4434,3.42,3.42,3.42,3.4123,3.3868,3.3807,3.3807,3.3807,3.4435,3.5243,3.6119,3.6942,3.7749,3.856,3.8689,3.8707,3.8707,3.9386,3.9845,3.9845,3.9845,3.9863,3.99,4.0616,4.1407,4.2213,4.2268,4.2635,4.3441,4.346,4.3478,4.3515,4.3515,4.3515,4.3515,4.3515,4.3515,4.3515,4.3515,4.3515,4.3515,4.3515,4.3515,4.3515,4.3515,4.3515,4.3515,4.3515,4.3515,4.3515,4.3478,4.2947,4.2268,0.0,0.0,0.0,0.0,0.0,0.0,0.0,0.0,0.0,0.0,0.0,0.0,0.0,0.0,0.0,0.0,0.0,0.0,0.0,3.3807,3.3807,3.3807,3.3807,3.3807,3.3807,3.4082,3.4197,3.4197,3.4504,3.4633,3.4633,3.4633,3.4633,3.4633,3.4633,3.4486,3.4197,3.4197,3.4045,3.3807,3.3807,3.3807,3.3807,3.3807,3.3807,3.3815,0.0,0.0,0.0,0.0,0.0,0.0,3.4745,0.0,0.0,3.5312,3.5304,3.5182,3.4917,3.4764,3.4653,3.4423,3.4584,3.4686,3.4292,3.4379,3.4398,3.3908,3.3807,3.3807,3.3807,3.4454,3.5298,3.6156,3.6978,3.7786,3.8597,3.8707,3.8909,3.9423,3.9735,4.0102,4.0653,4.0708,4.0928,4.1442,4.1735,4.2249,4.3039,4.3094,4.3222,4.3496,4.3515,4.3515,4.3515,4.3515,4.3515,4.3515,4.3515,4.3515,4.3515,4.3515,4.3515,4.3515,4.3515,4.3515,4.3515,4.3515,4.3515,4.3515,4.3515,4.3515,4.3515,4.3515,4.3331,4.3094,0.0,0.0,0.0,0.0,0.0,0.0,0.0,0.0,0.0,0.0,0.0,0.0,0.0,0.0,0.0,0.0,0.0,3.3807,0.0,0.0,3.3807,3.3807,3.3807,3.3807,3.3807,3.3807,3.3807,3.3807,3.3807,3.3807,3.3807,3.3807,3.3807,3.3807,3.3807,3.3807,3.3807,3.3807,3.3807,3.3807,3.3807,3.3807,3.3807,3.3807,3.3807,0.0,0.0,0.0,0.0,0.0,0.0,0.0,0.0,0.0,3.5266,3.5327,3.525,3.5034,3.4764,3.4694,3.4674,3.4553,3.4813,3.4962,3.4489,3.4551,3.4537,3.3915,3.3807,3.3807,3.3807,3.4706,3.5646,3.6211,3.7221,3.8102,3.8634,3.8946,3.9313,3.9827,4.0396,4.0965,4.1479,4.1791,4.2047,4.2286,4.2561,4.2947,4.3478,4.3515,4.3515,4.3515,4.3515,4.3515,4.3515,4.3515,4.3515,4.3515,4.3515,4.3515,4.3515,4.3515,4.3515,4.3515,4.3515,4.3515,4.3515,4.3515,4.3515,4.3515,4.3515,4.3515,4.3515,4.3515,4.3515,4.3515,0.0,0.0,0.0,0.0,0.0,0.0,0.0,0.0,0.0,0.0,0.0,0.0,0.0,0.0,0.0,0.0,0.0,0.0,0.0,0.0,0.0,3.3807,3.3807,3.3807,3.3807,3.3807,3.3807,3.3807,3.3807,3.3807,3.3807,3.3807,3.3807,3.3807,3.3807,3.3807,3.3807,3.3807,3.3807,3.3807,3.3807,3.3807,3.3807,3.3807,0.0,0.0,0.0,0.0,0.0,0.0,3.4704,3.4754,3.4999,3.5246,3.5417,3.5147,3.5079,3.4999,3.4754,3.4694,3.4754,3.5025,3.5113,3.5053,3.4754,3.4694,3.4537,3.3915,3.3807,3.3807,3.3807,3.5165,3.6303,3.6303,3.7661,3.8707,3.8707,3.9386,3.9918,3.9955,4.135,4.2323,4.2359,4.3039,4.3167,4.2415,4.3057,4.3515,4.3515,4.3515,4.3515,4.3515,4.3515,4.3515,4.3515,4.3515,4.3515,4.3515,4.3515,4.3515,4.3515,4.3515,4.3515,4.3515,4.3515,4.3515,4.3515,4.3515,4.3515,4.3515,4.3515,4.3515,4.3497,4.3462,4.3444,4.3444,0.0,0.0,0.0,0.0,0.0,0.0,0.0,0.0,0.0,0.0,0.0,0.0,0.0,0.0,0.0,0.0,0.0,0.0,0.0,0.0,0.0,0.0,0.0,0.0,0.0,0.0,0.0,0.0,0.0,3.3807,3.3807,3.3807,3.3807,3.3807,3.3807,3.3807,3.3807,3.3807,3.3807,3.3807,0.0,3.3807,3.3807,0.0,0.0,0.0,0.0,0.0,0.0,3.4622,3.4822,3.4972,3.4832,3.486,3.4898,3.4813,3.4634,3.4478,3.4653,3.4694,3.4754,3.5025,3.5239,3.5281,3.4822,3.4694,3.4537,3.3915,3.3807,3.3807,3.3807,3.5165,3.6303,3.6303,3.7661,3.8707,3.8707,3.9386,4.012,4.0726,4.1699,4.2543,4.313,4.3386,4.3423,4.3221,4.3386,4.3515,4.3515,4.3515,4.3515,4.3515,4.3515,4.3515,4.3515,4.3515,4.3515,4.3515,4.3515,4.3515,4.3515,4.3515,4.3515,4.3515,4.3515,4.3515,4.3515,4.3515,4.3515,4.3515,4.3515,4.3515,4.3444,4.305,4.2902,4.2827,0.0,0.0,0.0,0.0,0.0,0.0,0.0,0.0,0.0,0.0,0.0,0.0,0.0,0.0,0.0,0.0,0.0,0.0,0.0,0.0,0.0,0.0,0.0,0.0,0.0,0.0,0.0,0.0,0.0,0.0,0.0,3.3623,3.3807,3.3807,3.3807,3.3807,3.3807,0.0,0.0,0.0,0.0,0.0,0.0,0.0,0.0,0.0,0.0,0.0,0.0,3.3478,3.3827,3.4338,3.4168,3.4129,3.4099,3.3995,3.4076,3.4235,3.4423,3.4486,3.4582,3.4999,3.5122,3.5105,3.4917,3.4665,3.4379,3.4062,3.3876,3.3807,3.3807,3.4871,3.5862,3.6229,3.7349,3.8303,3.8652,3.9698,4.0598,4.104,4.2121,4.3002,4.346,4.3515,4.3515,4.3515,4.3515,4.3515,4.3515,4.3515,4.3515,4.3515,4.3515,4.3515,4.3515,4.3515,4.3515,4.3515,4.3515,4.3515,4.3515,4.3515,4.3515,4.3515,4.3515,4.3515,4.3515,4.3515,4.3375,4.3178,4.341,4.3196,4.2753,4.2713,4.2519,4.2262,0.0,0.0,0.0,0.0,0.0,0.0,0.0,0.0,0.0,0.0,0.0,0.0,0.0,0.0,0.0,0.0,0.0,0.0,0.0,0.0,0.0,0.0,0.0,0.0,0.0,0.0,0.0,0.0,0.0,0.0,0.0,0.0,0.0,0.0,0.0,0.0,0.0,0.0,0.0,0.0,0.0,0.0,0.0,0.0,0.0,0.0,0.0,0.0,0.0,3.2013,3.241,3.3184,3.3145,3.321,3.3254,3.3011,3.3527,3.414,3.4188,3.42,3.4338,3.4907,3.4879,3.4744,3.4954,3.4584,3.4188,3.414,3.3961,3.3807,3.3807,3.4454,3.5298,3.6156,3.6978,3.7786,3.8597,4.0086,4.1095,4.1095,4.2525,4.3515,4.3515,4.3515,4.3515,4.3515,4.3515,4.3515,4.3515,4.3515,4.3515,4.3515,4.3515,4.3515,4.3515,4.3515,4.3515,4.3515,4.3515,4.3515,4.3515,4.3515,4.3515,4.3515,4.3515,4.3515,4.3479,4.3427,4.3124,4.275,4.3124,4.2658,4.1853,4.2302,4.2142,4.1664,0.0,0.0,0.0,0.0,0.0,0.0,0.0,0.0,0.0,0.0,0.0,0.0,0.0,0.0,0.0,0.0,0.0,0.0,0.0,0.0,0.0,0.0,0.0,0.0,0.0,0.0,0.0,3.3587,3.3733,0.0,0.0,0.0,0.0,0.0,0.0,0.0,0.0,0.0,0.0,0.0,0.0,0.0,0.0,0.0,0.0,0.0,0.0,0.0,0.0,0.0,3.1928,3.203,3.1828,3.2213,3.2742,3.2679,3.3237,3.3928,3.4147,3.42,3.4281,3.4665,3.4724,3.4643,3.4423,3.4269,3.4135,3.3915,3.3829,3.3807,3.3807,3.4454,3.5298,3.6156,3.6978,3.7786,3.8597,4.0086,4.1095,4.1095,4.2525,4.3515,4.3515,4.3515,4.3515,4.3515,4.3515,4.3515,4.3515,4.3515,4.3515,4.3515,4.3515,4.3515,4.3515,4.3515,4.3515,4.3515,4.3515,4.3515,4.3515,4.3515,4.3515,4.3515,4.3515,4.3515,4.348,4.3014,4.2788,4.2655,4.2264,4.1961,4.175,4.1358,4.1155,4.0995,0.0,0.0,0.0,0.0,0.0,0.0,0.0,0.0,0.0,0.0,0.0,0.0,0.0,0.0,0.0,0.0,0.0,0.0,0.0,0.0,0.0,0.0,0.0,0.0,0.0,3.254,3.2339,3.1935,0.0,3.2339,3.1935,3.2357,3.254,3.254,3.254,0.0,0.0,0.0,0.0,0.0,0.0,0.0,0.0,0.0,0.0,0.0,0.0,0.0,0.0,0.0,3.0343,3.0394,3.068,3.1329,3.1971,3.1971,3.2834,3.3829,3.3961,3.3999,3.4056,3.4357,3.4341,3.426,3.4431,3.4225,3.3981,3.4012,3.3902,3.3807,3.3807,3.4119,3.4798,3.6083,3.6615,3.7294,3.8524,4.0086,4.1095,4.1095,4.2525,4.3515,4.3515,4.3515,4.3515,4.3515,4.3515,4.3515,4.3515,4.3515,4.3515,4.3515,4.3515,4.3515,4.3515,4.3515,4.3515,4.3515,4.3515,4.3515,4.3515,4.3515,4.3515,4.3479,4.3214,4.3069,4.3032,4.2462,4.2059,4.1768,4.1789,4.1442,4.0914,4.0897,4.0709,4.0449,0.0,0.0,0.0,0.0,0.0,0.0,0.0,0.0,0.0,0.0,0.0,0.0,0.0,0.0,0.0,0.0,0.0,0.0,0.0,0.0,0.0,0.0,0.0,0.0,0.0,0.0,0.0,3.0467,3.1091,0.0,0.0,0.0,0.0,0.0,3.1397,3.1397,3.1397,0.0,0.0,0.0,0.0,3.0889,0.0,0.0,0.0,0.0,0.0,0.0,2.9861,2.9207,2.9005,2.9127,2.9803,3.0533,3.1189,3.1415,3.2463,3.3587,3.3752,3.3807,3.3855,3.4068,3.3948,3.3915,3.4405,3.4136,3.3868,3.408,3.3948,3.3807,3.3807,3.3807,3.4284,3.5789,3.6174,3.6798,3.8248,3.9827,4.0912,4.1077,4.2378,4.3296,4.3478,4.3515,4.3515,4.3515,4.3515,4.3515,4.3515,4.3515,4.3515,4.3515,4.3515,4.3515,4.3515,4.3515,4.3515,4.3515,4.3392,4.3339,4.3321,4.3196,4.3123,4.3105,4.2694,4.25,4.246,4.1853,4.1335,4.0926,4.1308,4.0885,4.0146,4.0577,4.0449,4.0096,0.0,0.0,0.0,0.0,0.0,0.0,0.0,0.0,0.0,0.0,0.0,0.0,0.0,0.0,0.0,0.0,0.0,0.0,0.0,0.0,0.0,0.0,0.0,0.0,0.0,0.0,0.0,3.1286,3.136,0.0,0.0,0.0,0.0,0.0,0.0,3.1397,3.136,3.0613,0.0,0.0,0.0,0.0,0.0,0.0,0.0,0.0,0.0,2.9115,2.9097,2.9023,2.9005,2.9051,2.9381,2.9858,3.0508,3.1477,3.2212,3.2858,3.3605,3.3807,3.382,3.3829,3.3815,3.3802,3.3868,3.3842,3.382,3.3829,3.3815,3.3807,3.3807,3.3807,3.41,3.4986,3.5789,3.6611,3.7492,3.9016,4.0286,4.1003,4.1882,4.269,4.3441,4.3515,4.3515,4.3515,4.3515,4.3515,4.3515,4.3515,4.3515,4.3515,4.3515,4.3515,4.3515,4.3515,4.3515,4.3479,4.2995,4.2769,4.2751,4.2203,4.1958,4.194,4.1898,4.1895,4.1832,4.1246,4.0949,4.0874,4.0417,4.0179,4.0113,4.0171,4.0146,4.0096,0.0,0.0,0.0,0.0,0.0,0.0,0.0,0.0,0.0,0.0,0.0,0.0,0.0,0.0,0.0,0.0,0.0,0.0,0.0,0.0,0.0,0.0,0.0,0.0,0.0,0.0,2.9971,2.9971,2.9971,0.0,0.0,0.0,0.0,0.0,0.0,2.9971,2.9934,2.961,0.0,0.0,0.0,0.0,0.0,0.0,0.0,0.0,0.0,0.0,2.9005,2.9005,2.9005,2.9067,2.9465,2.9639,2.9905,3.0812,3.1659,3.2415,3.2943,3.3202,3.3401,3.3718,3.3807,3.3807,3.3807,3.344,3.322,3.3697,3.3421,3.3238,3.3715,3.3807,3.4064,3.4876,3.572,3.6593,3.7382,3.8888,4.0194,4.1003,4.1809,4.2616,4.3423,4.3515,4.3515,4.3515,4.3515,4.3515,4.3515,4.3515,4.3515,4.3515,4.3515,4.3515,4.3515,4.3178,4.3014,4.3014,4.2442,4.2162,4.2142,4.1916,4.181,4.1789,4.1424,4.1268,4.1223,4.0648,4.0417,4.0392,4.0179,4.0096,4.0096,4.0096,4.0096,4.0096,0.0,0.0,0.0,0.0,0.0,0.0,0.0,0.0,0.0,0.0,0.0,0.0,0.0,0.0,0.0,0.0,0.0,0.0,0.0,0.0,0.0,0.0,0.0,0.0,0.0,0.0,0.0,2.9005,2.9005,2.9005,0.0,0.0,2.9005,2.9005,0.0,0.0,0.0,0.0,0.0,0.0,0.0,0.0,0.0,0.0,0.0,0.0,0.0,0.0,0.0,0.0,0.0,2.9078,2.9485,0.0,0.0,3.0554,3.1242,3.1833,3.226,3.2494,3.2725,3.3022,3.3091,3.3091,3.3091,3.2651,3.2412,3.2963,3.2834,3.2766,3.3348,3.3642,3.399,0.0,3.5587,3.6486,3.707,3.8524,3.9937,4.0967,4.159,4.2359,4.3387,4.3515,4.3427,4.3268,4.3268,4.3196,4.3014,4.2996,4.3069,4.325,4.3268,4.3178,4.2996,4.2619,4.2422,4.244,4.1832,4.1534,4.1552,4.1375,4.1308,4.1263,4.0868,4.0655,4.0631,4.0254,4.0096,4.0096,4.0096,4.0096,4.0096,4.0096,4.0096,4.0096,0.0,0.0,0.0,0.0,0.0,0.0,0.0,0.0,0.0,0.0,0.0,0.0,0.0,0.0,0.0,0.0,0.0,0.0,0.0,0.0,0.0,0.0,0.0,0.0,0.0,0.0,0.0,0.0,0.0,2.9005,2.9005,2.9005,2.9005,2.9005,0.0,0.0,0.0,0.0,0.0,0.0,0.0,0.0,0.0,0.0,0.0,0.0,0.0,0.0,0.0,0.0,0.0,0.0,0.0,0.0,0.0,0.0,3.1107,3.1045,3.1646,3.1812,3.1745,3.1489,3.1415,3.1415,3.1415,3.1415,3.1415,3.1415,3.2045,3.2601,3.2601,3.3256,3.3807,3.3807,3.5202,3.6303,3.6303,3.7698,3.9313,4.0912,4.1113,4.1754,4.3332,4.3515,4.3268,4.275,4.2711,4.246,4.1853,4.1832,4.2101,4.2692,4.2711,4.2422,4.1814,4.1793,4.181,4.181,4.1201,4.0943,4.099,4.0402,4.0121,4.0121,4.0096,4.0096,4.0096,4.0096,4.0096,4.0096,4.0096,4.0096,4.0096,4.0096,4.0096,4.0096,0.0,0.0,0.0,0.0,0.0,0.0,0.0,0.0,0.0,0.0,0.0,0.0,0.0,0.0,0.0,0.0,0.0,0.0,0.0,0.0,0.0,0.0,0.0,0.0,0.0,0.0,0.0,0.0,0.0,0.0,0.0,2.9005,2.9005,2.9005,2.9005,2.9005,0.0,0.0,0.0,0.0,0.0,0.0,0.0,0.0,0.0,0.0,0.0,0.0,0.0,0.0,0.0,0.0,0.0,0.0,0.0,0.0,0.0,3.0628,3.0908,3.1073,3.1216,3.1353,3.1397,3.1397,3.1397,3.0962,3.0742,3.1286,3.1599,3.1953,3.2491,3.3256,3.3807,3.3807,3.5202,3.6303,3.6303,3.7698,3.9132,4.0344,4.1138,4.1944,4.2866,4.258,4.2444,4.2674,4.2322,4.2,4.181,4.181,4.1895,4.208,4.2062,4.1979,4.181,4.1402,4.1161,4.1178,4.0625,4.036,4.0377,4.0196,4.0096,4.0096,4.0096,4.0096,4.0096,4.0096,4.0096,4.0096,4.0096,4.0096,4.0096,4.0096,4.0096,4.0096,0.0,0.0,0.0,0.0,0.0,0.0,0.0,0.0,0.0,0.0,0.0,0.0,0.0,0.0,0.0,0.0,0.0,0.0,0.0,0.0,0.0,0.0,0.0,0.0,0.0,0.0,0.0,0.0,0.0,0.0,0.0,0.0,0.0,2.9005,2.9005,2.9005,0.0,0.0,0.0,0.0,0.0,0.0,2.9005,0.0,0.0,0.0,0.0,0.0,0.0,0.0,0.0,0.0,0.0,0.0,0.0,0.0,0.0,3.0144,3.0237,3.0349,3.0462,3.0492,3.0485,3.0485,3.0485,3.0118,2.9886,3.0393,3.098,3.1562,3.2045,3.3054,3.3807,3.3807,3.5202,3.6303,3.6303,3.7506,3.8782,3.9801,4.0793,4.1638,4.2286,4.2021,4.1874,4.2,4.1664,4.1358,4.1173,4.1168,4.1168,4.1168,4.1335,4.1358,4.115,4.0797,4.0601,4.0601,4.0262,4.0096,4.0096,4.0096,4.0096,4.0096,4.0096,4.0096,0.0,4.0096,4.0096,4.0096,4.0096,4.0096,4.0096,4.0096,4.0096,4.0096,0.0,0.0,0.0,0.0,0.0,0.0,0.0,0.0,0.0,0.0,0.0,0.0,0.0,0.0,0.0,0.0,0.0,0.0,0.0,0.0,0.0,0.0,0.0,0.0,0.0,0.0,0.0,0.0,2.9005,2.9005,0.0,0.0,0.0,0.0,0.0,0.0,0.0,0.0,0.0,0.0,0.0,0.0,0.0,0.0,0.0,0.0,0.0,0.0,0.0,0.0,0.0,0.0,0.0,0.0,0.0,0.0,0.0,0.0,0.0,2.9687,2.957,2.9115,2.9005,2.9005,2.9005,2.9005,0.0,2.9005,3.0283,3.1397,3.1397,3.2706,3.3807,3.3807,3.5202,3.6303,3.6303,3.7275,3.8348,3.9315,4.0156,4.0933,4.1676,4.1703,4.1468,4.0949,4.0856,4.0625,4.0121,4.0096,4.0096,4.0096,4.0577,4.0601,4.0096,4.0096,4.0096,4.0096,4.0096,4.0096,4.0096,4.0096,4.0096,4.0096,4.0096,4.0096,4.0096,4.0096,4.0096,4.0096,4.0096,4.0096,4.0096,4.0096,4.0096,4.0096,0.0,0.0,0.0,0.0,0.0,0.0,0.0,0.0,0.0,0.0,0.0,0.0,0.0,0.0,0.0,0.0,0.0,0.0,0.0,0.0,0.0,0.0,0.0,0.0,0.0,0.0,0.0,2.9005,2.9005,2.9005,2.9005,2.9005,0.0,0.0,0.0,0.0,0.0,0.0,0.0,0.0,0.0,0.0,0.0,0.0,0.0,0.0,2.9005,2.9005,0.0,0.0,0.0,0.0,0.0,0.0,0.0,0.0,2.9589,0.0,0.0,0.0,2.9394,2.9078,2.9005,2.9005,0.0,2.9005,2.9005,2.9005,3.0283,3.1397,3.1397,3.2706,3.3807,3.3807,3.5202,3.6303,3.6303,3.7879,3.8987,3.8837,3.9658,4.0483,4.1047,4.0744,4.0601,4.088,4.0521,4.0229,4.0096,4.0096,4.0096,4.0096,4.0229,4.0229,4.0096,4.0096,4.0096,4.0096,4.0096,4.0096,4.0096,4.0096,4.0096,4.0096,4.0096,4.0096,4.0096,4.0096,4.0096,4.0096,4.0096,4.0096,4.0096,4.0096,4.0096,4.0096,0.0,0.0,0.0,0.0,0.0,0.0,0.0,0.0,0.0,0.0,0.0,0.0,0.0,0.0,0.0,0.0,0.0,0.0,0.0,0.0,0.0,0.0,0.0,0.0,0.0,0.0,0.0,0.0,0.0,2.9005,0.0,0.0,0.0,0.0,0.0,0.0,0.0,0.0,0.0,0.0,2.9005,0.0,0.0,0.0,0.0,0.0,2.9225,2.9171,0.0,2.9171,2.91,2.9028,0.0,0.0,0.0,0.0,2.9395,0.0,0.0,2.9474,2.9341,2.9067,2.9005,2.9005,2.9005,2.9005,2.9097,2.9464,3.054,3.1513,3.188,3.2811,3.3706,3.4257,3.5063,3.5784,3.6288,3.7819,3.8737,3.8334,3.9071,3.9831,4.0487,4.0262,4.0229,4.0521,4.0262,4.0096,4.0096,4.0096,4.0096,4.0096,4.0096,4.0096,4.0096,4.0096,4.0096,4.0096,4.0096,4.0096,4.0096,4.0096,4.0096,4.0096,4.0096,4.0096,4.0096,4.0096,4.0096,4.0096,4.0096,4.0096,4.0096,4.0096,3.9876,3.961,0.0,0.0,0.0,0.0,0.0,0.0,0.0,0.0,0.0,0.0,0.0,0.0,0.0,0.0,0.0,0.0,0.0,0.0,0.0,0.0,0.0,0.0,0.0,0.0,0.0,0.0,0.0,0.0,0.0,0.0,0.0,0.0,0.0,0.0,0.0,0.0,0.0,0.0,0.0,0.0,2.9005,0.0,0.0,0.0,0.0,0.0,0.0,0.0,0.0,2.9444,2.9259,2.91,2.933,0.0,0.0,0.0,0.0,0.0,2.9363,2.9384,2.9278,2.9062,2.9005,2.9005,2.9005,2.9097,2.9372,3.0063,3.0944,3.1775,3.2389,3.2952,3.3618,3.4608,3.4885,3.5308,3.6269,3.7533,3.8234,3.7939,3.865,3.9394,4.0045,4.0096,4.0096,4.0096,4.0096,4.0096,4.0096,4.0096,4.0096,4.0096,4.0096,4.0096,4.0096,4.0096,4.0096,4.0096,4.0096,4.0096,4.0096,4.0096,4.0096,4.0096,4.0096,4.0096,4.0096,4.0096,4.0096,4.0096,4.0096,4.0096,4.007,3.9952,3.9489,3.8962,0.0,0.0,0.0,0.0,0.0,0.0,0.0,0.0,0.0,0.0,0.0,0.0,0.0,0.0,0.0,0.0,0.0,0.0,0.0,0.0,0.0,0.0,0.0,0.0,0.0,0.0,0.0,0.0,0.0,0.0,2.9005,2.9005,2.9005,0.0,0.0,0.0,0.0,0.0,0.0,0.0,2.9005,0.0,0.0,0.0,0.0,0.0,0.0,0.0,0.0,2.9652,2.9504,2.9351,2.9392,0.0,0.0,0.0,0.0,0.0,2.9523,2.9346,2.9044,2.9017,2.9005,2.9005,2.9005,2.9537,3.0063,3.0173,3.1384,3.2344,3.2121,3.298,3.3731,3.3794,3.4889,3.5887,3.6356,3.7637,3.8392,3.7943,3.9089,3.9977,4.0096,4.0096,4.0096,4.0096,4.0096,4.0096,4.0096,4.0096,4.0096,4.0096,4.0096,4.0096,4.0096,4.0096,4.0096,4.0096,4.0096,4.0096,4.0096,4.0096,4.0096,4.0096,4.0096,4.0096,4.0096,4.0096,4.0096,4.0096,4.0096,4.0096,4.002,3.9342,3.9005,3.8827,0.0,0.0,0.0,0.0,0.0,0.0,0.0,0.0,0.0,0.0,0.0,0.0,0.0,0.0,0.0,0.0,0.0,0.0,0.0,0.0,0.0,0.0,0.0,0.0,0.0,0.0,0.0,0.0,0.0,2.9005,2.9005,2.9005,2.9005,2.9005,0.0,0.0,0.0,0.0,0.0,0.0,0.0,0.0,0.0,0.0,0.0,0.0,0.0,0.0,0.0,0.0,2.9739,2.9561,2.9561,0.0,0.0,0.0,0.0,0.0,2.9262,2.9152,2.9005,2.9005,2.9005,2.9005,2.9005,2.961,3.032,3.076,3.1788,3.2605,3.2643,3.3229,3.3776,3.4048,3.5507,3.6443,3.6024,3.7499,3.8441,3.796,3.9191,4.0096,4.0096,4.0096,4.0096,4.0096,4.0096,4.0096,4.0096,4.0096,4.0096,4.0096,4.0096,4.0096,4.0096,4.0096,4.0096,4.0096,4.0096,4.0096,4.0096,4.0096,4.0096,4.0096,4.0096,4.0096,4.0096,4.0096,4.0096,4.0045,3.961,3.9463,3.9315,3.8101,3.7946,3.8133,0.0,0.0,0.0,0.0,0.0,0.0,0.0,0.0,0.0,0.0,0.0,0.0,0.0,0.0,0.0,0.0,0.0,0.0,0.0,0.0,0.0,0.0,0.0,0.0,0.0,0.0,0.0,2.9005,2.9005,2.9005,2.9005,2.9005,2.9005,0.0,0.0,0.0,0.0,0.0,0.0,0.0,0.0,0.0,0.0,0.0,0.0,0.0,0.0,0.0,0.0,0.0,0.0,0.0,0.0,0.0,0.0,0.0,2.91,2.9017,2.9078,2.9044,2.9005,2.9005,2.9005,2.906,2.9244,2.9826,3.0581,3.1367,3.2087,3.2635,3.2842,3.3262,3.3794,3.455,3.5876,3.6542,3.5717,3.7245,3.83,3.7936,3.9191,4.0096,4.0096,4.0096,4.0096,4.0096,4.0096,4.0096,4.0096,4.0096,4.0096,4.0096,4.0096,4.0096,4.0096,4.0096,4.0096,4.0096,4.0096,4.0096,4.0096,4.0096,4.0096,4.0096,4.0096,4.0096,4.0096,4.0096,3.9995,3.9756,3.9139,3.8674,3.8213,3.7038,3.6889,3.7101,0.0,0.0,0.0,0.0,0.0,0.0,0.0,0.0,0.0,0.0,0.0,0.0,0.0,0.0,0.0,0.0,0.0,0.0,0.0,0.0,0.0,0.0,0.0,0.0,0.0,2.9005,2.9005,2.9005,2.9005,2.9005,2.9005,2.9005,2.9005,0.0,0.0,0.0,0.0,0.0,0.0,0.0,0.0,0.0,0.0,0.0,0.0,0.0,0.0,0.0,0.0,0.0,0.0,0.0,0.0,0.0,0.0,0.0,2.9336,2.9044,2.9299,2.92,2.9005,2.9005,2.9005,2.9207,2.9953,3.0446,3.0982,3.1791,3.2263,3.238,3.1986,3.2728,3.3809,3.497,3.5467,3.5694,3.5622,3.6965,3.7953,3.7905,3.9191,4.0096,4.0096,4.0096,4.0096,4.0096,4.0096,4.0096,4.0096,4.0096,4.0096,4.0096,4.0096,4.0096,4.0096,4.0096,4.0096,4.0096,4.0096,4.0096,4.0096,4.0096,4.0096,4.0096,4.0096,4.0096,4.0096,4.0096,3.9662,3.8962,3.8908,3.8015,3.6752,3.663,3.6196,3.5651,0.0,0.0,0.0,0.0,0.0,0.0,0.0,0.0,0.0,0.0,0.0,0.0,0.0,0.0,0.0,0.0,0.0,0.0,0.0,0.0,0.0,0.0,0.0,2.9005,2.9005,2.9005,2.9005,2.9005,2.9005,2.9005,2.9005,2.9005,0.0,0.0,0.0,0.0,0.0,0.0,0.0,0.0,0.0,0.0,0.0,0.0,0.0,0.0,0.0,0.0,0.0,0.0,2.9809,0.0,0.0,0.0,0.0,0.0,2.9149,2.9028,2.9123,2.9078,2.9005,2.9005,2.9372,2.9831,3.0136,3.0901,3.1621,3.1942,3.2257,3.2649,3.3127,3.3707,3.4384,3.5309,3.553,3.56,3.56,3.6918,3.7905,3.7905,3.9191,4.0096,4.0096,4.0096,4.0096,4.0096,4.0096,4.0096,4.0096,4.0096,4.0096,4.0096,4.0096,4.0096,4.0096,4.0096,4.0096,4.0096,4.0096,4.0096,4.0096,4.0096,4.0096,4.0096,4.0096,3.9808,3.9342,3.9342,3.8897,3.8161,3.7687,3.6828,3.5926,3.5926,3.5718,3.5504,0.0,0.0,0.0,0.0,0.0,0.0,0.0,0.0,0.0,0.0,0.0,0.0,0.0,0.0,0.0,0.0,0.0,0.0,0.0,0.0,0.0,0.0,0.0,2.9005,2.9005,2.9005,2.9005,2.9005,2.9005,2.9005,2.9005,0.0,0.0,0.0,0.0,0.0,0.0,0.0,0.0,0.0,0.0,0.0,0.0,0.0,0.0,0.0,0.0,0.0,0.0,0.0,0.0,0.0,0.0,0.0,0.0,0.0,0.0,2.9005,2.9005,2.9005,2.9005,2.9005,2.9794,3.0552,3.0428,3.111,3.1813,3.1923,3.2207,3.2785,3.4017,3.4368,3.4742,3.5481,3.56,3.56,3.56,3.6738,3.755,3.755,3.8836,3.9757,3.9757,3.996,4.0096,4.0096,4.0096,4.0096,4.0096,4.0096,4.0096,4.0096,4.0096,4.0096,4.0096,4.0096,4.0096,4.0096,4.0096,4.0096,4.0096,3.9833,3.9731,3.9705,3.948,3.9049,3.8553,3.8553,3.8104,3.7338,3.6569,3.5943,3.5504,3.5504,3.5504,3.5504,0.0,0.0,0.0,0.0,0.0,0.0,0.0,0.0,0.0,0.0,0.0,0.0,0.0,0.0,0.0,0.0,0.0,0.0,0.0,0.0,0.0,0.0,0.0,2.9005,2.9005,2.9005,2.9005,2.9005,2.9005,2.9005,2.9005,0.0,0.0,0.0,0.0,0.0,0.0,0.0,0.0,0.0,0.0,0.0,0.0,0.0,0.0,0.0,0.0,0.0,0.0,0.0,0.0,0.0,0.0,0.0,0.0,0.0,2.9222,2.9005,2.9005,2.9005,2.9005,2.9005,3.021,3.1283,3.0898,3.1064,3.1417,3.1741,3.2068,3.2767,3.4218,3.4506,3.4742,3.5481,3.56,3.56,3.56,3.6282,3.6795,3.6795,3.8091,3.8988,3.8988,3.9673,4.0096,4.0096,4.0096,4.0096,4.0096,4.0096,4.0096,4.0096,4.0096,4.0096,4.0096,4.0096,4.0096,4.0096,4.0096,4.007,4.007,3.9262,3.8908,3.8854,3.8121,3.7793,3.7793,3.7793,3.7308,3.6523,3.5782,3.5504,3.5504,3.5504,3.5504,3.5504,0.0,0.0,0.0,0.0,0.0,0.0,0.0,0.0,0.0,0.0,0.0,0.0,0.0,0.0,0.0,0.0,0.0,0.0,0.0,0.0,0.0,0.0,0.0,0.0,0.0,0.0,2.9005,2.9005,2.9005,2.9005,0.0,0.0,0.0,2.9005,0.0,0.0,0.0,0.0,0.0,0.0,0.0,0.0,0.0,0.0,0.0,0.0,0.0,0.0,0.0,0.0,0.0,0.0,0.0,0.0,0.0,2.9089,2.9055,2.9005,2.9005,2.9005,2.9005,2.9005,3.0,3.0866,3.0413,3.1257,3.2159,3.216,3.2629,3.3372,3.432,3.4928,3.5346,3.5566,3.56,3.56,3.56,3.6282,3.6795,3.6795,3.7635,3.8227,3.8227,3.8886,3.9326,3.9326,3.9808,4.0096,4.0096,4.0096,4.0096,4.0096,4.0096,4.0096,4.0096,4.0096,4.0096,4.0096,3.9516,3.9262,3.9262,3.9005,3.8608,3.8104,3.7892,3.7485,3.6919,3.6399,3.6053,3.5814,3.5587,3.5504,3.5504,3.5504,3.5504,3.5504,0.0,0.0,0.0,0.0,0.0,0.0,0.0,0.0,0.0,0.0,0.0,0.0,0.0,0.0,0.0,0.0,0.0,0.0,0.0,0.0,0.0,0.0,0.0,0.0,0.0,2.9005,2.9005,0.0,0.0,0.0,0.0,0.0,0.0,2.9005,0.0,0.0,0.0,0.0,0.0,0.0,0.0,0.0,0.0,0.0,0.0,0.0,0.0,0.0,0.0,0.0,0.0,0.0,0.0,0.0,0.0,2.9005,2.9005,2.9005,2.9005,2.9005,2.9005,2.9005,2.9924,3.0801,3.0786,3.1394,3.2117,3.2635,3.3085,3.3711,3.4759,3.5295,3.56,3.56,3.56,3.56,3.56,3.6028,3.6315,3.6315,3.6992,3.7449,3.7449,3.8125,3.8565,3.8565,3.8971,3.9368,3.9656,3.9673,3.9808,4.0096,4.0096,4.0096,4.0096,4.0096,3.9927,3.961,3.9139,3.8591,3.7987,3.7987,3.7745,3.7308,3.6995,3.6615,3.6149,3.5668,3.5504,3.5504,3.5504,3.5504,3.5504,3.5504,3.5504,3.5504,0.0,0.0,0.0,0.0,0.0,0.0,0.0,0.0,0.0,0.0,0.0,0.0,0.0,0.0,0.0,0.0,0.0,0.0,0.0,0.0,0.0,0.0,0.0,0.0,0.0,0.0,0.0,0.0,0.0,0.0,0.0,0.0,2.9005,2.9005,0.0,2.9005,0.0,0.0,0.0,0.0,0.0,0.0,0.0,0.0,0.0,0.0,0.0,0.0,0.0,0.0,0.0,0.0,2.9005,2.9005,2.9005,2.9005,2.9005,2.9005,2.9005,2.9005,2.8994,2.8952,2.981,3.0871,3.1585,3.1451,3.1596,3.3017,3.3355,3.3846,3.5228,3.5549,3.56,3.56,3.56,3.56,3.56,3.56,3.56,3.56,3.6248,3.6694,3.6694,3.7347,3.7804,3.7804,3.7872,3.8193,3.8853,3.8903,3.9225,3.9977,3.9919,3.9927,3.9978,3.9927,3.9516,3.8799,3.8745,3.7958,3.6615,3.6615,3.6554,3.6461,3.5782,3.5504,3.5504,3.5504,3.5504,3.5504,3.5504,3.5504,3.5504,3.5504,3.5504,3.5504,0.0,0.0,0.0,0.0,0.0,0.0,0.0,0.0,0.0,0.0,0.0,0.0,0.0,0.0,0.0,0.0,0.0,0.0,0.0,0.0,0.0,0.0,0.0,0.0,0.0,0.0,0.0,0.0,0.0,0.0,0.0,0.0,0.0,2.9005,0.0,2.9005,0.0,0.0,0.0,0.0,0.0,0.0,0.0,0.0,0.0,0.0,0.0,0.0,0.0,0.0,0.0,0.0,2.9005,2.9005,2.9005,2.9005,2.9005,2.9005,2.9005,2.9005,2.8929,2.8602,2.9162,3.0056,3.1088,3.1252,3.1444,3.2361,3.3,3.3677,3.4573,3.5216,3.56,3.56,3.56,3.56,3.56,3.56,3.56,3.56,3.5752,3.5853,3.5853,3.6569,3.7049,3.7049,3.7567,3.7973,3.8125,3.8142,3.8464,3.9208,3.8629,3.8576,3.9166,3.8596,3.8206,3.8035,3.7395,3.6918,3.6615,3.6615,3.6275,3.5733,3.5554,3.5504,3.5504,3.5504,3.5504,3.5504,3.5504,3.5504,3.5504,3.5504,3.5504,3.5504,0.0,0.0,0.0,0.0,0.0,0.0,0.0,0.0,0.0,0.0,0.0,0.0,0.0,0.0,0.0,0.0,0.0,0.0,0.0,0.0,0.0,0.0,0.0,0.0,0.0,0.0,0.0,0.0,0.0,0.0,0.0,0.0,0.0,2.9005,0.0,2.9005,0.0,0.0,0.0,0.0,0.0,0.0,0.0,0.0,0.0,0.0,0.0,0.0,0.0,0.0,0.0,0.0,0.0,0.0,2.9005,2.9005,2.9005,2.9005,2.9005,2.9005,2.9022,2.9169,2.9365,2.9799,3.0932,3.119,3.1309,3.1701,3.2357,3.3203,3.4286,3.481,3.5199,3.5532,3.56,3.56,3.56,3.56,3.56,3.56,3.56,3.56,3.56,3.5994,3.6231,3.6231,3.6586,3.6975,3.7347,3.7028,3.7184,3.7903,3.7525,3.7519,3.7877,3.783,3.7602,3.7203,3.6783,3.6415,3.6086,3.6086,3.5863,3.5504,3.5504,3.5504,3.5504,3.5504,3.5504,3.5504,3.5504,3.5504,3.5504,3.5504,3.5504,3.5424,0.0,0.0,0.0,0.0,0.0,0.0,0.0,0.0,0.0,0.0,0.0,0.0,0.0,0.0,0.0,0.0,0.0,0.0,0.0,0.0,0.0,0.0,0.0,0.0,0.0,0.0,0.0,0.0,0.0,0.0,0.0,0.0,0.0,2.9005,0.0,0.0,0.0,0.0,0.0,0.0,0.0,0.0,0.0,0.0,0.0,0.0,0.0,0.0,0.0,0.0,0.0,0.0,0.0,0.0,2.9005,2.9005,2.9005,2.9005,2.9005,2.8905,2.8983,2.9725,2.9667,2.9695,3.0779,3.1106,3.119,3.119,3.1802,3.2666,3.3901,3.432,3.4692,3.5295,3.5515,3.56,3.56,3.56,3.56,3.56,3.56,3.56,3.56,3.56,3.5538,3.5447,3.5447,3.5671,3.6223,3.5662,3.5686,3.6418,3.6292,3.6338,3.6577,3.7009,3.696,3.6415,3.6415,3.6086,3.5504,3.5504,3.5504,3.5504,3.5504,3.5504,3.5504,3.5504,3.5504,3.5504,3.5504,3.5504,3.5504,3.5504,3.5392,3.5133,0.0,0.0,0.0,0.0,0.0,0.0,0.0,0.0,0.0,0.0,0.0,0.0,0.0,0.0,0.0,0.0,0.0,0.0,0.0,0.0,0.0,0.0,0.0,0.0,0.0,0.0,0.0,0.0,0.0,0.0,0.0,0.0,0.0,2.9005,0.0,0.0,0.0,0.0,0.0,0.0,0.0,0.0,0.0,0.0,0.0,0.0,0.0,0.0,0.0,2.9005,2.9005,0.0,0.0,0.0,2.9005,2.9005,2.9005,2.9005,2.9005,2.852,2.8219,2.8959,2.9121,2.9269,3.0057,3.0734,3.119,3.119,3.1802,3.2361,3.2564,3.3647,3.4523,3.4624,3.5182,3.56,3.56,3.56,3.56,3.56,3.56,3.56,3.56,3.56,3.5362,3.4783,3.4736,3.4529,3.4057,3.3931,3.4227,3.4951,3.4294,3.4527,3.5755,3.5217,3.5162,3.5636,3.5636,3.5587,3.5504,3.5504,3.5504,3.5504,3.5504,3.5504,3.5504,3.5504,3.5504,3.5504,3.5504,3.5504,3.5504,3.5504,3.4953,3.4177,0.0,0.0,0.0,0.0,0.0,0.0,0.0,0.0,0.0,0.0,0.0,0.0,0.0,0.0,0.0,0.0,0.0,0.0,0.0,0.0,0.0,0.0,0.0,0.0,0.0,0.0,0.0,0.0,0.0,0.0,0.0,2.9005,2.9005,0.0,0.0,0.0,0.0,0.0,0.0,0.0,0.0,0.0,0.0,0.0,0.0,0.0,0.0,0.0,0.0,2.9005,2.9005,2.9005,2.9005,0.0,0.0,0.0,2.9005,2.894,2.8737,2.8295,2.8017,2.8537,2.8818,2.9196,2.9939,3.0666,3.119,3.119,3.1464,3.1819,3.2226,3.2835,3.3546,3.4353,3.4776,3.5131,3.5532,3.56,3.56,3.56,3.5276,3.5184,3.556,3.5253,3.4918,3.4624,3.46,3.4309,3.3649,3.3235,3.3181,3.3522,3.3139,3.324,3.3862,3.3908,3.4262,3.4936,3.4936,3.513,3.5504,3.5504,3.5504,3.5504,3.5504,3.5504,3.5504,3.5504,3.5504,3.5424,3.4872,3.4658,3.4591,3.4075,3.3616,3.3136,0.0,0.0,0.0,0.0,0.0,0.0,0.0,0.0,0.0,0.0,0.0,0.0,0.0,0.0,0.0,0.0,0.0,0.0,0.0,0.0,0.0,0.0,0.0,0.0,0.0,0.0,0.0,0.0,0.0,0.0,2.9005,2.9005,2.9005,0.0,2.9005,0.0,0.0,0.0,0.0,0.0,0.0,0.0,0.0,0.0,0.0,0.0,0.0,0.0,2.9005,2.9005,2.9005,2.9005,2.9005,2.9005,0.0,0.0,0.0,2.8917,2.8515,2.8156,2.7938,2.8075,2.8408,2.889,2.9651,3.0395,3.097,3.1157,3.119,3.136,3.1921,3.2175,3.2666,3.3766,3.4252,3.4692,3.525,3.5481,3.56,3.56,3.5005,3.4783,3.5316,3.4736,3.4284,3.4112,3.4087,3.3786,3.3103,3.2598,3.2327,3.2327,3.2279,3.2318,3.2512,3.3155,3.3739,3.4264,3.4264,3.4502,3.4996,3.5175,3.525,3.525,3.5429,3.5504,3.5504,3.5504,3.5359,3.5019,3.4279,3.3842,3.3567,3.2855,3.2464,3.2141,0.0,0.0,0.0,0.0,0.0,0.0,0.0,0.0,0.0,0.0,0.0,0.0,0.0,0.0,0.0,0.0,0.0,0.0,0.0,0.0,0.0,0.0,0.0,0.0,0.0,0.0,0.0,0.0,0.0,0.0,2.9005,2.9005,2.9005,2.9005,2.9005,2.9005,2.9005,0.0,0.0,0.0,0.0,0.0,0.0,0.0,0.0,0.0,0.0,2.9005,2.9005,2.9005,2.9005,2.9005,2.9005,2.9005,2.9005,0.0,0.0,0.0,2.8515,2.8156,2.7811,2.7446,2.7604,2.806,2.8874,2.9634,3.0362,3.1055,3.119,3.1207,3.1241,3.1836,3.2327,3.2395,3.3596,3.4506,3.4539,3.5165,3.56,3.56,3.5005,3.46,3.4664,3.4062,3.3391,3.2734,3.2695,3.2367,3.1668,3.1582,3.1553,3.1553,3.1569,3.1854,3.2482,3.3155,3.3514,3.3544,3.3544,3.3559,3.3619,3.4279,3.4563,3.4593,3.522,3.5504,3.5504,3.5504,3.4953,3.4061,3.4027,3.3449,3.2664,3.2629,3.2033,3.1278,0.0,0.0,0.0,0.0,0.0,0.0,0.0,0.0,0.0,0.0,0.0,0.0,0.0,0.0,0.0,0.0,0.0,0.0,0.0,0.0,0.0,0.0,0.0,0.0,0.0,0.0,0.0,0.0,0.0,2.9005,2.9005,2.9005,2.9005,2.9005,2.9005,2.9005,2.9005,2.9005,0.0,0.0,0.0,0.0,0.0,0.0,0.0,2.9005,2.9005,2.9005,2.9005,2.9005,2.9005,2.9005,2.9005,2.9005,2.9005,2.9005,2.8827,2.8527,2.817,2.7808,2.7409,2.702,2.7352,2.801,2.8824,2.9567,3.0311,3.1055,3.119,3.119,3.119,3.141,3.1752,3.2226,3.275,3.3258,3.3728,3.4438,3.4723,3.4305,3.4096,3.3962,3.3962,3.3365,3.2868,3.2614,3.2586,3.2272,3.1539,3.1511,3.1511,3.1511,3.1511,3.1615,3.1854,3.2093,3.2422,3.2871,3.2871,3.308,3.3499,3.3739,3.3844,3.3888,3.4562,3.51,3.5439,3.4806,3.4327,3.3876,3.2664,3.1997,3.1646,3.102,3.0595,3.0317,0.0,0.0,0.0,0.0,0.0,0.0,0.0,0.0,0.0,0.0,0.0,0.0,0.0,0.0,0.0,0.0,0.0,0.0,0.0,0.0,0.0,0.0,0.0,0.0,0.0,0.0,0.0,0.0,0.0,0.0,0.0,2.9005,2.9005,2.9005,2.9005,2.9005,0.0,0.0,0.0,2.9005,2.9005,2.9005,2.9005,2.9005,2.9005,2.9005,2.9005,2.8917,2.8797,2.8797,2.8725,2.8626,2.8626,2.8626,2.8626,2.8626,2.8438,2.8156,2.7794,2.75,2.721,2.6791,2.7063,2.7638,2.8416,2.9178,2.9939,3.0683,3.1021,3.119,3.119,3.119,3.136,3.1853,3.2141,3.2401,3.2702,3.3537,3.3901,3.3277,3.3208,3.324,3.3271,3.2625,3.2216,3.2216,3.2216,3.2007,3.1524,3.1511,3.1511,3.1511,3.1511,3.1511,3.1511,3.1511,3.172,3.2153,3.2153,3.2392,3.2841,3.3066,3.3155,3.32,3.3858,3.4532,3.5111,3.434,3.3808,3.338,3.1815,3.1007,3.0658,3.0037,2.9792,2.9792,0.0,0.0,0.0,0.0,0.0,0.0,0.0,0.0,0.0,0.0,0.0,0.0,0.0,0.0,0.0,0.0,0.0,0.0,0.0,0.0,0.0,0.0,0.0,0.0,0.0,0.0,0.0,0.0,0.0,0.0,0.0,0.0,2.9005,2.9005,2.9005,2.9005,2.9005,0.0,2.9005,2.9005,2.9005,2.8994,2.8982,2.8982,2.8982,2.897,2.897,2.8725,2.8394,2.8394,2.817,2.7897,2.7897,2.7897,2.7897,2.7897,2.7897,2.7797,0.0,0.0,0.0,2.6791,2.6691,2.6894,2.7621,2.8416,2.9213,2.9956,3.0683,3.119,3.119,3.119,3.1171,3.1171,3.1762,3.2038,3.1461,3.2491,3.3117,3.257,3.246,3.2459,3.252,3.1892,3.1481,3.1511,3.1511,3.1511,3.1511,3.1511,3.1511,3.1511,3.1511,3.1511,3.1511,3.1511,3.1511,3.1511,3.1511,3.1511,3.1525,3.2168,3.2452,3.2497,3.314,3.3798,3.4362,3.4041,3.3401,3.2464,3.1536,3.0582,2.9792,2.9792,2.9792,2.9792,0.0,0.0,0.0,0.0,0.0,0.0,0.0,0.0,0.0,0.0,0.0,0.0,0.0,0.0,0.0,0.0,0.0,0.0,0.0,0.0,0.0,0.0,0.0,0.0,0.0,0.0,0.0,0.0,0.0,0.0,0.0,0.0,0.0,0.0,2.9005,2.9005,2.9005,2.9005,2.9005,2.9005,2.9005,2.8827,2.8565,2.8565,2.8412,2.8201,2.8201,2.8134,2.8034,2.8034,2.7982,2.7897,2.7897,2.7897,0.0,2.7897,2.7692,0.0,2.7317,0.0,0.0,0.0,0.0,0.0,2.7621,2.8416,2.9213,2.9956,3.0683,3.119,3.119,3.0838,3.0539,3.0539,3.0726,3.0796,3.0632,3.1024,3.1055,3.0443,3.0798,3.112,3.1091,3.0889,3.0972,3.1466,3.1511,3.1511,3.1511,3.1511,3.1511,3.1511,3.1511,3.1511,3.1511,3.1511,3.1511,3.1511,3.1511,3.1511,3.1511,3.169,3.178,3.178,3.1821,3.1957,3.2111,3.223,3.1995,3.1499,3.0558,3.0037,2.9792,2.9792,2.9792,2.9792,0.0,0.0,0.0,0.0,0.0,0.0,0.0,0.0,0.0,0.0,0.0,0.0,0.0,0.0,0.0,0.0,0.0,0.0,0.0,0.0,0.0,0.0,0.0,0.0,0.0,0.0,0.0,0.0,0.0,0.0,0.0,0.0,0.0,0.0,0.0,0.0,0.0,2.9005,2.9005,2.8994,2.8827,2.8602,2.8376,2.8232,2.8061,2.7897,2.7897,2.7797,2.7648,2.7648,2.753,2.7394,2.7394,2.7394,2.7394,2.7394,2.7224,0.0,0.0,0.0,2.6691,2.6691,0.0,0.0,2.7232,2.8197,2.9128,2.955,3.0272,3.0821,3.0821,3.0335,2.9913,2.9913,2.9717,2.9563,2.9563,2.9833,2.9808,2.9194,2.9739,3.013,3.0126,3.0357,3.0672,3.1047,3.1346,3.1511,3.1511,3.1511,3.1511,3.1511,3.1511,3.1511,3.1511,3.1511,3.1511,3.1511,3.1511,3.1511,3.1511,3.1161,3.0999,3.0984,3.0506,3.0214,3.0123,3.0515,3.0748,3.079,3.0088,2.9792,2.9792,2.9792,2.9792,2.9792,0.0,0.0,0.0,0.0,0.0,0.0,0.0,0.0,0.0,0.0,0.0,0.0,0.0,0.0,0.0,0.0,0.0,0.0,0.0,0.0,0.0,0.0,0.0,0.0,0.0,0.0,0.0,0.0,0.0,0.0,0.0,0.0,0.0,0.0,0.0,0.0,0.0,2.9005,2.8964,2.8905,2.8552,2.8381,2.8316,2.7964,2.7811,2.7768,2.7856,2.7669,2.7364,2.7466,2.7192,2.6826,2.6826,2.6759,2.6691,2.6691,2.6691,0.0,0.0,0.0,0.0,2.6691,2.6691,0.0,2.6793,2.796,2.9027,2.9111,2.9808,3.0393,3.0393,2.9908,2.9473,2.9406,2.8896,2.8487,2.8487,2.8904,2.9022,2.8553,2.8956,2.9327,2.948,2.9968,3.0357,3.0492,3.1122,3.1511,3.1511,3.1511,3.1511,3.1511,3.1511,3.1511,3.1511,3.1511,3.1511,3.1511,3.1409,3.138,3.1351,3.0524,3.0178,3.0103,2.9223,2.8679,2.8481,2.9013,2.9643,3.0197,2.9897,2.9792,2.9792,2.9792,2.9792,2.9792,0.0,0.0,0.0,0.0,0.0,0.0,0.0,0.0,0.0,0.0,0.0,0.0,0.0,0.0,0.0,0.0,0.0,0.0,0.0,0.0,0.0,0.0,0.0,0.0,0.0,0.0,0.0,0.0,0.0,0.0,0.0,0.0,0.0,0.0,0.0,0.0,0.0,2.9005,2.8797,2.8515,2.8433,2.8237,2.795,2.756,2.7225,2.7007,2.7623,2.7777,2.781,2.8456,2.8182,2.7587,2.7587,2.7182,2.6691,2.6691,2.6691,2.6691,2.6691,2.6691,2.6691,2.6691,2.6691,0.0,2.7452,2.8315,2.9179,2.977,3.0487,3.1015,3.1015,3.0518,2.9973,2.9473,2.8896,2.8487,2.8487,2.8174,2.7905,2.7805,2.7896,2.8177,2.8753,2.8906,2.94,3.0432,3.1122,3.1511,3.1511,3.1511,3.1511,3.1511,3.1511,3.1511,3.1511,3.1511,3.1511,3.1511,3.0837,3.0524,3.0524,2.9659,2.9254,2.9223,2.833,2.7921,2.7874,2.8228,2.8668,2.9238,2.9642,2.9792,2.9792,2.9792,2.9792,2.9792,0.0,0.0,0.0,0.0,0.0,0.0,0.0,0.0,0.0,0.0,0.0,0.0,0.0,0.0,0.0,0.0,0.0,0.0,0.0,0.0,0.0,0.0,0.0,0.0,0.0,0.0,0.0,0.0,0.0,0.0,0.0,0.0,0.0,0.0,0.0,0.0,2.8694,2.8694,2.8577,2.8394,2.8224,2.7936,2.7597,2.756,2.7419,2.7351,2.8129,2.8399,2.8467,2.8857,2.8721,2.8399,2.8399,2.8129,2.7859,2.7859,2.7859,2.7859,2.7859,2.7859,2.7859,2.7859,2.7859,0.0,0.0,2.8991,2.9651,3.0023,3.0451,3.074,3.074,3.0016,2.9293,2.9012,2.8424,2.8042,2.8042,2.7785,2.76,2.76,2.76,2.7735,2.8079,2.8397,2.9131,3.0402,3.0821,3.1137,3.1481,3.1511,3.1511,3.1511,3.1511,3.1511,3.1511,3.1087,3.0896,3.0896,3.0042,2.9659,2.9628,2.8748,2.833,2.8298,2.7484,2.7095,2.7138,2.7556,2.8021,2.8599,2.9465,2.9792,2.9792,2.9792,2.9792,2.9792,0.0,0.0,0.0,0.0,0.0,0.0,0.0,0.0,0.0,0.0,0.0,0.0,0.0,3.2367,3.2401,0.0,0.0,0.0,3.3045,3.1685,3.0982,0.0,0.0,2.904,0.0,0.0,0.0,0.0,0.0,0.0,0.0,0.0,0.0,0.0,0.0,0.0,2.8298,2.8298,2.8335,2.8385,2.811,2.7802,2.7551,2.7896,2.8027,2.8128,2.8924,2.9297,2.9416,2.9416,2.9331,2.9213,2.9213,2.9038,2.8848,2.8956,2.892,2.8848,2.8956,2.8993,2.8993,2.8993,2.8993,2.9044,0.0,0.0,0.0,3.0294,3.0416,3.0435,3.0314,2.9496,2.8732,2.8372,2.8,2.769,2.7445,2.751,2.76,2.76,2.76,2.76,2.76,2.8203,2.9026,3.0058,3.0357,3.0746,3.1271,3.1436,3.1511,3.1511,3.1351,3.1278,3.1278,3.045,3.0042,3.0042,2.916,2.8748,2.8716,2.7855,2.7484,2.7417,2.6782,2.6499,2.6537,2.709,2.7607,2.821,2.9227,2.9691,2.9792,2.9792,2.9663,2.9495,3.119,3.119,0.0,0.0,0.0,0.0,0.0,0.0,0.0,0.0,0.0,3.1487,3.1843,3.1897,3.2057,3.2467,3.2501,3.2517,3.2583,3.1751,0.0,3.0371,2.9821,2.9204,2.8476,0.0,0.0,0.0,0.0,0.0,0.0,0.0,0.0,0.0,2.8407,2.8237,2.7968,2.7968,2.8126,2.8404,2.8356,2.8325,2.8331,2.8713,2.8857,2.8959,2.9702,3.0395,3.0937,3.0937,3.0514,2.9989,2.9989,2.9161,2.8307,2.8829,2.8626,2.8307,2.8848,2.8993,2.8993,2.8993,2.8993,2.9179,2.9837,0.0,3.0294,3.0937,0.0,3.0918,3.0393,0.0,0.0,2.7866,2.8061,2.7999,2.6879,2.7225,2.76,2.76,2.76,2.76,2.76,2.8203,2.8667,2.8801,2.9864,3.0537,3.0612,3.1182,3.1511,3.1511,3.0807,3.0419,3.0419,2.9566,2.916,2.9129,2.8279,2.7855,2.7835,2.7007,2.6658,2.6624,2.6521,2.6499,2.6537,2.709,2.7607,2.816,2.8787,2.934,2.9792,2.9792,2.9145,2.8307,3.119,3.119,0.0,0.0,0.0,0.0,0.0,0.0,0.0,0.0,3.119,3.1252,3.143,3.1468,3.1526,3.1731,3.1749,3.1842,3.2092,3.1594,0.0,3.0218,3.0049,2.9463,2.8425,0.0,0.0,0.0,2.8761,0.0,0.0,0.0,0.0,0.0,2.7762,2.7924,2.8196,2.8196,2.8523,2.909,2.9505,2.9575,2.9396,2.9573,2.9888,3.033,3.0632,3.0937,3.119,3.119,3.0987,3.0675,3.0326,2.9814,2.9444,2.9683,2.9566,2.9428,2.9683,2.9742,2.9683,2.9305,2.9222,2.9325,2.9636,2.9681,2.9784,3.01,0.0,0.0,0.0,0.0,0.0,0.0,2.8014,2.7779,2.725,2.742,2.76,2.76,2.76,2.76,2.76,2.7854,2.8173,2.8562,2.9101,2.9523,2.9782,3.0061,3.0176,3.0058,2.9721,2.9535,2.9535,2.8684,2.8247,2.8247,2.7384,2.7007,2.7007,2.6658,2.6499,2.6499,2.6499,2.6499,2.6537,2.709,2.7607,2.816,2.8675,2.9289,2.9702,2.9067,2.8505,2.8016,3.119,0.0,0.0,0.0,0.0,0.0,0.0,0.0,3.119,3.119,3.119,3.119,3.119,3.119,3.119,3.119,3.119,3.1312,3.1621,3.1411,3.0938,3.0203,3.0367,2.994,2.8727,2.8937,0.0,0.0,0.0,0.0,0.0,0.0,0.0,0.0,2.7807,2.8142,2.8561,2.8561,2.8991,2.9712,3.0245,3.0439,3.0395,3.0395,3.0734,3.119,3.119,3.1095,3.0938,3.0938,3.0838,3.0638,3.0187,2.9935,2.9827,3.0,2.9951,2.9848,3.0016,3.0059,2.9951,2.9518,2.9406,2.9406,2.9406,2.9406,2.9406,2.9406,2.9406,0.0,0.0,0.0,2.8377,2.804,0.0,2.754,2.7345,2.748,2.76,2.76,2.76,2.76,2.76,2.76,2.7809,2.8278,2.8315,2.8456,2.88,2.8926,2.8923,2.8803,2.8698,2.8652,2.8652,2.7802,2.7384,2.7351,2.6782,2.6499,2.6499,2.6499,2.6499,2.6499,2.6499,2.6499,2.6537,2.709,2.7607,2.8123,2.835,2.8831,2.9236,2.8426,2.7723,2.7093,3.119,3.119,0.0,0.0,0.0,0.0,0.0,3.119,3.119,3.119,3.119,3.119,3.119,3.119,3.119,3.119,3.119,3.121,3.121,3.1213,3.0876,3.0146,3.0853,3.0699,2.9503,3.0297,3.0506,3.0066,0.0,0.0,0.0,0.0,0.0,0.0,2.9107,2.9265,2.8977,2.8977,2.9417,3.0093,3.011,3.055,3.1157,3.1157,3.1173,3.119,3.119,3.0821,3.033,3.033,2.9935,2.9451,2.9429,2.9035,2.8662,2.9248,2.9012,2.8701,2.9271,2.9429,2.9429,2.9406,2.9406,2.9406,2.9406,2.9406,2.9406,2.9406,2.9406,2.9225,2.8654,2.8511,0.0,0.0,2.718,0.0,0.0,2.7195,2.76,2.76,2.76,2.76,2.76,2.76,2.76,2.763,2.7571,2.7543,2.7559,2.8003,2.8227,2.8224,2.7919,2.7736,2.7736,2.6939,2.6521,2.6521,2.6499,2.6499,2.6499,2.6499,2.6499,2.6499,2.6499,2.6499,2.6537,2.709,2.7607,2.805,2.7543,2.7671,2.8136,2.8124,2.6726,2.4914,0.0,0.0,0.0,3.119,3.119,3.119,3.119,3.119,3.119,3.119,3.119,3.119,3.119,3.119,3.119,3.119,3.119,3.119,3.119,3.1449,3.1145,3.0142,3.0872,3.0737,2.9522,2.9787,2.9996,3.009,2.9589,0.0,0.0,0.0,0.0,0.0,2.9055,2.9374,2.9736,2.9736,3.0159,3.0835,3.0835,3.097,3.119,3.119,3.0938,3.0601,3.0601,3.0208,2.9695,2.9695,2.9563,2.9339,2.8943,2.8662,2.8535,2.8732,2.8677,2.8535,2.8756,2.8803,2.8709,2.8304,2.8222,2.8222,2.8222,2.8222,2.8222,2.8222,2.8222,2.8149,2.7944,2.7894,0.0,0.0,0.0,2.7525,0.0,2.7465,2.76,2.76,2.76,2.76,2.76,2.7178,2.6878,2.6878,2.6388,2.605,2.5906,2.6077,2.6259,2.6472,2.638,2.6509,2.6905,2.6658,2.6499,2.6499,2.6499,2.6499,2.6499,2.6499,2.6499,2.6499,2.6499,2.67,2.702,2.6846,2.7111,2.7505,2.6999,2.6427,2.59,2.59,2.5452,2.4754,3.119,3.119,3.119,3.119,3.119,3.119,3.119,3.119,3.1275,3.1565,3.1599,3.1681,3.1952,3.1985,3.1985,3.1985,3.1732,3.1599,3.1599,3.1585,3.1264,3.0514,3.1115,3.1045,3.0123,3.0231,3.037,3.049,2.9972,2.9711,0.0,0.0,0.0,0.0,2.967,3.004,3.0497,3.0497,3.0768,3.1171,3.0975,3.0878,3.0858,3.0638,3.0456,3.0272,3.0059,2.9585,2.9065,2.9065,2.8927,2.8693,2.8295,2.8189,2.8189,2.8189,2.8189,2.8189,2.8189,2.8189,2.8091,2.7685,2.76,2.76,2.76,2.76,2.76,2.76,2.76,2.76,2.76,2.76,2.76,0.0,0.0,0.0,0.0,2.76,2.76,2.76,2.76,2.76,2.76,2.693,2.651,2.651,2.5563,2.4956,2.4833,2.4758,2.4902,2.5285,2.5498,2.5908,2.6487,2.6499,2.6499,2.6499,2.6499,2.6499,2.6499,2.6499,2.6499,2.6499,2.6499,2.6579,2.6685,2.6547,2.6591,2.6642,2.6095,2.5462,2.4787,2.4787,2.4542,2.4153,3.1309,3.1309,3.1309,3.1309,3.1275,3.1241,3.1241,3.1275,3.1546,3.2259,3.2344,3.2632,3.3322,3.3406,3.3406,3.3406,3.2767,3.2344,3.2344,3.1667,3.1241,3.1241,3.16,3.1584,3.121,3.1565,3.1584,3.119,3.0497,3.014,0.0,0.0,0.0,0.0,3.0886,3.119,3.119,3.119,3.119,3.1095,3.0497,3.0251,3.0187,2.9585,2.9717,3.0145,2.9563,2.8966,2.8479,2.8479,2.8097,2.7645,2.7645,2.766,2.769,2.769,2.769,2.769,2.769,2.769,2.769,2.769,2.769,2.769,2.766,2.7645,2.7645,2.76,2.76,2.76,2.76,2.76,2.76,0.0,0.0,0.0,2.76,2.76,2.76,2.76,2.7575,2.756,2.76,2.6904,2.6457,2.6457,2.5063,2.4234,2.4234,2.4067,2.4217,2.4775,2.5297,2.585,2.6487,2.6499,2.6499,2.6499,2.6499,2.6499,2.6499,2.6499,2.6499,2.6499,2.649,2.6147,2.5664,2.617,2.6035,2.5507,2.4945,2.4702,2.4702,2.4702,2.4059,2.3188,3.2848,3.2848,3.2848,3.2848,3.2374,3.2022,3.2022,3.2476,3.2899,3.3085,3.3119,3.3186,3.3389,3.3406,3.3406,3.3406,3.3237,3.3119,3.3119,3.2425,3.2022,3.2022,3.1599,3.131,3.121,3.131,3.131,3.119,3.1004,3.092,3.092,0.0,0.0,0.0,3.1106,3.119,3.119,3.119,3.0938,3.0477,2.987,2.9629,2.9563,2.895,2.8826,2.8943,2.8779,2.8343,2.7835,2.7835,2.8056,2.8338,2.8338,2.8693,2.9097,2.9097,2.9097,2.9097,2.9097,2.9097,2.9097,2.9097,2.9097,2.8963,2.8442,2.8338,2.8188,2.7705,2.76,2.76,2.76,2.76,2.76,2.76,2.76,2.76,2.76,2.76,2.76,2.76,2.7126,2.6982,2.7549,2.6428,2.5673,2.5673,2.4266,2.3395,2.3395,2.3367,2.3772,2.4763,2.4913,2.5485,2.6487,2.6499,2.6499,2.6499,2.6499,2.6499,2.6499,2.6499,2.6499,2.6477,2.603,2.5983,2.6182,2.5085,2.4787,2.4914,2.3922,2.3551,2.3551,2.3551,2.355,2.3682,3.3406,3.3406,3.3406,3.3406,3.3322,3.3156,3.2835,3.3136,3.3525,3.3846,3.388,3.3998,3.4315,3.4349,3.4349,3.4349,3.4066,3.388,3.388,3.3186,3.278,3.278,3.2073,3.1684,3.1684,3.136,3.119,3.119,3.119,3.119,3.119,0.0,0.0,0.0,3.119,3.119,3.119,3.0918,3.0617,3.023,2.9361,2.9186,0.0,2.8781,2.8732,2.8992,2.8992,2.8581,2.8094,2.8378,2.8738,2.9026,2.9026,2.928,2.9606,2.9606,2.9606,2.9606,2.9606,2.9606,2.9606,2.9606,2.9606,2.9517,2.9116,2.9026,2.8846,2.8184,2.8049,2.7959,2.7645,2.76,2.76,2.76,2.76,2.76,2.76,2.76,2.76,2.76,2.7229,2.7023,2.7111,2.5769,2.4922,2.4922,2.3796,2.3108,2.3108,2.3108,2.3622,2.475,2.4788,2.5347,2.6487,2.6499,2.6499,2.6499,2.6499,2.6499,2.6499,2.6499,2.6245,2.584,2.566,2.5417,2.5027,2.4305,2.4032,2.4006,2.3343,2.3091,2.312,2.3305,2.3574,2.3857,3.3694,3.3694,3.3694,3.3694,3.4218,3.4421,3.3795,3.3694,3.3931,3.4556,3.4641,3.4895,3.5532,3.56,3.56,3.56,3.5013,3.4641,3.4641,3.3947,3.3541,3.3541,3.2831,3.2446,3.2446,3.1735,3.1326,3.1326,3.1241,3.119,0.0,0.0,0.0,3.119,3.119,3.1151,3.1035,3.0435,3.0194,3.0103,2.8967,2.8922,2.9448,2.8947,2.9086,2.9621,2.9696,2.928,2.8816,2.9412,2.9666,2.9726,2.9726,2.9786,2.9834,2.9834,2.9834,2.9834,2.9834,2.9834,2.9834,2.9834,2.9834,2.9846,2.9756,2.9726,2.9547,2.8861,2.8667,2.8412,2.7839,2.7584,2.7473,2.7473,2.7473,2.7408,2.7331,2.7382,2.7408,2.7316,2.7214,0.0,2.6283,2.5147,2.4408,2.4321,2.356,2.3108,2.3108,2.317,2.3697,2.4763,2.4863,2.5423,2.6487,2.6499,2.6499,2.6499,2.6499,2.6418,2.6314,2.6314,2.5805,2.492,2.5195,2.4574,2.3417,2.3743,2.3554,2.3091,2.3091,2.313,2.3227,2.3652,2.3857,2.4014,3.5211,3.5211,3.5211,3.5211,3.5312,3.5346,3.5228,3.5211,3.5261,3.538,3.5397,3.5447,3.5583,3.56,3.56,3.56,3.5481,3.5397,3.5397,3.4726,3.4303,3.4303,3.3592,3.322,3.322,3.2476,3.2107,3.2107,3.1515,3.119,0.0,0.0,3.119,3.119,3.119,3.0918,3.0414,2.9805,2.9582,2.9576,2.887,2.8985,2.9572,2.9454,2.9517,2.9681,3.0163,2.9939,2.9457,2.9577,2.9924,3.0342,3.0342,3.0731,3.1167,3.1167,3.1167,3.1167,3.1167,3.1167,3.1167,3.1167,3.1167,3.1017,3.0477,3.0342,3.0163,2.9535,2.8981,2.8562,2.8442,2.7468,2.6695,2.6695,2.6695,2.6469,2.5864,2.631,2.6469,2.5864,2.5245,2.4838,2.4709,2.5007,2.4951,2.435,2.356,2.3108,2.3108,2.359,2.4155,2.4775,2.5234,2.5787,2.6487,2.6499,2.6499,2.6499,2.6499,2.606,2.5264,2.5264,2.4942,2.4314,2.39,2.3761,2.3846,2.3433,2.3197,2.3091,2.3091,2.3359,2.3682,2.376,2.4238,2.49,3.6146,3.6214,3.6349,3.6738,3.6783,3.6783,3.6783,3.6783,3.6495,3.5701,3.56,3.56,3.56,3.56,3.56,3.56,3.56,3.56,3.56,3.5261,3.5081,3.5081,3.4353,3.3964,3.3964,3.3254,3.2865,3.2865,3.2121,3.1769,3.1769,3.1376,3.119,3.1207,3.124,3.1082,3.0783,3.0218,2.9998,2.996,2.9376,2.949,3.0058,3.0058,3.0283,3.0627,3.0898,3.0823,3.0597,3.0597,3.0791,3.1017,3.1017,3.1241,3.1511,3.1511,3.1511,3.1511,3.1511,3.1511,3.1511,3.1511,3.1511,3.1421,3.1077,3.1017,3.0851,3.0193,2.9487,2.863,2.7534,2.6561,2.5933,2.5933,2.5933,2.581,2.5453,2.5701,2.5783,2.5425,2.5091,2.4709,2.435,2.4624,2.4509,2.375,2.3305,2.3108,2.3108,2.369,2.4255,2.4775,2.5322,2.5908,2.6487,2.6499,2.6499,2.6487,2.599,2.5476,2.4981,2.4699,2.4153,2.342,2.3596,2.3484,2.3197,2.3132,2.3091,2.3091,2.3091,2.3408,2.3818,2.4033,2.4521,2.5116,3.6907,3.7032,3.7212,3.7804,3.7905,3.7905,3.7905,3.7905,3.7466,3.6242,3.609,3.6022,3.5853,3.5853,3.5785,3.5616,3.56,3.56,3.56,3.56,3.56,3.56,3.5047,3.4726,3.4726,3.4015,3.3643,3.3643,3.2903,3.2462,3.2293,3.1867,3.1604,3.1442,3.1347,3.1261,3.1112,3.0669,3.0505,3.0462,2.9976,3.0163,3.0717,3.0717,3.1032,3.1511,3.1511,3.1511,3.1511,3.1511,3.1511,3.1511,3.1511,3.1511,3.1511,3.1511,3.1511,3.1511,3.1511,3.1511,3.1511,3.1511,3.1511,3.1511,3.1511,3.1511,3.1289,3.0594,2.9682,2.8462,2.6559,2.571,2.5298,2.5175,2.5175,2.5119,2.4951,2.5063,2.5091,2.4922,2.4922,2.4667,2.4089,2.4031,2.3767,2.3138,2.3108,2.3158,2.3283,2.3866,2.4418,2.4938,2.5498,2.6034,2.6487,2.6499,2.6383,2.6164,2.537,2.4791,2.436,2.4041,2.3403,2.2586,2.334,2.3301,2.2676,2.2955,2.3091,2.311,2.3198,2.3545,2.3975,2.4394,2.4834,2.5215,3.7787,3.7804,3.7821,3.7889,3.7905,3.7905,3.7905,3.7905,3.7855,3.7702,3.7686,3.7432,3.6761,3.6694,3.6383,3.565,3.56,3.56,3.56,3.56,3.56,3.56,3.5532,3.5498,3.5498,3.4776,3.4387,3.4387,3.366,3.2949,3.231,3.2916,3.2873,3.2247,3.1659,3.1091,3.0575,3.051,3.0494,3.0501,3.0445,3.0821,3.1406,3.1406,3.1451,3.1511,3.1511,3.1511,3.1511,3.1511,3.1511,3.1511,3.1511,3.1511,3.1511,3.1511,3.1511,3.1511,3.1511,3.1511,3.1511,3.1511,3.1511,3.1511,3.1511,3.1511,3.1263,3.0467,2.9167,2.7732,2.6443,2.5616,2.4988,2.4487,2.4408,2.4147,2.3424,2.3943,2.4147,2.3382,2.3335,2.3305,2.3215,2.3215,2.3198,2.3108,2.3108,2.3333,2.3891,2.4443,2.4983,2.5511,2.6109,2.6436,2.6499,2.6499,2.6025,2.5158,2.504,2.4047,2.2301,2.2664,2.2508,2.2011,2.2431,2.281,2.3042,2.3081,2.3091,2.314,2.3574,2.3984,2.4414,2.4844,2.5293,2.5625,3.8464,3.8565,3.87,3.914,3.9208,3.9208,3.9208,3.9208,3.9208,3.9208,3.8447,3.7787,3.7483,3.7449,3.7144,3.6383,3.6315,3.6129,3.5633,3.523,3.4988,3.4988,3.4616,3.4399,3.4399,3.412,3.3956,3.3956,3.3617,3.3301,3.3018,3.2862,3.2445,3.1781,3.1523,3.1254,3.1041,3.1073,3.1091,3.1092,3.1092,3.1256,3.1511,3.1511,3.1511,3.1511,3.1511,3.1511,3.1511,3.1511,3.1511,3.1511,3.1511,3.1511,3.1511,3.1511,3.1511,3.1511,3.1511,3.1511,3.1511,3.1511,3.1161,3.0777,3.0777,3.0389,2.9919,2.9597,2.8363,2.7037,2.6039,2.5084,2.4354,2.4154,2.3833,2.3484,2.3138,2.3365,2.3454,2.3125,2.3108,2.3108,2.3108,2.3108,2.3108,2.3108,2.3108,2.3358,2.3966,2.4519,2.5059,2.5573,2.6197,2.6499,2.6499,2.5908,2.5406,2.4981,2.3781,2.2928,2.2429,2.2299,2.2386,2.2646,2.2769,2.2945,2.3091,2.3091,2.3247,2.3545,2.3721,2.4209,2.4834,2.5047,2.5352,2.5693,3.9208,3.9309,3.9503,4.0011,4.0096,4.0096,4.0096,4.0096,4.0096,4.0096,3.9191,3.8464,3.8261,3.8227,3.7922,3.7178,3.711,3.6789,3.6011,3.5298,3.483,3.4616,3.3962,3.3582,3.3582,3.3582,3.3582,3.3582,3.3534,3.3411,3.3175,3.244,3.1991,3.1744,3.1531,3.1438,3.1442,3.1471,3.1511,3.1511,3.1511,3.1511,3.1511,3.1511,3.1511,3.1511,3.1511,3.1511,3.1511,3.1511,3.1511,3.1511,3.1511,3.1511,3.1511,3.1511,3.1511,3.1438,3.1219,3.1161,3.1087,3.0837,3.0329,2.9919,2.9919,2.9442,2.8939,2.8684,2.7634,2.6537,2.5757,2.4983,2.4368,2.4054,2.3653,2.3296,2.3133,2.3108,2.3108,2.3108,2.3108,2.3108,2.3108,2.3258,2.3358,2.3358,2.3509,2.3772,2.4217,2.4293,2.4682,2.5407,2.5548,2.5616,2.5616,2.4921,2.4409,2.4108,2.2805,2.2223,2.2263,2.2125,2.2461,2.3091,2.3091,2.3091,2.311,2.3227,2.3516,2.3818,2.4072,2.4578,2.5135,2.5215,2.5469,2.5693,4.0079,4.0096,4.0096,4.0096,4.0096,4.0096,4.0096,4.0096,4.0096,4.0096,4.0079,3.9808,3.9056,3.8988,3.8684,3.7956,3.7889,3.7567,3.6829,3.6104,3.5358,3.4633,3.3962,3.3582,3.3582,3.3582,3.3582,3.3582,3.3608,3.323,3.2499,3.1763,3.182,3.2544,3.1838,3.1496,3.1496,3.1496,3.1511,3.1511,3.1511,3.1511,3.1511,3.1511,3.1511,3.1511,3.1511,3.1511,3.1511,3.1511,3.1511,3.1511,3.1511,3.1511,3.1511,3.1511,3.1511,3.1322,3.0524,3.0299,3.0103,2.9254,2.9034,2.9034,2.9034,2.9002,2.8748,2.7887,2.7061,2.6311,2.5699,2.5586,2.5234,2.4167,2.3991,2.3791,2.3183,2.3108,2.3108,2.3108,2.3108,2.3108,2.3108,2.3653,2.3991,2.3991,2.4494,2.4775,2.4775,2.3833,2.3831,2.4969,2.4036,2.3551,2.3551,2.3514,2.3036,2.2038,2.2461,2.2164,2.1269,2.2109,2.2691,2.3091,2.3091,2.3091,2.313,2.3603,2.3779,2.3877,2.4763,2.5106,2.5174,2.5566,2.5684,2.5693,4.0849,4.0468,4.0096,4.0096,4.0096,4.0096,4.0096,4.0096,4.0096,4.0096,4.0096,4.0011,3.9791,3.9757,3.9445,3.87,3.865,3.8345,3.7601,3.5951,3.4907,3.4681,3.306,3.2173,3.2173,3.2173,3.2173,3.2173,3.268,3.2812,3.2567,3.2326,3.2084,3.1853,3.1611,3.1511,3.1511,3.1511,3.1511,3.1511,3.1511,3.1511,3.1511,3.1511,3.1511,3.1511,3.1511,3.1511,3.1511,3.1511,3.1161,3.0673,3.0673,3.0673,3.0673,3.0673,3.0269,2.9735,2.9473,2.9411,2.9348,2.9066,2.8556,2.8117,2.8117,2.7703,2.7229,2.6939,2.6692,2.6436,2.6248,2.5862,2.5485,2.5146,2.4481,2.3941,2.3753,2.3358,2.3108,2.3108,2.3108,2.3258,2.369,2.3891,2.4155,2.4531,2.4055,2.3969,2.4389,2.4084,2.3932,2.3988,2.3672,2.3514,2.3514,2.2813,2.2488,2.2471,2.1916,2.1807,2.2077,2.2643,2.2974,2.3091,2.3091,2.3091,2.313,2.3613,2.3965,2.4277,2.4891,2.5254,2.5537,2.5635,2.5693,2.5693,4.161,4.1238,4.0942,4.0942,4.0705,4.0493,4.0493,4.0282,4.0096,4.0096,4.0096,4.0096,4.0096,4.0096,3.9792,3.9042,3.8966,3.8521,3.7509,3.5921,3.4901,3.4648,3.285,3.1869,3.1869,3.163,3.1511,3.1511,3.1951,3.2203,3.2203,3.2203,3.1923,3.1511,3.1511,3.1511,3.1511,3.1511,3.1511,3.1511,3.1511,3.1511,3.1511,3.1511,3.1511,3.1511,3.1511,3.1511,3.1438,3.1161,3.0718,3.0238,2.9919,2.9597,2.938,2.9721,2.9442,2.8939,2.8588,2.8524,2.8427,2.8149,2.7637,2.7263,2.7263,2.685,2.6499,2.6499,2.6499,2.6499,2.6499,2.6197,2.585,2.5636,2.5034,2.4456,2.4054,2.369,2.3346,2.3133,2.3296,2.3602,2.3966,2.4038,2.4214,2.4546,2.3831,2.3375,2.3366,2.3171,2.3046,2.294,2.259,2.2414,2.2414,2.1921,2.1849,2.2135,2.1827,2.2038,2.2711,2.2974,2.3091,2.3091,2.3091,2.3188,2.3418,2.3848,2.4277,2.4707,2.5146,2.5488,2.5693,2.5693,2.5693,2.5693,4.2371,4.2337,4.2286,4.2286,4.1728,4.1288,4.1288,4.0646,4.018,4.018,4.0079,4.002,4.002,3.9969,3.961,3.8827,3.8854,3.8302,3.6862,3.6021,3.5268,3.4605,3.3304,3.2557,3.2557,3.1914,3.1555,3.1511,3.1511,3.1511,3.1511,3.1511,3.1511,3.1511,3.1511,3.1511,3.1511,3.1511,3.1511,3.1511,3.1511,3.1511,3.1511,3.1511,3.1467,3.1409,3.1409,3.138,3.1219,3.045,3.0178,2.9981,2.916,2.8298,2.7802,2.8652,2.8876,2.8652,2.7835,2.7604,2.7451,2.6679,2.6499,2.6499,2.6499,2.6499,2.6499,2.6499,2.6499,2.6499,2.6499,2.6499,2.6323,2.5737,2.5624,2.5247,2.4255,2.4079,2.3853,2.3283,2.3697,2.4036,2.401,2.4141,2.4174,2.4141,2.3665,2.2999,2.2027,2.148,2.1412,2.1903,2.1039,2.0615,2.0644,2.1025,2.122,2.1298,2.2116,2.2721,2.3091,2.3091,2.3091,2.3091,2.312,2.3418,2.3828,2.4277,2.4697,2.5165,2.5566,2.5693,2.5693,2.5693,2.5693,2.5693,4.3149,4.2692,4.2286,4.2286,4.2151,4.2033,4.2033,4.1407,4.0933,4.0933,3.991,3.9166,3.9166,3.8679,3.8019,3.7202,3.8213,3.8498,3.7594,3.6317,3.5515,3.536,3.4031,3.326,3.326,3.2617,3.2004,3.1511,3.1511,3.1511,3.1511,3.1511,3.1511,3.1511,3.1511,3.1511,3.1511,3.1511,3.1511,3.1511,3.1511,3.1511,3.1511,3.1511,3.1117,3.0584,3.0584,3.0178,2.9566,2.938,2.8876,2.8266,2.8084,2.7451,2.6939,2.7769,2.7571,2.704,2.685,2.6782,2.6748,2.6555,2.6499,2.6499,2.6499,2.6499,2.6499,2.6499,2.6499,2.6499,2.6499,2.6499,2.6449,2.6311,2.5921,2.5498,2.5247,2.487,2.4569,2.4412,2.4512,2.4491,2.4165,2.4191,2.4061,2.3686,2.2859,2.2253,2.2027,2.1197,2.0786,2.0934,2.0712,2.0772,2.1034,2.1142,2.1522,2.2217,2.2691,2.3003,2.3091,2.3091,2.3091,2.311,2.3496,2.3691,2.3848,2.46,2.5018,2.5165,2.5566,2.5693,2.5693,2.5693,2.5693,2.5693,4.2844,4.2455,4.2175,4.2175,4.1865,4.1782,4.2194,4.1604,4.1019,4.0712,3.9972,3.9177,3.8474,3.8035,3.7485,3.6676,3.735,3.7541,3.6799,3.6014,3.5537,3.5537,3.4527,3.3948,3.3948,3.3305,3.2647,3.1959,3.1959,3.1795,3.1511,3.1511,3.1511,3.1511,3.1511,3.1511,3.1511,3.1511,3.1511,3.1511,3.1511,3.1278,3.097,3.097,3.0419,2.969,2.969,2.9411,2.8939,2.8524,2.8084,2.7637,2.7263,2.685,2.6589,2.704,2.685,2.6499,2.6499,2.6499,2.6499,2.6499,2.6499,2.6499,2.6499,2.6499,2.6499,2.6499,2.6499,2.6499,2.6499,2.6499,2.6499,2.6499,2.6235,2.5933,2.5636,2.536,2.5084,2.4813,2.5034,2.4909,2.4276,2.4003,2.3595,2.2866,2.1924,2.1375,2.1375,2.0895,2.0605,2.0605,2.0762,2.0986,2.119,2.158,2.2107,2.276,2.2984,2.3091,2.3091,2.3091,2.3198,2.3447,2.3691,2.4014,2.4414,2.492,2.5195,2.54,2.5596,2.5693,2.5693,2.5693,2.5693,2.5693,4.2157,4.1997,4.1997,4.1997,4.1486,4.1321,4.2054,4.1491,4.0803,4.0299,3.9919,3.9231,3.7913,3.7578,3.716,3.6508,3.6446,3.6165,3.5537,3.5504,3.5504,3.5504,3.4936,3.4668,3.4668,3.3978,3.332,3.2662,3.2662,3.2303,3.1645,3.1645,3.16,3.1511,3.1511,3.1511,3.1511,3.1511,3.1511,3.1511,3.138,3.0896,3.0299,3.0133,2.9566,2.8812,2.8812,2.8771,2.8627,2.7901,2.77,2.7644,2.6967,2.6738,2.6738,2.6738,2.6738,2.6713,2.6537,2.6499,2.6499,2.6499,2.6499,2.6499,2.6499,2.6499,2.6499,2.6499,2.6499,2.6499,2.6499,2.6499,2.6499,2.6499,2.6499,2.6323,2.5799,2.5724,2.5561,2.5121,2.5315,2.5139,2.42,2.3604,2.285,2.1849,2.1039,2.0635,2.0703,2.0703,2.0732,2.0801,2.1074,2.1259,2.1385,2.2207,2.274,2.3091,2.3091,2.3091,2.3091,2.3169,2.3437,2.3799,2.3926,2.4441,2.5116,2.5184,2.5391,2.5693,2.5693,2.5693,2.5693,2.5693,2.5693,2.5693,4.2157,4.1997,4.1997,4.1997,4.1917,4.1869,4.2028,4.1402,4.089,4.0777,3.9154,3.7888,3.767,3.658,3.5829,3.5668,3.5668,3.5619,3.5504,3.5504,3.5504,3.5504,3.54,3.534,3.534,3.4681,3.4039,3.3335,3.3335,3.3006,3.2333,3.2333,3.2034,3.1511,3.1511,3.1511,3.1511,3.1511,3.1511,3.1438,3.0777,3.0419,3.0238,2.9473,2.8652,2.7887,2.7887,2.7764,2.7551,2.7424,2.7657,2.8026,2.7882,2.7846,2.7846,2.7846,2.7846,2.7645,2.6751,2.6499,2.6499,2.6499,2.6499,2.6499,2.6499,2.6499,2.6499,2.6499,2.6499,2.6499,2.6499,2.6499,2.6499,2.6499,2.6499,2.6461,2.6373,2.6361,2.6336,2.6248,2.5563,2.4696,2.3704,2.277,2.1849,2.0895,2.0673,2.0732,2.1073,2.1093,2.1299,2.1711,2.1387,2.1541,2.2305,2.275,2.3033,2.3091,2.3091,2.3091,2.311,2.3525,2.3721,2.3828,2.4607,2.4988,2.5145,2.5478,2.5625,2.5693,2.5693,2.5693,2.5693,2.5693,2.5693,2.5693,4.0774,4.0619,4.0619,4.0619,4.0619,4.0774,4.1247,4.1012,4.0649,4.0305,3.9058,3.7896,3.709,3.6092,3.5504,3.5504,3.5504,3.5504,3.5504,3.5504,3.5504,3.5504,3.5504,3.5504,3.5504,3.519,3.4696,3.4054,3.4054,3.3694,3.3036,3.3036,3.2421,3.132,3.132,3.0889,3.0133,3.0133,3.0133,3.0103,2.9766,2.9498,2.9297,2.8874,2.8369,2.7905,2.7905,2.7837,2.772,2.772,2.7896,2.8109,2.8109,2.8109,2.8109,2.8109,2.8109,2.7996,2.7494,2.7165,2.6939,2.6939,2.6713,2.6499,2.6499,2.6499,2.6499,2.6499,2.6499,2.6499,2.6499,2.6499,2.6499,2.6499,2.6499,2.6499,2.6499,2.6499,2.6499,2.6499,2.5616,2.46,2.3588,2.259,2.1593,2.0673,2.0791,2.1016,2.1181,2.1455,2.1787,2.2207,2.2021,2.2175,2.2799,2.3003,2.3091,2.3091,2.3091,2.3218,2.3496,2.3691,2.4043,2.4502,2.494,2.5205,2.5449,2.5606,2.5693,2.5693,2.5693,2.5693,2.5693,2.5693,2.5693,2.5693,3.9574,3.9388,3.9388,3.9388,3.9388,3.9646,4.0309,4.0397,4.0213,3.969,3.9044,3.8152,3.6862,3.6118,3.5669,3.5519,3.5504,3.5504,3.5504,3.5504,3.5504,3.5504,3.5504,3.5504,3.5504,3.5504,3.525,3.4711,3.4711,3.4382,3.3724,3.3492,3.2687,3.1409,3.1157,3.0443,2.9385,2.9385,2.9385,2.9352,2.9159,2.8939,2.8697,2.849,2.8289,2.8109,2.8109,2.8185,2.8298,2.8298,2.8386,2.8499,2.8499,2.8499,2.8499,2.8499,2.8499,2.8448,2.8172,2.7795,2.7469,2.7469,2.719,2.6839,2.6713,2.6688,2.665,2.6524,2.6499,2.6499,2.6499,2.6499,2.6499,2.6499,2.6499,2.6499,2.6499,2.6499,2.6418,2.6176,2.5252,2.4264,2.3257,2.2321,2.1537,2.0791,2.1133,2.1385,2.1483,2.1846,2.2217,2.2646,2.2656,2.2769,2.3091,2.3091,2.3091,2.3091,2.3198,2.3467,2.3799,2.3994,2.4443,2.5125,2.5176,2.542,2.5693,2.5693,2.5693,2.5693,2.5693,2.5693,2.5693,2.5693,2.5693,2.5693,3.9574,3.9388,3.9388,3.9388,3.9388,3.9409,3.9481,3.9517,3.9466,3.9421,3.8842,3.8132,3.7404,3.6791,3.6178,3.5549,3.5504,3.5504,3.5504,3.5504,3.5504,3.5504,3.5504,3.5504,3.5504,3.5504,3.5489,3.5429,3.5429,3.507,3.4397,3.3536,3.2749,3.2004,3.1062,3.0567,3.0458,3.0458,3.0458,3.0438,2.9667,2.9359,2.9258,2.8443,2.8132,2.8109,2.8109,2.8436,2.8838,2.8838,2.9227,2.9666,2.9666,2.9666,2.9666,2.9666,2.9666,2.944,2.8398,2.8072,2.8047,2.8047,2.8009,2.7846,2.7344,2.7218,2.7115,2.66,2.6499,2.6499,2.6499,2.6499,2.6499,2.6499,2.6499,2.6499,2.6499,2.6499,2.6164,2.5229,2.4228,2.322,2.2215,2.1576,2.1222,2.1142,2.1592,2.2012,2.2393,2.2451,2.2656,2.3033,2.3052,2.3062,2.3091,2.3091,2.3091,2.3101,2.3545,2.376,2.3818,2.4656,2.5057,2.5135,2.5508,2.5664,2.5693,2.5693,2.5693,2.5693,2.5693,2.5693,2.5693,2.5693,2.5693,2.5693,3.9481,3.9388,3.9388,3.9388,3.9388,3.9388,3.9388,3.9388,3.9388,3.9388,3.8811,3.8138,3.7479,3.6851,3.6222,3.5564,3.5504,3.5504,3.5504,3.5504,3.5504,3.5504,3.5504,3.5504,3.5504,3.5504,3.5504,3.5504,3.4872,3.4445,3.4163,3.3226,3.2166,3.1013,3.0643,2.9936,2.9054,2.9054,2.9054,2.9019,2.871,2.8784,2.9054,2.871,2.8837,2.9151,2.9151,2.9289,2.9465,2.9465,2.9616,2.9792,2.9792,2.9792,2.9792,2.9792,2.9792,2.9704,2.9264,2.8888,2.8612,2.8612,2.836,2.8047,2.7846,2.7795,2.7632,2.7115,2.7002,2.6901,2.6562,2.6499,2.6499,2.6499,2.6499,2.628,2.5664,2.5581,2.5182,2.4192,2.346,2.2841,2.2468,2.195,2.1641,2.1641,2.2031,2.2344,2.251,2.2754,2.2925,2.3091,2.3091,2.3091,2.3091,2.3091,2.3227,2.3545,2.3711,2.4072,2.4636,2.4969,2.5215,2.5488,2.5615,2.5693,2.5693,2.5693,2.5693,2.5693,2.5693,2.5693,2.5693,2.5693,2.5693,2.5693,3.9388,3.9388,3.9388,3.9388,3.9388,3.9388,3.9388,3.9388,3.9388,3.9388,3.9005,3.8377,3.7509,3.703,3.6432,3.5579,3.5504,3.5504,3.5504,3.5504,3.5504,3.5504,3.5504,3.5504,3.5504,3.518,3.5019,3.5019,3.4027,3.3567,3.3518,3.2593,3.1613,3.0662,3.0346,2.9635,2.8637,2.8637,2.8637,2.8637,2.8637,2.8863,2.9202,2.9202,2.9453,2.9792,2.9792,2.9792,2.9792,2.9792,2.9792,2.9792,2.9792,2.9792,2.9792,2.9792,2.9792,2.9792,2.9792,2.9503,2.9202,2.9202,2.8913,2.8586,2.8398,2.836,2.821,2.7657,2.7544,2.7419,2.7077,2.7014,2.7014,2.7014,2.6721,2.6271,2.5576,2.5153,2.4542,2.3561,2.309,2.2754,2.2498,2.2217,2.209,2.209,2.2471,2.2672,2.2672,2.2945,2.3091,2.3091,2.3091,2.3159,2.334,2.3305,2.3496,2.3799,2.4062,2.4502,2.5116,2.5215,2.5449,2.5693,2.5693,2.5693,2.5693,2.5693,2.5693,2.5693,2.5693,2.5693,2.5693,2.5693,2.5693,2.5693,3.9388,3.9388,3.9388,3.9388,3.9388,3.9388,3.9388,3.9388,3.9388,3.9388,3.9388,3.888,3.7554,3.7404,3.6896,3.5609,3.5504,3.5504,3.5504,3.5504,3.5504,3.5504,3.5504,3.5504,3.5504,3.4509,3.3993,3.3993,3.3066,3.2593,3.2558,3.1646,3.118,3.1143,3.0203,2.9792,2.9792,2.9792,2.9792,2.9792,2.9792,2.9792,2.9792,2.9792,2.9792,2.9792,2.9792,2.9792,2.9792,2.9792,2.9792,2.9792,2.9792,2.9792,2.9792,2.9792,2.9792,2.9792,2.9792,2.9792,2.9792,2.9792,2.9792,2.9641,2.9026,2.89,2.8737,2.8235,2.8109,2.8109,2.8109,2.8109,2.8109,2.8109,2.7186,2.646,2.6472,2.5508,2.4434,2.3402,2.3282,2.2909,2.2009,2.2275,2.2519,2.2519,2.2857,2.3091,2.3091,2.3091,2.3091,2.3091,2.3101,2.3305,2.3789,2.3789,2.3799,2.3809,2.4705,2.5116,2.5135,2.5537,2.5693,2.5693,2.5693,2.5693,2.5693,2.5693,2.5693,2.5693,2.5693,2.5693,2.5693,2.5693,2.5693,2.5693,3.9388,3.9388,3.9388,3.9388,3.9388,3.9388,3.9388,3.9388,3.9388,3.9388,3.9388,3.888,3.7554,3.7404,3.6896,3.5609,3.5504,3.5504,3.5504,3.4839,3.4461,3.4461,3.4461,3.4461,3.4461,3.3498,3.3031,3.3031,3.2069,3.1609,3.1609,3.0671,3.0203,3.0216,2.9934,2.9792,2.9792,2.9792,2.9792,2.9792,2.9792,2.9792,2.9792,2.9792,2.9792,2.9792,2.9792,2.9792,2.9792,2.9792,2.9792,2.9792,2.9792,2.9792,2.9792,2.9792,2.9792,2.9792,2.9792,2.9792,2.9792,2.9792,2.9792,2.9741,2.9578,2.9528,2.9377,2.8762,2.865,2.8561,2.8185,2.7496,2.6962,2.6962,2.6057,2.5071,2.4355,2.3949,2.3372,2.2421,2.2567,2.2631,2.2366,2.2662,2.2906,2.2906,2.3023,2.3091,2.3091,2.3091,2.3091,2.3091,2.3437,2.3662,2.3789,2.3789,2.4092,2.4734,2.4998,2.5234,2.5547,2.5625,2.5693,2.5693,2.5693,2.5693,2.5693,2.5693,2.5693,2.5693,2.5693,2.5693,2.5693,2.5693,2.5693,2.5693,3.9388,3.9388,3.9388,3.9388,3.9388,3.9388,3.9388,3.9388,3.9388,3.9388,3.9388,3.888,3.7554,3.7404,3.6896,3.5609,3.5504,3.5326,3.4953,3.4361,3.3842,3.3449,3.3101,3.3066,3.3449,3.2522,3.2069,3.2069,3.1119,3.0658,3.062,3.0075,2.9792,2.9792,2.9792,2.9792,2.9792,2.9792,2.9792,2.9792,2.9792,2.9792,2.9792,2.9792,2.9792,2.9792,2.9792,2.9792,2.9792,2.9792,2.9792,2.9792,2.9792,2.9792,2.9792,2.9792,2.9792,2.9792,2.9792,2.9792,2.9792,2.9792,2.9792,2.9792,2.9792,2.9792,2.9691,2.934,2.9277,2.8999,2.826,2.7565,2.6987,2.6558,2.5536,2.46,2.3989,2.3515,2.2996,2.2457,2.2607,2.2721,2.2721,2.2945,2.3091,2.3091,2.3091,2.3091,2.3091,2.3257,2.3398,2.3398,2.3818,2.4121,2.4297,2.4297,2.4607,2.5116,2.5244,2.5478,2.5693,2.5693,2.5693,2.5693,2.5693,2.5693,2.5693,2.5693,2.5693,2.5693,2.5693,2.5693,2.5693,2.5693,2.5693,2.5693,3.9388,3.9388,3.9388,3.9388,3.9388,3.9388,3.9388,3.9388,3.9388,3.9388,3.9388,3.8931,3.7644,3.7449,3.6926,3.5699,3.5534,3.5067,3.4061,3.391,3.3449,3.2522,3.1573,3.1462,3.2321,3.1499,3.1068,3.1068,3.0203,2.9792,2.9792,2.9792,2.9792,2.9792,2.9792,2.9792,2.9792,2.9792,2.9792,2.9792,2.9792,2.9792,2.9792,2.9792,2.9792,2.9792,2.9792,2.9792,2.9792,2.9792,2.9792,2.9792,2.9792,2.9792,2.9792,2.9792,2.9792,2.9792,2.9792,2.9792,2.9792,2.9663,2.9663,2.9663,2.9663,2.9663,2.9624,2.9534,2.9507,2.9197,2.8136,2.7884,2.7481,2.6513,2.5378,2.467,2.467,2.3757,2.3091,2.3091,2.3091,2.3091,2.3091,2.3091,2.3091,2.3091,2.3091,2.311,2.3149,2.3574,2.3809,2.3848,2.4258,2.4668,2.5106,2.5155,2.5127,2.5184,2.5537,2.5693,2.5693,2.5693,2.5693,2.5693,2.5693,2.5693,2.5693,2.5693,2.5693,2.5693,2.5693,2.5693,2.5693,2.5693,2.5693,2.5693,3.9388,3.9388,3.9388,3.9388,3.9388,3.9388,3.9388,3.9388,3.9388,3.9388,3.9388,3.911,3.8272,3.7719,3.7105,3.6342,3.5804,3.5067,3.4061,3.331,3.25,3.1536,3.0595,3.0216,3.0394,3.0216,3.0101,3.0101,2.9895,2.9792,2.9792,2.9792,2.9792,2.9792,2.9792,2.9792,2.9792,2.9792,2.9792,2.9792,2.9792,2.9792,2.9792,2.9792,2.9792,2.9792,2.9792,2.9792,2.9792,2.9792,2.9792,2.9792,2.9792,2.9792,2.9792,2.9792,2.9792,2.9792,2.9792,2.9792,2.9585,2.8688,2.8466,2.8466,2.8466,2.8466,2.8227,2.7383,2.7221,2.7139,2.6883,2.6119,2.5452,2.521,2.4211,2.3464,2.3464,2.3266,2.3091,2.3091,2.3091,2.3091,2.3091,2.3091,2.3091,2.3091,2.3091,2.3247,2.3633,2.374,2.3935,2.4268,2.4697,2.5018,2.5116,2.542,2.5596,2.5596,2.5645,2.5693,2.5693,2.5693,2.5693,2.5693,2.5693,2.5693,2.5693,2.5693,2.5693,2.5693,2.5693,2.5693,2.5693,2.5693,2.5693,2.5693,3.9388,3.9388,3.9388,3.9388,3.9388,3.9388,3.9388,3.9388,3.9388,3.9388,3.9388,3.9155,3.8467,3.7381,3.6354,3.5379,3.4564,3.3891,3.3394,3.2464,3.1499,3.0558,3.0075,2.9792,2.9792,2.9792,2.9792,2.9792,2.9792,2.9792,2.9792,2.9792,2.9792,2.9792,2.9792,2.9792,2.9792,2.9792,2.9792,2.9792,2.9792,2.9792,2.9792,2.9792,2.9792,2.9792,2.9792,2.9792,2.9792,2.9792,2.9792,2.9792,2.9792,2.9443,2.8976,2.8976,2.8621,2.8223,2.8223,2.8223,2.8091,2.7493,2.7319,2.7319,2.7319,2.7319,2.7168,2.6637,2.6524,2.6348,2.5797,2.521,2.4628,2.4092,2.3474,2.3091,2.3091,2.3091,2.3091,2.3091,2.3091,2.3091,2.3091,2.3091,2.3179,2.3437,2.3447,2.3633,2.4062,2.4287,2.4502,2.4717,2.5156,2.5391,2.5391,2.5567,2.5693,2.5693,2.5693,2.5693,2.5693,2.5693,2.5693,2.5693,2.5693,2.5693,2.5693,2.5693,2.5693,2.5693,2.5693,2.5693,2.5693,2.5693,2.5693,2.5693,3.9388,3.9388,3.9388,3.9388,3.9388,3.9388,3.9388,3.9388,3.9388,3.9388,3.9388,3.9128,3.8389,3.6757,3.5203,3.3888,3.3066,3.2522,3.2393,3.1646,3.0758,2.983,2.9792,2.9792,2.9792,2.9792,2.9792,2.9792,2.9792,2.9792,2.9792,2.9792,2.9792,2.9792,2.9792,2.9792,2.9792,2.9792,2.9792,2.9792,2.9792,2.9792,2.9792,2.9792,2.9792,2.9792,2.9792,2.9663,2.9495,2.9495,2.9378,2.9248,2.9248,2.8569,2.7815,2.7815,2.7209,2.6524,2.6524,2.6524,2.6431,2.6265,2.6224,2.6141,2.5975,2.6058,2.6141,2.5975,2.5933,2.5641,2.467,2.45,2.4211,2.3256,2.3091,2.3091,2.3091,2.3091,2.3091,2.3091,2.3091,2.312,2.3198,2.3208,2.3428,2.3867,2.3896,2.4082,2.4502,2.4873,2.5145,2.5176,2.5547,2.5693,2.5693,2.5693,2.5693,2.5693,2.5693,2.5693,2.5693,2.5693,2.5693,2.5693,2.5693,2.5693,2.5693,2.5693,2.5693,2.5693,2.5693,2.5693,2.5693,2.5693,2.5693,2.5693,3.9388,3.9388,3.9388,3.9388,3.9388,3.9388,3.9388,3.9388,3.9388,3.9388,3.9388,3.9023,3.7991,3.5939,3.4126,3.2881,3.2664,3.2249,3.1426,3.1278,3.0758,2.983,2.9792,2.9792,2.9792,2.9792,2.9792,2.9792,2.9792,2.9792,2.9792,2.9792,2.9792,2.9792,2.9792,2.9792,2.9792,2.9792,2.9792,2.9792,2.9792,2.9792,2.9792,2.9792,2.9792,2.9792,2.9792,2.9157,2.8347,2.8347,2.7695,2.6935,2.6935,2.6853,2.6719,2.6719,2.6595,2.6524,2.6524,2.6524,2.6265,2.5294,2.5041,2.4745,2.3757,2.4339,2.4755,2.3767,2.356,2.3517,2.3343,2.3343,2.3256,2.3135,2.3091,2.3091,2.3091,2.3091,2.3091,2.3091,2.3091,2.3247,2.3662,2.3701,2.3877,2.4307,2.4336,2.4521,2.4998,2.5086,2.5244,2.5586,2.5654,2.5693,2.5693,2.5693,2.5693,2.5693,2.5693,2.5693,2.5693,2.5693,2.5693,2.5693,2.5693,2.5693,2.5693,2.5693,2.5693,2.5693,2.5693,2.5693,2.5693,2.5693,2.5693,2.5693,3.9388,3.9388,3.9388,3.9388,3.9388,3.9177,3.8583,3.8509,3.8308,3.7686,3.761,3.7444,3.6982,3.4956,3.3257,3.2344,3.1527,3.1095,3.118,3.0696,3.0241,2.983,2.9792,2.9792,2.9792,2.9792,2.9792,2.9792,2.9792,2.9792,2.9792,2.9792,2.9792,2.9792,2.9792,2.9792,2.9792,2.9792,2.9792,2.9792,2.9792,2.9792,2.974,2.9106,2.8846,2.8767,2.8171,2.7626,2.7209,2.7209,2.6883,2.6524,2.6524,2.6058,2.5546,2.5546,2.5094,2.4595,2.4595,2.4595,2.4478,2.3963,2.3844,2.3714,2.3222,2.3474,2.3714,2.3222,2.3091,2.3091,2.3091,2.3091,2.3091,2.3091,2.3091,2.3091,2.3091,2.3091,2.3188,2.3477,2.3711,2.3926,2.4121,2.4141,2.4316,2.4746,2.4775,2.4971,2.542,2.5439,2.5527,2.5684,2.5693,2.5693,2.5693,2.5693,2.5693,2.5693,2.5693,2.5693,2.5693,2.5693,2.5693,2.5693,2.5693,2.5693,2.5693,2.5693,2.5693,2.5693,2.5693,2.5693,2.5693,2.5693,2.5693,2.5693]}]]